[[{"header":{"parameterUnit":"m.s-1","parameterCategory":1,"la1":30.6,"la2":29.2853,"lo1":-89.7004,"lo2":-87.6739,"dy":0.0162,"dx":0.0183,"nx":112,"ny":82,"refTime":"2023-09-11T06:00:00:Z","depth":0,"parameterNumber":2,"parameterNumberName":"U-component_of_WINDS"},"data":[0.0,0.0,0.0,0.0,0.0,0.0,0.0,0.0,0.0,0.0,0.0,0.0,0.0,0.0,0.0,0.0,0.0,0.0,0.0,0.0,0.0,0.0,0.0,0.0,0.0,0.0,0.0,0.0,0.0,0.0,0.0,0.0,0.0,0.0,0.0,0.0,0.0,0.0,0.0,0.0,0.0,0.0,0.0,0.0,0.0,0.0,0.0,0.0,0.0,0.0,0.0,0.0,0.0,0.0,0.0,0.0,0.0,0.0,0.0,0.0,0.0,0.0,0.0,0.0,0.0,0.0,0.0,0.0,0.0,0.0,0.0,0.0,0.0,0.0,0.0,0.0,0.0,0.0,0.0,0.0,0.0,0.0,0.0,0.0,0.0,0.0,0.0,0.0,0.0,0.0,0.3375,0.3295,0.8807,1.3615,1.626,1.992,2.1618,2.0378,0.0,0.0,0.0,0.0,0.0,0.0,0.0,0.0,0.0,0.0,0.0,0.0,0.0,0.0,0.0,0.0,0.0,0.0,0.0,0.0,0.0,0.0,0.0,0.0,0.0,0.0,0.0,0.0,0.0,0.0,0.0,0.0,0.0,0.0,0.0,0.0,0.0,0.0,0.0,0.0,0.0,0.0,0.0,0.0,0.0,0.0,0.0,0.0,0.0,0.0,0.0,0.0,0.0,0.0,0.0,0.0,0.0,0.0,0.0,0.0,0.0,0.0,0.0,0.0,0.0,0.0,0.0,0.0,0.0,0.0,0.0,0.0,0.0,0.0,0.0,0.0,0.0,0.0,0.0,0.0,0.0,0.0,0.0,0.0,0.0,0.0,0.0,0.0,0.0,0.0,0.0,0.0,0.0,0.0,0.0,0.0,0.0,0.0,0.0,0.0,0.0,0.0,0.0,0.0,0.6224,0.6678,1.0187,1.2669,1.3182,1.7556,1.9801,1.876,0.0,0.0,0.0,0.0,0.0,0.0,0.0,0.0,0.0,0.0,0.0,0.0,0.0,0.0,0.0,0.0,0.0,0.0,0.0,0.0,0.0,0.0,0.0,0.0,0.0,0.0,0.0,0.0,0.0,0.0,0.0,0.0,0.0,0.0,0.0,0.0,0.0,0.0,0.0,0.0,0.0,0.0,0.0,0.0,0.0,0.0,0.0,0.0,0.0,0.0,0.0,0.0,0.0,0.0,0.0,0.0,0.0,0.0,0.0,0.0,0.0,0.0,0.0,0.0,0.0,0.0,0.0,0.0,0.0,0.0,0.0,0.0,0.0,0.0,0.0,0.0,0.0,0.0,0.0,0.0,0.0,0.0,0.0,0.0,0.0,0.0,0.0,0.0,0.0,0.0,0.0,0.0,0.0,0.0,0.0,0.0,0.0,0.0,0.0,0.0,0.0,0.0,0.0,0.3388,0.5405,0.8433,1.0151,1.2541,1.6204,1.8595,2.0194,2.0873,2.2379,0.0,0.0,0.0,0.0,0.0,0.0,0.0,0.0,0.0,0.0,0.0,0.0,0.0,0.0,0.0,0.0,0.0,0.0,0.0,0.0,0.0,0.0,0.0,0.0,0.0,0.0,0.0,0.0,0.0,0.0,0.0,0.0,0.0,0.0,0.0,0.0,0.0,0.0,0.0,0.0,0.0,0.0,0.0,0.0,0.0,0.0,0.0,0.0,0.0,0.0,0.0,0.0,0.0,0.0,0.0,0.0,0.0,0.0,0.0,0.0,0.0,0.0,0.0,0.0,0.0,0.0,0.0,0.0,0.0,0.0,0.0,0.0,0.0,0.0,0.0,0.0,0.0,0.0,0.0,0.0,0.0,0.0,0.0,0.0,0.0,0.0,0.0,0.0,0.0,0.0,0.0,0.0,0.0,0.0,0.0,0.0,0.0,0.0,0.0,0.0,0.0,0.0,0.1759,0.3054,0.7664,0.915,1.1893,1.706,1.8585,1.9861,2.119,2.1898,0.0,0.0,0.0,0.0,0.0,0.0,0.0,0.0,0.0,0.0,0.0,0.0,0.0,0.0,0.0,0.0,0.0,0.0,0.0,0.0,0.0,0.0,0.0,0.0,0.0,0.0,0.0,0.0,0.0,0.0,0.0,0.0,0.0,0.0,0.0,0.0,0.0,0.0,0.0,0.0,0.0,0.0,0.0,0.0,0.0,0.0,0.0,0.0,0.0,0.0,0.0,0.0,0.0,0.0,0.0,0.0,0.0,0.0,0.0,0.0,0.0,0.0,0.0,0.0,0.0,0.0,0.0,0.0,0.0,0.0,0.0,0.0,0.0,0.0,0.0,0.0,0.0,0.0,0.0,0.0,0.0,0.0,0.0,0.0,0.0,0.0,0.0,0.0,0.0,0.0,0.0,0.0,0.0,0.0,0.0,0.0,0.0,0.0,0.0,0.0,0.0,0.0,0.0076,-0.0076,0.2981,0.7199,0.9991,1.0473,1.4722,1.6967,1.6008,1.7866,0.0,0.0,0.0,0.0,0.0,0.0,0.0,0.0,0.0,0.0,0.0,0.0,0.0,0.0,0.0,0.0,0.0,0.0,0.0,0.0,0.0,0.0,0.0,0.0,0.0,0.0,0.0,0.0,0.0,0.0,0.0,0.0,0.0,0.0,0.0,0.0,0.0,0.0,0.0,0.0,0.0,0.0,0.0,0.0,0.0,0.0,0.0,0.0,0.0,0.0,0.0,0.0,0.0,0.0,0.0,0.0,0.0,0.0,0.0,0.0,0.0,0.0,0.0,0.0,0.0,0.0,0.0,0.0,0.0,0.0,0.0,0.0,0.0,0.0,0.0,0.0,0.0,0.0,0.0,0.0,0.0,0.0,0.0,0.0,0.0,0.0,0.0,0.0,0.0,0.0,0.0,0.0,0.0,0.0,0.0,0.0,0.0,0.0,0.0,0.0,0.0,0.0,-0.0688,-0.1219,0.0,0.3505,0.5803,0.5714,1.1083,1.3776,1.2095,0.0,0.0,0.0,0.0,0.0,0.0,0.0,0.0,0.0,0.0,0.0,0.0,0.0,0.0,0.0,0.0,0.0,0.0,0.0,0.0,0.0,0.0,0.0,0.0,0.0,0.0,0.0,0.0,0.0,0.0,0.0,0.0,0.0,0.0,0.0,0.0,0.0,0.0,0.0,0.0,0.0,0.0,0.0,0.0,0.0,0.0,0.0,0.0,0.0,0.0,0.0,0.0,0.0,0.0,0.0,0.0,0.0,0.0,0.0,0.0,0.0,0.0,0.0,0.0,0.0,0.0,0.0,0.0,0.0,0.0,0.0,0.0,0.0,0.0,0.0,0.0,0.0,0.0,0.0,0.0,0.0,0.0,0.0,0.0,0.0,0.0,0.0,0.0,0.0,0.0,0.0,0.0,0.0,0.0,0.0,0.0,0.0,0.0,0.0,0.0,0.0,0.0,-0.214,-0.3042,-0.3638,0.0,-0.0228,0.2097,0.2494,0.7057,0.9689,0.9269,0.0,0.0,0.0,0.0,0.0,0.0,0.0,0.0,0.0,0.0,0.0,0.0,0.0,0.0,0.0,0.0,0.0,0.0,0.0,0.0,0.0,0.0,0.0,0.0,0.0,0.0,0.0,0.0,0.0,0.0,0.0,0.0,0.0,0.0,0.0,0.0,0.0,0.0,0.0,0.0,0.0,0.0,0.0,0.0,0.0,0.0,0.0,0.0,0.0,0.0,0.0,0.0,0.0,0.0,0.0,0.0,0.0,0.0,0.0,0.0,0.0,0.0,0.0,0.0,0.0,0.0,0.0,0.0,0.0,0.0,0.0,0.0,0.0,0.0,0.0,0.0,0.0,0.0,0.0,0.0,0.0,0.0,0.0,0.0,0.0,0.0,0.0,0.0,0.0,0.0,0.0,0.0,0.0,0.0,0.0,0.0,0.0,0.0,0.0,0.0,0.0,0.0,-0.6671,-0.7306,-0.7738,-0.7959,-0.4,-0.0681,0.0819,0.2429,0.4602,0.0,0.0,0.0,0.0,0.0,0.0,0.0,0.0,0.0,0.0,0.0,0.0,0.0,0.0,0.0,0.0,0.0,0.0,0.0,0.0,0.0,0.0,0.0,0.0,0.0,0.0,0.0,0.0,0.0,0.0,0.0,0.0,0.0,0.0,0.0,0.0,0.0,0.0,0.0,0.0,0.0,0.0,0.0,0.0,0.0,0.0,0.0,0.0,0.0,0.0,0.0,0.0,0.0,0.0,0.0,0.0,0.0,0.0,0.0,0.0,0.0,0.0,0.0,0.0,0.0,0.0,0.0,0.0,0.0,0.0,0.0,0.0,0.0,0.0,0.0,0.0,0.0,0.0,0.0,0.0,0.0,0.0,0.0,0.0,0.0,0.0,0.0,0.0,0.0,0.0,0.0,0.0,0.0,0.0,0.0,0.0,0.0,0.0,0.0,0.0,0.0,0.0,0.0,-0.8191,-1.0533,-1.2157,-1.238,-0.9563,-0.8447,-1.0527,-0.6526,-0.3954,-0.3942,0.0,0.0,0.0,0.0,0.0,0.0,0.0,0.0,0.0,0.0,0.0,0.0,0.0,0.0,0.0,0.0,0.0,0.0,0.0,0.0,0.0,0.0,0.0,0.0,0.0,0.0,0.0,0.0,0.0,0.0,0.0,0.0,0.0,0.0,0.0,0.0,0.0,0.0,0.0,0.0,0.0,0.0,0.0,0.0,0.0,0.0,0.0,0.0,0.0,0.0,0.0,0.0,0.0,0.0,0.0,0.0,0.0,0.0,0.0,0.0,0.0,0.0,0.0,0.0,0.0,0.0,0.0,0.0,0.0,0.0,0.0,0.0,0.0,0.0,0.0,0.0,0.0,0.0,0.0,0.0,0.0,0.0,0.0,0.0,0.0,0.0,0.0,0.0,0.0,0.0,0.0,0.0,0.0,0.0,0.0,0.0,0.0,0.0,0.0,0.0,0.0,0.0,-1.0421,-1.3338,-1.5556,-1.5756,-1.3575,-1.296,-1.5085,-1.1941,-0.9831,-0.963,0.0,0.0,0.0,0.0,0.0,0.0,0.0,0.0,0.0,0.0,0.0,0.0,0.0,0.0,0.0,0.0,0.0,0.0,0.0,0.0,0.0,0.0,0.0,0.0,0.0,0.0,0.0,0.0,0.0,0.0,0.0,0.0,0.0,0.0,0.0,0.0,0.0,0.0,0.0,0.0,0.0,0.0,0.0,0.0,0.0,0.0,0.0,0.0,0.0,0.0,0.0,0.0,0.0,0.0,0.0,0.0,0.0,0.0,0.0,0.0,0.0,0.0,0.0,0.0,0.0,0.0,0.0,0.0,0.0,0.0,0.0,0.0,0.0,0.0,0.0,0.0,0.0,0.0,0.0,0.0,0.0,0.0,0.0,0.0,0.0,0.0,0.0,0.0,0.0,0.0,0.0,0.0,0.0,0.0,0.0,0.0,0.0,0.0,0.0,0.0,0.0,0.0,-1.2696,-1.5675,-1.7871,-1.8138,-1.6491,-1.532,-1.5242,-1.5072,-1.3932,-1.1552,0.0,0.0,0.0,0.0,0.0,0.0,0.0,0.0,0.0,0.0,0.0,0.0,0.0,0.0,0.0,0.0,0.0,0.0,0.0,0.0,0.0,0.0,0.0,0.0,0.0,0.0,0.0,0.0,0.0,0.0,0.0,0.0,0.0,0.0,0.0,0.0,0.0,0.0,0.0,0.0,0.0,0.0,0.0,0.0,0.0,0.0,0.0,0.0,0.0,0.0,0.0,0.0,0.0,0.0,0.0,0.0,0.0,0.0,0.0,0.0,-3.3476,0.0,0.0,0.0,0.0,0.0,0.0,0.0,0.0,0.0,0.0,0.0,0.0,0.0,0.0,0.0,0.0,0.0,0.0,0.0,0.0,0.0,0.0,0.0,0.0,0.0,0.0,0.0,0.0,0.0,0.0,0.0,0.0,0.0,0.0,0.0,0.0,0.0,0.0,0.0,0.0,0.0,-1.1815,-1.5901,-1.8665,-1.8432,-1.8982,-1.9367,-1.9367,-1.9836,-1.9044,-1.6594,-1.5674,0.0,0.0,0.0,0.0,0.0,0.0,0.0,0.0,0.0,0.0,0.0,0.0,0.0,0.0,0.0,0.0,0.0,0.0,0.0,0.0,0.0,0.0,0.0,0.0,0.0,0.0,0.0,0.0,0.0,0.0,0.0,0.0,0.0,0.0,0.0,0.0,0.0,0.0,0.0,0.0,0.0,0.0,0.0,0.0,0.0,0.0,0.0,0.0,0.0,0.0,0.0,0.0,0.0,0.0,0.0,0.0,0.0,0.0,0.0,0.0,-3.2983,0.0,0.0,0.0,0.0,0.0,0.0,0.0,0.0,0.0,0.0,0.0,0.0,0.0,0.0,0.0,0.0,0.0,0.0,0.0,0.0,0.0,0.0,0.0,0.0,0.0,0.0,0.0,0.0,0.0,0.0,0.0,0.0,0.0,0.0,0.0,0.0,0.0,0.0,0.0,0.0,-1.3514,-1.7589,-2.0374,-2.0085,-1.9977,-2.0107,-2.0495,-1.9977,-1.9661,-1.9522,-1.8025,0.0,0.0,0.0,0.0,0.0,0.0,0.0,0.0,0.0,0.0,0.0,0.0,0.0,0.0,0.0,0.0,0.0,0.0,0.0,0.0,0.0,0.0,0.0,0.0,0.0,0.0,0.0,0.0,0.0,0.0,0.0,0.0,0.0,0.0,0.0,0.0,0.0,0.0,0.0,0.0,0.0,0.0,0.0,0.0,0.0,0.0,0.0,0.0,0.0,0.0,0.0,0.0,0.0,-3.5763,-3.5299,-3.4688,-3.3751,-3.3646,-3.4115,-3.4227,-3.4083,-3.364,0.0,0.0,0.0,0.0,0.0,0.0,0.0,0.0,0.0,0.0,0.0,0.0,0.0,0.0,0.0,0.0,0.0,0.0,0.0,0.0,0.0,0.0,0.0,0.0,0.0,-2.2173,-2.2981,0.0,0.0,0.0,0.0,0.0,0.0,0.0,0.0,0.0,0.0,0.0,0.0,-1.5796,-1.9374,-2.1704,-2.1377,-2.0302,-1.9901,-2.0495,-1.9054,-1.8967,-2.0962,-1.9068,-1.8187,0.0,0.0,0.0,0.0,0.0,0.0,0.0,0.0,0.0,0.0,0.0,0.0,0.0,0.0,0.0,0.0,0.0,0.0,0.0,0.0,0.0,0.0,0.0,0.0,0.0,0.0,0.0,0.0,0.0,0.0,0.0,0.0,-3.3039,-3.2949,0.0,0.0,0.0,0.0,0.0,0.0,0.0,0.0,0.0,0.0,0.0,0.0,0.0,-3.5475,-3.5525,-3.5859,-3.5802,-3.5345,-3.5261,-3.5091,-3.4675,-3.4184,-3.4034,-3.4117,-3.4127,0.0,-3.2398,-3.1616,0.0,0.0,0.0,0.0,0.0,0.0,0.0,0.0,0.0,0.0,0.0,0.0,0.0,0.0,0.0,0.0,0.0,0.0,0.0,0.0,0.0,0.0,-2.5397,-2.5254,-2.5147,-2.4716,0.0,-2.0813,-1.8551,-1.7493,-1.6798,0.0,0.0,0.0,0.0,0.0,0.0,0.0,-1.6137,-1.934,-2.1123,-2.003,-2.0506,-2.0955,-2.1094,-2.0828,-2.0828,-2.1146,-2.0962,-2.0267,-1.9052,-1.8095,0.0,0.0,0.0,0.0,0.0,0.0,0.0,0.0,0.0,0.0,0.0,0.0,0.0,0.0,0.0,0.0,0.0,0.0,0.0,0.0,0.0,0.0,0.0,0.0,0.0,0.0,0.0,0.0,0.0,-3.2226,-3.2895,-3.2986,-3.3507,-3.3949,0.0,0.0,0.0,0.0,0.0,0.0,0.0,0.0,0.0,-3.493,-3.4913,-3.5008,-3.5224,-3.5362,-3.5362,-3.5224,-3.5008,-3.4771,-3.4448,-3.405,-3.3626,-3.3245,-3.3245,-3.281,-3.2023,-3.144,-3.0249,-2.86,0.0,0.0,0.0,0.0,-2.3733,-2.3142,-2.466,-2.4803,0.0,0.0,0.0,0.0,0.0,0.0,0.0,0.0,0.0,0.0,0.0,0.0,0.0,-2.4241,-2.4186,-2.3821,-2.297,-2.1738,-2.0503,0.0,-1.871,-1.7177,-1.4144,0.0,0.0,0.0,0.0,-1.6509,-1.6902,-1.9078,-2.0201,-1.9342,-1.9389,-1.9704,-2.0096,-1.9835,-2.0161,-2.1273,-2.1302,-2.1141,-2.0749,-1.9284,-1.7628,0.0,0.0,0.0,0.0,0.0,0.0,0.0,0.0,0.0,0.0,0.0,0.0,0.0,0.0,0.0,0.0,0.0,0.0,0.0,0.0,0.0,0.0,0.0,0.0,0.0,0.0,0.0,0.0,-3.1962,-3.2788,-3.3161,-3.3523,-3.3797,0.0,0.0,0.0,0.0,0.0,0.0,-3.4691,-3.4787,-3.4835,-3.4835,-3.4835,-3.4961,-3.5224,-3.5115,-3.5068,-3.4944,-3.461,-3.4333,-3.405,-3.3745,-3.3208,-3.2586,-3.2586,-3.2241,-3.1649,-3.1245,-3.066,-2.9893,-2.8115,-2.6938,-2.6164,-2.5402,-2.4755,-2.439,-2.5387,-2.5586,-2.5382,-2.5407,0.0,-2.3583,-2.1657,0.0,0.0,0.0,0.0,-2.0358,-2.1523,-2.1958,-2.2243,-2.2933,-2.2939,-2.2679,-2.2129,-2.1671,-2.1252,0.0,-2.0291,-1.8804,-1.5651,0.0,0.0,0.0,0.0,-1.7502,-1.7898,-1.9001,-1.9606,-1.9263,-1.8907,-1.8844,-1.9431,-1.9166,-1.9562,-2.1008,-2.1101,-2.129,-2.1714,-2.0362,-1.9131,-1.8091,0.0,0.0,0.0,0.0,0.0,0.0,0.0,0.0,0.0,0.0,0.0,0.0,0.0,0.0,0.0,0.0,0.0,0.0,0.0,0.0,0.0,0.0,0.0,0.0,0.0,0.0,0.0,0.0,0.0,-3.324,-3.3539,0.0,0.0,0.0,0.0,-3.3745,-3.4,-3.4349,-3.4691,-3.4707,-3.4818,-3.5178,-3.5178,-3.5178,-3.5224,-3.4941,-3.4673,-3.4349,-3.4002,-3.3662,-3.3361,-3.3361,-3.3065,-3.2586,-3.2586,-3.2018,-3.1028,-3.1028,-3.0526,-2.9662,-2.8953,-2.7285,-2.5426,-2.6841,-2.6258,-2.5039,-2.6599,-2.6973,-2.6815,-2.6766,-2.5145,-2.2917,-2.2107,-2.0575,0.0,0.0,-2.1001,-2.146,-2.3199,-2.3319,-2.2972,-2.3145,-2.2766,-2.2334,-2.1915,-2.0546,-1.994,0.0,-2.1704,-2.0761,-1.8664,0.0,-1.8567,-1.6413,-1.7429,-1.8574,-1.9079,-1.9453,-1.9758,-1.9948,-1.9892,-1.9857,-2.0042,-2.0031,-2.0031,-2.0161,-2.0431,-2.0635,-2.07,-2.0955,-2.0666,-1.9716,-1.9013,0.0,0.0,0.0,0.0,0.0,0.0,0.0,0.0,0.0,0.0,0.0,0.0,0.0,0.0,0.0,0.0,0.0,0.0,0.0,0.0,0.0,0.0,0.0,0.0,0.0,0.0,0.0,0.0,-3.2672,-3.2973,0.0,-3.3658,-3.3832,-3.3968,-3.4101,-3.435,-3.4496,-3.4448,-3.4594,-3.4643,-3.4529,-3.448,-3.448,-3.448,-3.4415,-3.4267,-3.4151,-3.3882,-3.3403,-3.2834,-3.2656,-3.2018,-3.1116,-3.1116,-3.0703,-3.0115,-3.0115,-2.9979,-2.9718,-2.9449,-2.8789,-2.7959,-2.7511,-2.6896,-2.6339,-2.5849,-2.5548,-2.5313,-2.5195,-2.4383,-2.3374,-2.3066,-2.2345,-2.1723,-2.2155,-2.2157,-2.206,-2.2537,-2.2331,-2.2022,-2.1915,-2.1797,-2.1486,-2.0964,-2.0401,-2.0134,-2.0819,-1.9891,-1.8628,-1.7268,-1.7802,-1.7738,-1.5951,-1.6683,-1.7616,-1.8355,-1.8087,-1.8073,-1.8682,-1.8607,-1.8586,-1.8731,-1.9243,-1.9639,-1.9791,-2.0107,-2.0302,-2.0302,-1.9977,-1.9781,-1.9649,-1.9253,-1.8287,0.0,0.0,0.0,0.0,0.0,0.0,0.0,0.0,0.0,0.0,0.0,0.0,0.0,0.0,0.0,0.0,0.0,0.0,0.0,0.0,0.0,0.0,0.0,0.0,0.0,0.0,-3.1966,-3.2523,-3.2773,-3.3058,-3.3414,-3.3575,-3.3678,-3.3797,-3.4102,-3.4251,-3.4101,-3.425,-3.425,-3.3949,-3.3949,-3.3899,-3.3848,-3.3745,-3.371,-3.3694,-3.3366,-3.2996,-3.2547,-3.2145,-3.1465,-3.0553,-3.0372,-3.0021,-2.9602,-2.9477,-2.9463,-2.9574,-2.9477,-2.9149,-2.861,-2.7458,-2.6854,-2.6377,-2.504,-2.4418,-2.42,-2.4043,-2.3751,-2.3372,-2.3372,-2.318,-2.2977,-2.2744,-2.2467,-2.2216,-2.1886,-2.1584,-2.1272,-2.0896,-2.0751,-2.0547,-1.9907,-1.945,-1.9195,-1.9156,-1.8602,-1.7894,-1.7147,-1.7577,-1.7432,-1.565,-1.6147,-1.6878,-1.7513,-1.6801,-1.6657,-1.7692,-1.742,-1.7217,-1.7442,-1.8094,-1.8489,-1.8509,-1.9166,-1.9497,-1.9486,-1.9177,-1.9198,-1.9462,-1.871,-1.7599,-1.621,0.0,0.0,0.0,0.0,0.0,0.0,0.0,0.0,0.0,0.0,0.0,0.0,0.0,0.0,0.0,0.0,0.0,0.0,0.0,0.0,0.0,0.0,0.0,-3.1682,-3.1868,-3.2221,-3.2788,-3.2897,-3.2897,-3.2897,-3.3096,-3.315,-3.2897,-3.315,-3.3398,-3.3658,-3.371,-3.371,-3.371,-3.371,-3.3555,-3.3309,-3.3058,-3.2897,-3.2912,-3.2578,-3.2398,-3.2342,-3.1894,-3.1379,-3.0911,-3.0433,-3.0021,-2.954,-2.9226,-2.9035,-2.9022,-2.9035,-2.8235,-2.696,-2.6744,-2.6057,-2.517,-2.4478,-2.397,-2.3593,-2.3604,-2.3298,-2.3001,-2.3001,-2.3001,-2.2841,-2.222,-2.2059,-2.1918,-2.1349,-2.1188,-2.0909,-2.0113,-1.9839,-1.9641,-1.8726,-1.7721,-1.7033,-1.7028,-1.8019,-1.8735,-1.8292,-1.8364,-1.7802,-1.5665,-1.6064,0.0,-1.6683,-1.5771,-1.565,-1.6899,-1.6381,-1.6079,-1.6228,-1.6655,-1.6724,-1.6306,-1.7609,-1.8355,-1.8133,-1.8623,-1.9044,-1.9166,-1.7453,-1.5658,-1.3833,0.0,0.0,0.0,0.0,0.0,0.0,0.0,0.0,0.0,0.0,0.0,0.0,0.0,0.0,0.0,0.0,0.0,0.0,0.0,0.0,0.0,0.0,-3.1452,-3.1682,-3.1966,-3.2247,-3.2523,-3.2523,-3.2648,-3.2897,-3.2757,-3.2687,-3.2897,-3.2951,-3.3058,-3.3112,-3.3293,-3.3398,-3.3398,-3.3398,-3.3346,-3.3309,-3.3203,-3.3203,-3.3203,-3.2492,-3.2018,-3.1664,-3.0999,-3.0433,-2.996,-2.9588,-2.9149,-2.8688,-2.8716,-2.7947,-2.6773,-2.7723,-2.7881,-2.7338,-2.6227,-2.5276,-2.4478,-2.4371,-2.4009,-2.3519,-2.3224,-2.2927,-2.2553,-2.2553,-2.2252,-2.1873,-2.1721,-2.1568,-2.1349,-2.1061,-2.0528,-1.9929,-1.9528,-1.8903,-1.8303,-1.8169,-1.7655,-1.7294,-1.7466,-1.7106,-1.6675,-1.6049,-1.5876,-1.5545,-1.4992,-1.5068,0.0,-1.5875,-1.5395,-1.5333,-1.6095,-1.5715,-1.5508,-1.5852,-1.5992,-1.614,-1.6298,-1.6645,-1.6853,-1.6844,-1.6991,-1.706,-1.712,-1.6489,-1.5438,0.0,0.0,0.0,0.0,0.0,0.0,0.0,0.0,0.0,0.0,0.0,0.0,0.0,0.0,0.0,0.0,0.0,0.0,0.0,0.0,0.0,0.0,-3.0495,-3.1146,-3.1364,-3.1838,-3.2247,-3.2398,-3.2398,-3.2453,-3.2648,-3.2523,-3.2453,-3.2648,-3.2703,-3.2773,-3.2897,-3.3058,-3.315,-3.315,-3.315,-3.2973,-3.2633,-3.2633,-3.2508,-3.2327,-3.1864,-3.1522,-3.1218,-3.0404,-2.9946,0.0,-2.9099,-2.8552,-2.8052,-2.7809,-2.6922,0.0,0.0,0.0,0.0,0.0,-2.4576,-2.397,-2.3863,-2.3497,-2.3075,-2.2852,-2.2402,-2.2025,-2.2025,-2.1731,-2.1359,-2.1282,-2.1128,-2.1061,-2.0819,-2.042,-1.9872,-1.9338,-1.842,-1.7639,-1.7309,-1.6716,-1.6223,-1.6381,-1.5831,0.0,-1.4908,-1.4741,-1.4734,-1.4734,-1.465,-1.4705,-1.5036,-1.4633,-1.4458,-1.4785,-1.4444,-1.4314,-1.4514,-1.4665,0.0,0.0,0.0,-1.5745,-1.5824,-1.5807,0.0,0.0,0.0,-1.4609,-1.3818,0.0,0.0,0.0,-1.1855,-1.1111,0.0,0.0,0.0,0.0,0.0,0.0,0.0,0.0,0.0,0.0,0.0,0.0,0.0,0.0,0.0,0.0,-3.0389,-3.0703,-3.0925,-3.1595,-3.2064,-3.2216,-3.2327,-3.2398,-3.2398,-3.2398,-3.2398,-3.2398,-3.2398,-3.2523,-3.2843,0.0,0.0,0.0,0.0,-3.2428,-3.1739,-3.1682,-3.1437,-3.1029,-3.0911,-3.0837,-3.0837,-2.9983,-2.9572,-2.9524,-2.8716,-2.8008,-2.7368,-2.6671,-2.5987,-2.5574,-2.7,-2.6468,-2.4933,-2.4482,-2.3952,-2.3446,-2.3139,0.0,0.0,-2.2327,-2.1959,-2.1502,-2.1512,-2.1359,-2.1138,-2.0984,-2.0906,-2.0819,-2.0644,-2.0489,-2.0157,-1.9204,-1.823,-1.7261,-1.6296,-1.5311,-1.4657,-1.465,-1.4482,-1.4314,-1.4314,-1.4482,-1.4573,-1.4573,-1.4371,-1.4241,-1.4191,-1.3718,-1.3416,-1.3265,0.0,0.0,-1.282,-1.32,-1.3273,-1.29,-1.4042,-1.476,-1.4911,-1.4966,-1.4601,-1.3985,-1.363,-1.3419,-1.3419,-1.3273,-1.3119,-1.2973,-1.1254,-1.0363,0.0,0.0,0.0,0.0,0.0,0.0,0.0,0.0,0.0,0.0,0.0,0.0,0.0,0.0,0.0,-2.8128,-2.9038,-3.0011,-3.0763,-3.0955,-3.1116,-3.1261,-3.1823,-3.2247,-3.2247,-3.2342,-3.2398,-3.2398,-3.2398,-3.2453,-3.2523,-3.2523,-3.2523,-3.2523,-3.2135,-3.1853,-3.1682,-3.1321,-3.1087,-3.097,0.0,0.0,-2.9979,-2.8671,-2.814,-2.805,-2.7153,-2.6436,-2.5892,-2.5525,-2.5076,-2.4626,-2.4141,-2.3732,-2.3285,-2.3393,-2.3295,-2.315,-2.318,-2.282,-2.2327,-2.1807,-2.1589,-2.1512,-2.1282,-2.1128,0.0,-2.0906,-2.0819,-2.0576,-2.042,-1.9854,-1.9204,-1.8816,-1.735,-1.6057,-1.6139,-1.5068,-1.4243,-1.4398,-1.4146,-1.3815,-1.3815,-1.3899,-1.3899,-1.3899,-1.3708,-1.3451,-1.3167,-1.3019,-1.2795,-1.2344,-1.2338,-1.2452,-1.2452,-1.2673,-1.2826,-1.29,-1.3112,-1.3331,-1.3331,-1.3324,-1.3251,-1.3112,-1.3046,-1.3046,-1.3046,-1.2973,-1.2599,-1.2003,-1.1768,-1.1316,0.0,0.0,0.0,0.0,0.0,0.0,0.0,0.0,0.0,0.0,0.0,-2.4534,0.0,0.0,-2.7258,-2.792,-2.857,-2.9156,-2.9594,-2.9964,-3.051,-3.1364,-3.1537,-3.1709,-3.2094,-3.1522,-3.1319,-3.1679,-3.1377,-3.1388,-3.1762,-3.1784,-3.1824,-3.1777,-3.1709,-3.1379,-3.0777,-3.0658,-3.0433,-3.0068,-2.9637,-2.9324,-2.9184,-2.7999,-2.7476,-2.7386,-2.6436,-2.5566,-2.477,-2.3677,-2.2855,-2.2208,-2.1563,-2.1947,-2.2821,-2.2321,-2.2051,-2.198,-2.1886,-2.1606,-2.1272,-2.0987,-2.068,-2.0571,-2.0641,-2.0549,-2.0456,-2.0527,-2.0177,-1.9766,-1.9529,-1.8798,-1.8069,-1.7908,-1.6772,-1.5636,-1.5545,-1.465,-1.3906,-1.3899,-1.373,-1.3522,-1.3381,-1.3272,-1.3188,-1.3355,-1.3239,-1.2994,-1.2576,-1.2544,-1.2335,-1.1887,-1.1929,-1.2003,-1.2003,-1.215,-1.2378,-1.2599,-1.2673,-1.282,-1.29,-1.282,-1.282,-1.29,-1.2305,-1.2077,-1.2305,-1.1768,-1.1316,-1.0944,-1.064,-1.0271,0.0,0.0,0.0,0.0,0.0,0.0,0.0,0.0,-2.0573,-2.1781,-2.2954,-2.4124,-2.5227,-2.605,-2.6824,-2.7894,-2.8157,-2.8287,-2.8417,-2.8967,-2.9889,-3.1364,-3.1043,-3.0984,-3.1495,-3.0513,-3.0067,-3.0602,-3.0116,-3.0085,-3.0777,-3.1056,-3.1112,-3.0954,-3.126,-3.0881,-2.97,-2.9879,-2.9676,-2.9002,-2.8843,-2.8611,-2.8278,-2.726,-2.6764,-2.6738,-2.5657,-2.463,-2.3542,-2.1918,-2.0805,-2.0042,-1.9736,-2.072,-2.215,-2.1086,-2.0773,-2.0776,-2.042,-2.0216,-2.0165,-2.0093,-1.9867,-1.9637,-1.99,-1.9775,-1.9562,-1.9755,-1.921,-1.8399,-1.8162,-1.7607,-1.7047,-1.6798,-1.6071,-1.5264,-1.486,-1.4137,-1.3407,-1.3316,-1.3233,-1.3079,-1.2858,-1.2656,-1.2574,-1.282,-1.2776,-1.258,-1.2215,-1.1947,-1.1822,-1.1658,-1.1403,-1.1329,-1.1477,-1.1477,-1.17,-1.215,-1.2224,-1.2298,-1.2452,-1.2305,-1.2298,-1.2298,-1.1329,-1.1031,-1.1329,-1.0571,-1.0045,-0.9895,-0.9226,-0.8927,-1.087,-1.3004,-1.495,-1.6009,-1.706,-1.8046,0.0,0.0,-2.0921,-2.2327,-2.383,-2.5099,-2.5722,-2.6426,-2.7011,-2.7146,-2.7335,-2.7656,-2.8222,-2.8468,-2.8903,-2.969,-2.9875,-2.995,-3.0072,-2.9543,-2.9199,-2.9317,-2.9256,-2.9224,-2.9333,-3.041,-3.0743,-3.0133,-3.0338,-3.0105,-2.9358,-2.8951,-2.8782,-2.8657,-2.7808,-2.7355,-2.7328,-2.5884,-2.5219,-2.5179,-2.3758,-2.2616,-2.1647,-2.1198,-2.0602,-2.0042,-1.9736,-1.9658,-1.9709,-1.9675,-1.9959,-2.0237,-2.0001,-1.9919,-1.9919,-1.9713,-1.964,-1.9578,-1.9409,-1.8822,-1.8164,-1.8126,-1.7432,-1.6657,-1.6436,-1.6292,-1.6138,-1.5761,-1.4993,-1.4295,-1.4059,-1.336,-1.2747,-1.2667,-1.2586,-1.2333,-1.2141,-1.1894,-1.1888,-1.2296,-1.2085,-1.1911,-1.1849,-1.1147,-1.0905,-1.1409,-1.0276,-0.9825,-1.0565,-0.997,-1.0201,-1.1706,-1.1093,-1.0795,-1.1037,-1.1037,-1.0732,-1.0271,-1.0121,-1.0045,-1.0121,-0.9965,-0.9593,-0.8851,-0.8775,-0.8699,-1.1957,-1.3578,-1.4807,-1.6455,-1.7235,-1.7725,-1.8395,-1.8854,-1.955,-2.116,-2.2268,-2.34,-2.485,-2.5757,-2.6358,0.0,-2.7011,-2.7214,-2.7523,-2.7302,-2.7274,-2.7584,-2.7314,-2.7721,-2.9031,-2.7939,-2.7338,-2.7732,-2.7395,-2.7525,-2.8369,-2.89,-2.9246,-2.9305,-2.9577,-2.9379,-2.8598,-2.8625,-2.8311,-2.7799,-2.7422,-2.6912,-2.636,-2.5424,-2.4512,-2.3669,-2.2309,-2.1342,-2.073,-2.0291,-1.9846,-1.932,-1.9208,-1.9008,-1.8885,-1.9022,-1.9148,-1.9172,-1.9093,-1.9013,-1.8954,-1.8884,-1.8665,-1.8504,-1.8705,-1.8115,-1.7405,-1.7489,-1.6548,-1.5404,-1.5104,-1.4647,-1.4187,-1.3881,-1.3495,-1.3186,-1.3028,-1.2638,-1.2332,-1.2086,-1.1926,-1.1798,-1.1412,-1.1303,-1.1015,-1.0617,-1.0551,-1.0523,-1.0379,-0.9727,-0.9437,-0.9755,-0.9301,-0.9074,-0.9448,-0.9226,-0.9448,-1.0051,-0.99,-0.982,-0.9906,-0.9906,-0.9825,-0.9523,-0.9064,-0.8912,-0.9059,-0.8456,-0.8008,-0.7791,-0.7706,-0.7629,-1.2691,-1.3875,-1.4736,-1.6533,-1.7107,-1.7401,-1.7803,-1.8008,-1.8519,-1.9814,-2.0709,-2.1841,-2.3591,-2.4575,-2.5257,-2.6005,-2.627,-2.6404,-2.6483,-2.6191,-2.5935,-2.5935,-2.5422,-2.5707,-2.7352,-2.6294,-2.5748,-2.6257,-2.5824,-2.6081,-2.7289,-2.7659,-2.8036,-2.8415,-2.8828,-2.8692,-2.792,-2.8066,-2.7734,-2.7026,-2.672,-2.6153,-2.5458,-2.4693,-2.3599,-2.2212,-2.1152,-2.0526,-2.0096,-1.9594,-1.9142,-1.8808,-1.8741,-1.8617,-1.8482,-1.8607,-1.8539,-1.8414,-1.8414,-1.8279,-1.8202,-1.8134,-1.792,-1.7695,-1.782,-1.7179,-1.6425,-1.626,-1.5122,-1.3921,-1.3621,-1.3017,-1.2486,-1.233,-1.2258,-1.2173,-1.1944,-1.1866,-1.1781,-1.1388,-1.1309,-1.1167,-1.0761,-1.0495,-1.0116,-0.9251,-0.8889,-0.8773,-0.8937,-0.8613,-0.8232,-0.7859,-0.8089,-0.8318,-0.8318,-0.8241,-0.847,-0.8922,-0.8846,-0.8846,-0.8917,-0.8917,-0.8841,-0.8613,-0.808,-0.7851,-0.8003,-0.7246,-0.6942,-0.7103,-0.6942,-0.6865,-1.1855,-1.3157,-1.4522,-1.5313,-1.6254,-1.7047,-1.7401,-1.7988,-1.8566,-1.8834,-1.998,-2.1186,-2.2101,-2.2862,-2.364,-2.4546,-2.4793,-2.4962,-2.5103,-2.5282,-2.532,-2.532,-2.4833,-2.4548,0.0,-2.4671,-2.484,-2.5048,-2.5025,-2.528,-2.5813,-2.7027,-2.7642,-2.7551,-2.8172,-2.8205,-2.7523,-2.7035,-2.6706,-2.6681,-2.5376,-2.4741,-2.4668,-2.3324,-2.2051,-2.091,-2.0526,-2.002,-1.9605,-1.9008,-1.8808,-1.8808,-1.8617,-1.8414,-1.8337,-1.8337,-1.8337,-1.8269,-1.8076,-1.8008,-1.8008,-1.7784,-1.7706,-1.7501,-1.6673,-1.5692,-1.4776,-1.3768,-1.2826,-1.2029,-1.1806,-1.1732,-1.1658,-1.1509,-1.1434,-1.136,-1.0911,-1.0836,-1.0761,-1.0536,-1.0536,-1.046,-1.0229,-0.9544,-0.9008,-0.878,-0.7322,-0.6784,-0.8003,-0.8156,-0.7472,-0.5867,-0.663,-0.7242,-0.7242,-0.6714,-0.7026,-0.8623,-0.8016,-0.7633,-0.7859,-0.7859,-0.7553,-0.7015,-0.6942,-0.6938,-0.6942,-0.6942,-0.6942,-0.6942,-0.6942,-0.6865,-1.1242,-1.2698,-1.4227,-1.4942,-1.5816,-1.6551,-1.6821,-1.7166,-1.7638,-1.8277,-1.9104,-2.0044,-2.1325,-2.2219,-2.3003,-2.3819,-2.422,-2.4484,-2.4549,-2.4354,-2.4243,-2.4243,-2.3815,0.0,0.0,0.0,0.0,-2.409,-2.4178,-2.4464,-2.4912,-2.5788,-2.6361,-2.6655,-2.7208,-2.7208,-2.6614,-2.647,-2.5987,-2.5249,-2.4382,-2.3739,-2.3267,-2.2242,-2.1305,-2.0462,-1.9639,-1.9198,-1.9008,-1.8741,-1.8549,-1.8472,-1.8405,-1.8269,-1.8076,-1.792,-1.792,-1.792,-1.7852,-1.7784,-1.7784,-1.7598,-1.7451,-1.7226,-1.6385,-1.5313,-1.4314,-1.352,-1.2579,-1.1781,-1.1558,-1.1484,-1.1409,-1.1111,-1.1037,-1.0962,-1.0663,-1.0594,-1.0519,-1.0368,-1.0293,-1.0067,-0.9306,-0.9003,-0.8389,-0.7238,-0.6549,-0.624,-0.624,-0.624,-0.6093,-0.5637,-0.5944,-0.6173,-0.6173,-0.5944,-0.6099,-0.6784,-0.6556,-0.656,-0.6795,-0.6795,-0.6637,-0.6247,-0.6247,-0.6328,-0.6486,-0.6177,-0.6251,-0.6714,-0.5854,-0.5541,-1.0938,-1.2478,-1.4091,-1.4506,-1.5321,-1.6061,-1.6254,-1.6542,-1.6899,-1.7619,-1.8036,-1.8775,-2.0167,-2.1022,-2.1812,-2.2672,-2.3147,-2.3513,-2.3591,-2.3353,-2.3264,-2.3343,-2.3181,-2.309,0.0,0.0,0.0,-2.3569,-2.3721,-2.4008,-2.4458,-2.5071,-2.5599,-2.59,-2.6409,-2.6422,-2.5845,-2.5714,-2.5075,-2.4079,-2.3454,-2.2761,-2.1945,-2.1183,-2.0435,-1.9617,-1.8998,-1.8674,-1.8674,-1.8482,-1.8405,-1.8269,-1.8134,-1.7998,-1.7862,-1.7725,-1.7647,-1.7647,-1.7647,-1.7647,-1.7588,-1.7451,-1.7107,-1.6603,-1.5675,-1.4673,-1.373,-1.2792,-1.207,-1.1558,-1.1335,-1.126,-1.1111,-1.0887,-1.0738,-1.0663,-1.0443,-1.0368,-1.0293,-1.0143,-1.0067,-0.976,-0.877,-0.8008,-0.7161,-0.5777,-0.5544,-0.547,-0.5243,-0.5168,-0.5246,-0.5404,-0.5479,-0.5479,-0.5479,-0.5559,-0.5637,-0.5789,-0.5789,-0.5709,-0.5628,-0.5628,-0.5392,-0.4919,-0.4919,-0.4999,-0.5157,-0.4846,-0.4924,-0.5306,-0.4528,-0.4219,-1.0714,-1.2271,-1.397,-1.3939,-1.4681,-1.5497,-1.5692,-1.6053,-1.6342,-1.6769,-1.6857,-1.7316,-1.8725,-1.9401,-2.0126,-2.1101,-2.1677,-2.2097,-2.2227,-2.2292,-2.2384,0.0,0.0,0.0,0.0,0.0,0.0,-2.3509,0.0,-2.3857,-2.44,-2.4932,-2.5236,-2.522,-2.5841,-2.5816,-2.524,-2.4646,-2.4,-2.3346,-2.2637,-2.1777,-2.0743,-2.0079,-1.9333,-1.8509,-1.8472,-1.8482,-1.8482,-1.8337,-1.8269,-1.8202,-1.7852,-1.7706,-1.7647,-1.7529,-1.747,-1.747,-1.747,-1.747,-1.7461,-1.7166,-1.6603,-1.5754,-1.4593,-1.3738,-1.2945,-1.17,-1.1409,-1.1335,-1.1111,-1.0962,-1.0812,-1.0738,-1.0588,-1.0438,-1.0218,-1.0143,-1.0143,-0.9916,-0.9765,-0.9382,-0.8456,-0.6773,-0.5312,-0.4538,-0.4384,-0.4543,-0.4937,-0.5018,-0.4937,-0.4937,-0.509,-0.5162,-0.5162,-0.5321,-0.5401,-0.5482,-0.5482,-0.5085,-0.4373,-0.4373,-0.3904,-0.3124,-0.3124,-0.3124,-0.3124,-0.3046,-0.3046,-0.3124,-0.3046,-0.3124,-0.9301,-1.0708,-1.2418,-1.2631,-1.344,-1.4402,-1.5196,-1.5568,-1.585,-1.6202,-1.6643,-1.7081,-1.762,-1.8785,-1.9808,-2.0176,-2.1183,0.0,-2.1989,-2.2241,0.0,-2.2445,0.0,-2.2739,-2.2739,-2.28,0.0,0.0,-2.3283,-2.3463,-2.3475,-2.4123,-2.4455,-2.4321,-2.4858,-2.4871,-2.4317,-2.3144,-2.2455,-2.2261,-2.1464,-2.0618,-1.9901,-1.9719,-1.9215,-1.8502,-1.8414,-1.8337,-1.8337,-1.8144,-1.7998,-1.7842,-1.7706,-1.7647,-1.7529,-1.7314,-1.7314,-1.7245,-1.6959,-1.7028,-1.7097,-1.6245,-1.5816,-1.5313,-1.373,-1.3004,-1.2572,-1.1626,-1.126,-1.1111,-1.0962,-1.0812,-1.0738,-1.0443,-1.0293,-1.0218,-0.9992,-0.9992,-0.9765,-0.916,-0.7846,-0.6769,-0.6388,-0.5386,-0.4616,-0.446,-0.4384,-0.4462,-0.4543,-0.4701,-0.4465,-0.368,-0.3752,-0.3673,-0.3047,-0.3049,-0.3207,-0.3521,-0.3521,-0.3519,-0.3435,-0.3435,-0.3281,-0.2893,-0.2893,-0.2893,-0.2893,-0.2737,-0.2813,-0.3046,-0.2347,-0.2115,-0.915,-1.072,-1.2358,-1.2432,-1.3164,-1.4042,-1.4553,-1.4919,-1.5213,-1.5709,-1.6093,-1.6427,-1.6964,-1.8298,-1.9394,0.0,0.0,0.0,-2.162,-2.1865,-2.2036,0.0,-2.2432,0.0,-2.2555,-2.2678,-2.269,0.0,-2.2982,-2.3138,-2.304,-2.365,-2.3826,-2.3547,-2.4002,-2.3803,-2.2955,-2.2152,-2.1592,-2.1302,-2.0531,-1.989,-1.9448,-1.9141,-1.873,-1.8299,0.0,-1.8056,-1.7988,-1.7872,-1.7735,-1.7588,-1.751,-1.7442,-1.7314,-1.7028,-1.6959,-1.6821,-1.6184,-1.6114,-1.6254,-1.5613,-1.4895,-1.4163,-1.3077,-1.2425,-1.199,-1.1403,-1.1111,-1.0962,-1.0812,-1.0663,-1.0519,-1.0218,-1.0143,-0.9916,-0.9463,-0.9387,-0.9079,-0.8237,-0.6769,-0.5616,-0.5464,-0.4693,-0.4151,-0.4151,-0.3839,-0.3604,-0.3604,-0.4151,-0.407,-0.2738,-0.2973,-0.2971,-0.2111,-0.2111,-0.2268,-0.2504,-0.2582,-0.2582,-0.2345,-0.2345,-0.2112,-0.1567,-0.1567,-0.1567,-0.1567,-0.1488,-0.1488,-0.1721,-0.1176,-0.102,-0.9669,-1.1168,-1.282,-1.2452,-1.3178,-1.3912,-1.4057,-1.4346,-1.4713,-1.5355,-1.5426,-1.574,-1.6633,-1.7839,-1.8798,-1.8965,0.0,-2.1008,-2.1152,-2.134,-2.1564,-2.1847,-2.2173,-2.2359,-2.2359,-2.2555,-2.2616,-2.2494,-2.2616,-2.2714,-2.2701,-2.309,-2.3078,-2.2627,-2.3033,-2.2653,-2.1463,-2.1353,-2.0985,-2.0443,-1.9698,-1.9301,-1.9036,-1.8486,-1.8125,-1.794,0.0,0.0,-1.7647,-1.7529,-1.747,-1.7401,-1.7245,-1.7097,-1.7028,-1.6682,-1.6542,-1.6394,-1.548,-1.5054,-1.4982,-1.4911,-1.3962,-1.2792,-1.2498,-1.1916,-1.126,-1.1111,-1.0887,-1.0738,-1.0738,-1.0438,-1.0218,-1.0143,-0.9916,-0.9539,-0.8851,-0.847,-0.8008,-0.7084,-0.6002,-0.5154,-0.5074,-0.4382,-0.3763,-0.3606,-0.2979,-0.2431,-0.2196,-0.329,-0.3443,-0.1799,-0.2268,-0.2426,-0.1564,-0.1721,-0.18,-0.18,-0.1956,-0.1801,-0.1097,-0.1019,-0.0706,0.0,0.0079,0.0,0.0,0.0,0.0,0.0,0.0,-0.0079,-0.9301,-1.0276,-1.126,-1.1335,-1.215,-1.3112,-1.3912,-1.4129,-1.4418,-1.5133,-1.5275,-1.5434,-1.6148,-1.6917,-1.7529,-1.7898,-1.8785,-1.9669,-2.0423,-2.0801,-2.1227,0.0,-2.2123,-2.2247,-2.2247,-2.2247,0.0,0.0,0.0,-2.1694,-2.1839,-2.1365,-2.1126,-2.0997,-2.1617,-2.1564,-2.0754,-2.0085,-1.9624,-1.9499,-1.8662,-1.8193,-1.794,-1.7842,-1.7705,-1.7608,-1.7529,0.0,-1.7529,-1.7539,-1.7332,-1.6978,-1.6978,-1.676,-1.6482,-1.6412,-1.6342,-1.6193,-1.5267,-1.4537,-1.389,-1.3222,-1.2858,-1.2498,-1.162,-1.1186,-1.0887,-1.0887,-1.0738,-1.0519,-1.0368,-1.0218,-1.0143,-0.9992,-0.9387,-0.8851,-0.8537,-0.7234,-0.6005,-0.5693,-0.4927,-0.4231,-0.4073,-0.3919,-0.3528,-0.2823,-0.2588,-0.2038,-0.0627,-0.1409,-0.1644,-0.047,-0.0626,-0.047,0.0314,0.0392,0.0314,0.0157,0.0078,0.0157,0.0235,0.0235,0.0236,0.0236,0.0236,0.0157,0.0,0.0,0.0,0.0,0.0,0.0,-1.0276,-1.1031,-1.1781,-1.215,-1.2526,-1.3046,-1.363,-1.3775,-1.3992,-1.4713,-1.4919,-1.5133,-1.5788,-1.6612,-1.7148,-1.7354,-1.822,-1.9079,-1.9497,-1.989,-2.0215,-2.0484,-2.0794,-2.0921,0.0,-2.0858,-2.0782,0.0,0.0,-2.0183,-2.0888,-2.0635,-2.0384,-2.0314,-2.0532,-2.0361,-1.9683,-1.9127,-1.8743,-1.8379,-1.793,-1.7657,-1.7569,-1.7627,-1.7577,-1.7489,-1.7263,0.0,-1.7185,-1.6978,-1.6769,-1.656,-1.656,-1.6491,-1.6272,-1.5771,-1.5551,-1.5401,-1.4034,-1.3317,-1.2806,-1.1916,-1.1687,-1.1545,-1.1105,-1.0812,-1.0663,-1.0663,-1.0513,-1.0293,-1.0218,-0.9836,-0.9387,-0.9311,-0.8232,-0.7157,-0.7,-0.5851,-0.4774,-0.4696,-0.4307,-0.3765,-0.3215,-0.3136,-0.2823,-0.2038,-0.1489,-0.0862,0.0078,0.0078,0.0235,0.0628,0.0157,0.0235,0.1021,0.0943,0.0864,0.0786,0.0629,0.0628,0.0628,0.0628,0.055,0.0471,0.0471,0.0393,0.0157,0.0157,0.0079,0.0,0.0,0.0,-1.126,-1.1929,-1.2599,-1.2746,-1.2973,-1.3193,-1.3419,-1.3419,-1.3637,-1.4353,-1.4569,-1.4784,-1.5505,-1.6333,-1.6811,0.0,-1.7619,-1.8297,-1.8499,-1.8834,-1.91,0.0,-1.9552,0.0,-1.953,-1.9661,0.0,0.0,0.0,0.0,-1.9677,-1.9828,-1.9786,-1.9528,-1.9505,-1.9229,-1.8508,-1.839,-1.8027,-1.7499,-1.7499,-1.743,-1.7361,-1.7439,-1.737,-1.7232,-1.6987,0.0,0.0,-1.6412,-1.6272,-1.6272,-1.6061,-1.5982,-1.5842,-1.4903,-1.4617,-1.4394,-1.2806,-1.2224,-1.2077,-1.1037,-1.0738,-1.0812,-1.0738,-1.0594,-1.0443,-1.0443,-1.0293,-1.0067,-0.9911,-0.9231,-0.8546,-0.8161,-0.685,-0.5693,-0.5312,-0.4621,-0.4001,-0.4001,-0.3921,-0.3528,-0.2668,-0.2511,-0.2117,-0.1097,-0.0392,0.0235,0.0627,0.1256,0.1572,0.1415,0.0784,0.0627,0.1257,0.11,0.1021,0.1021,0.0864,0.0786,0.0786,0.0786,0.0707,0.0629,0.0629,0.055,0.0393,0.0393,0.0314,0.0157,0.0079,0.0079,-1.1037,-1.1855,-1.2452,-1.1706,-1.2231,-1.2973,-1.32,-1.32,-1.3411,-1.3985,-1.4418,-1.4705,-1.5204,-1.5638,-1.6008,0.0,0.0,-1.6682,-1.7628,-1.7949,-1.8355,-1.9166,0.0,0.0,-1.9465,-1.953,0.0,0.0,0.0,0.0,-1.7784,-1.836,-1.8389,-1.7735,-1.8282,-1.8281,-1.7612,-1.7624,-1.7546,-1.7515,-1.7515,-1.7306,-1.6948,-1.7121,-1.6954,-1.6386,-1.6551,0.0,0.0,-1.6342,-1.6202,-1.6061,-1.5338,-1.4895,-1.4681,-1.389,-1.36,-1.3462,-1.2365,-1.2003,-1.1855,-1.0887,-1.0663,-1.0738,-1.0588,-1.0368,-1.0218,-1.0218,-1.0067,-0.9765,-0.9008,-0.8618,-0.7999,-0.6314,-0.5619,-0.5154,-0.4387,-0.3999,-0.3841,-0.3841,-0.3841,-0.3528,-0.2668,-0.2511,-0.1882,-0.0078,0.0235,0.0627,0.1649,0.1808,0.1887,0.1808,0.1572,0.1414,0.1335,0.1257,0.1257,0.1257,0.1257,0.1257,0.1257,0.1257,0.11,0.0864,0.0864,0.0786,0.055,0.055,0.055,0.055,0.0393,0.0236,-1.1706,-1.2077,-1.2378,-1.215,-1.2526,-1.2973,-1.3127,-1.3273,-1.3492,-1.3985,-1.4201,-1.4489,-1.5062,-1.5355,-1.5576,-1.5859,0.0,0.0,-1.6682,-1.6881,-1.7148,-1.7619,-1.7823,0.0,0.0,0.0,0.0,0.0,0.0,0.0,-1.6751,-1.7508,-1.7724,-1.7314,-1.7458,-1.7338,-1.6945,-1.6857,-1.6857,-1.6945,-1.6815,-1.6745,-1.6736,-1.6657,-1.6508,-1.6289,-1.6272,0.0,0.0,-1.607,-1.5581,-1.4935,-1.4579,-1.4025,-1.3209,-1.2382,-1.2038,-1.1898,-1.0997,-1.0647,-1.0575,-1.0079,-0.9708,-0.954,-1.0124,-0.9836,-0.9387,-0.9916,-0.9614,-0.9079,-0.8618,-0.7617,-0.6388,-0.5004,-0.4618,-0.4462,-0.3997,-0.3843,-0.3606,-0.3136,-0.2981,-0.2586,-0.1254,-0.1019,-0.0549,0.0863,0.1099,0.1334,0.1962,0.2119,0.2119,0.2119,0.1886,0.1729,0.165,0.165,0.1572,0.1493,0.1493,0.1415,0.1335,0.1335,0.1257,0.1178,0.1178,0.1021,0.0786,0.0786,0.0707,0.0628,0.055,0.0471,-1.2298,-1.2305,-1.2305,-1.2452,-1.2673,-1.2893,-1.3046,-1.3273,-1.3492,-1.3848,-1.3985,-1.4274,-1.4776,-1.5062,-1.5275,-1.5576,0.0,-1.6,-1.6061,-1.6202,-1.6342,-1.6473,0.0,-1.67,0.0,0.0,0.0,0.0,0.0,0.0,-1.6342,-1.6839,-1.7116,-1.6968,-1.683,-1.6621,-1.6542,-1.6342,-1.6342,-1.6542,-1.6342,-1.628,-1.6303,-1.6165,-1.6042,-1.5799,0.0,0.0,0.0,-1.516,-1.451,-1.3584,-1.3309,-1.2748,-1.1873,-1.106,-1.0729,-1.0528,-0.9921,-0.9572,-0.9357,-0.9152,-0.8649,-0.8198,-0.8935,-0.8777,-0.8458,-0.913,-0.8571,-0.7774,-0.7536,-0.6311,-0.4927,-0.4155,-0.3999,-0.3921,-0.3528,-0.345,-0.3136,-0.2273,-0.2117,-0.1724,-0.0235,0.0078,0.047,0.1492,0.1728,0.1884,0.2275,0.2275,0.2275,0.2275,0.2198,0.2043,0.1887,0.1887,0.1808,0.1729,0.165,0.165,0.1493,0.1493,0.1415,0.1415,0.1415,0.1257,0.1021,0.1021,0.0943,0.0786,0.0707,0.0629,-1.2445,-1.2305,-1.2305,-1.2305,-1.2452,-1.2673,-1.2893,-1.3046,-1.3273,-1.3492,-1.3848,-1.4129,-1.4129,-1.4697,-1.5204,-1.5204,-1.5505,0.0,-1.6061,-1.6132,-1.6132,0.0,0.0,-1.6281,-1.6281,0.0,0.0,0.0,0.0,0.0,-1.6272,-1.6281,-1.6342,-1.6342,-1.6281,-1.6281,-1.6272,-1.6272,-1.6272,-1.6272,-1.6272,-1.6008,-1.5512,-1.5698,-1.5428,0.0,0.0,0.0,0.0,-1.3427,-1.2885,-1.2069,-1.1341,-1.1005,-1.093,-1.0124,-0.9782,-0.9782,-0.9578,-0.9076,-0.8503,-0.8297,-0.7726,-0.7078,-0.6861,-0.7062,-0.7434,-0.7872,-0.6878,-0.5619,-0.5384,-0.4693,-0.4079,-0.3843,-0.3841,-0.3528,-0.2666,-0.2511,-0.2275,-0.1489,-0.1332,-0.1019,-0.0157,0.0157,0.0627,0.1729,0.2041,0.2275,0.2431,0.2511,0.2511,0.2511,0.2511,0.2354,0.1964,0.1887,0.1887,0.1887,0.1887,0.1887,0.1887,0.1887,0.1808,0.1572,0.1572,0.1493,0.1257,0.1257,0.1257,0.1257,0.1021,0.0786,-1.2445,-1.2305,-1.2305,-1.2452,-1.2673,-1.2893,-1.3046,-1.3273,-1.3419,-1.3492,-1.3564,-1.3775,-1.4057,-1.4274,-1.4489,-1.4776,-1.4927,-1.507,0.0,0.0,0.0,-1.6132,-1.6272,-1.6272,0.0,0.0,0.0,0.0,0.0,0.0,-1.5559,-1.5788,-1.6,-1.6132,-1.6132,-1.607,-1.5938,-1.5938,-1.5878,-1.5755,-1.5601,-1.5257,-1.4754,-1.4705,0.0,0.0,0.0,0.0,0.0,-1.3042,-1.2291,-1.1036,-1.0849,-1.0201,-0.9454,-0.9196,-0.9003,-0.887,-0.8333,-0.7989,-0.7722,-0.6979,-0.6304,-0.5762,-0.6094,-0.6154,-0.6154,-0.6147,-0.5676,-0.522,-0.5228,-0.45,-0.3609,-0.3047,-0.2902,-0.2666,-0.1882,-0.1646,-0.141,-0.0392,-0.0235,0.0078,0.1099,0.1335,0.157,0.2041,0.2196,0.2275,0.251,0.2511,0.2511,0.2511,0.2511,0.2433,0.2354,0.2276,0.2199,0.1887,0.2042,0.1884,0.1493,0.165,0.1572,0.1415,0.1415,0.1336,0.1335,0.1335,0.1335,0.1335,0.1178,0.11,-1.2813,-1.2526,-1.2526,-1.2673,-1.2893,-1.3046,-1.3193,-1.3346,-1.3492,-1.3492,-1.3492,-1.3564,-1.3848,-1.3985,-1.4201,-1.4353,-1.4497,-1.4713,0.0,0.0,0.0,-1.5929,0.0,0.0,0.0,0.0,0.0,0.0,0.0,0.0,-1.4669,-1.4877,-1.5085,-1.5214,-1.5419,-1.5426,-1.5233,-1.5091,-1.4975,-1.4807,-1.4672,-1.4397,-1.39,-1.3852,0.0,0.0,0.0,0.0,0.0,-1.1744,-1.0975,-0.9837,-0.9837,-0.9355,-0.8641,-0.8376,-0.8247,-0.7987,-0.726,-0.6802,-0.647,-0.5807,-0.5084,-0.4558,-0.4885,-0.5105,-0.5154,-0.4845,-0.4573,-0.4375,-0.4215,-0.3643,-0.2991,-0.2203,-0.2074,-0.1778,-0.0927,-0.0701,-0.0392,0.0706,0.0941,0.1099,0.1807,0.1964,0.2042,0.2196,0.2275,0.2353,0.251,0.2511,0.2511,0.2511,0.2511,0.2511,0.2511,0.2511,0.2354,0.212,0.2276,0.2118,0.1805,0.1885,0.1806,0.1649,0.1571,0.1493,0.1415,0.1335,0.1335,0.1335,0.1335,0.1335,0.0,-1.29,-1.29,-1.29,-1.3046,-1.32,-1.3193,-1.3346,0.0,-1.3492,-1.3492,-1.3492,-1.3492,-1.3775,-1.4057,-1.4057,-1.4353,-1.4641,0.0,-1.5133,0.0,0.0,-1.5726,0.0,0.0,0.0,0.0,0.0,0.0,0.0,-1.3683,-1.3667,-1.3667,-1.36,-1.4217,-1.4457,-1.4162,-1.3834,-1.3717,-1.3693,-1.3693,-1.3435,-1.2956,-1.2956,-1.2515,0.0,0.0,0.0,0.0,-0.9773,-0.9274,-0.8517,-0.8452,-0.8447,-0.8317,-0.7657,-0.7391,-0.726,-0.6338,-0.5617,-0.502,-0.4818,-0.4159,-0.3498,-0.3498,-0.4029,-0.4471,-0.3949,-0.3621,-0.3262,-0.254,-0.2324,-0.2104,-0.1378,-0.1183,-0.0904,0.0151,0.0384,0.0704,0.1724,0.1884,0.1964,0.1964,0.2119,0.2196,0.2196,0.2353,0.2511,0.2511,0.2511,0.2511,0.2511,0.2511,0.2511,0.2511,0.2511,0.2511,0.251,0.2511,0.251,0.2433,0.2431,0.2353,0.2196,0.1963,0.1808,0.1572,0.1415,0.1335,0.1335,0.1335,0.1335,-1.3768,0.0,-1.2973,-1.3119,-1.3193,-1.3273,0.0,-1.3492,-1.3492,-1.3492,-1.3492,-1.3492,-1.3492,-1.3564,-1.3637,-1.3637,-1.371,-1.392,-1.4274,0.0,0.0,-1.4856,-1.4856,0.0,0.0,0.0,0.0,0.0,0.0,-1.368,-1.3251,-1.3526,-1.34,-1.2788,-1.2956,-1.3317,-1.3787,-1.3773,-1.3523,-1.3244,-1.3244,-1.2677,-1.1725,-1.1725,-1.1234,0.0,0.0,0.0,-0.9396,-0.9396,-0.9081,-0.8452,-0.8187,-0.7852,-0.7447,-0.7064,-0.6605,-0.6137,-0.5411,-0.5014,-0.4752,-0.4025,-0.356,-0.3295,-0.3295,-0.3374,-0.3529,-0.3351,-0.2946,-0.2479,-0.2336,-0.1917,-0.1274,-0.0356,-0.0145,0.0147,0.1176,0.1425,0.1604,0.1988,0.2094,0.2196,0.2354,0.2433,0.2431,0.2431,0.2431,0.2511,0.2511,0.2511,0.2511,0.2511,0.2511,0.2511,0.2511,0.2511,0.2431,0.2275,0.2431,0.2354,0.2043,0.2198,0.2196,0.1964,0.1886,0.1808,0.1572,0.1572,0.1415,0.1335,0.1335,0.1335,-1.392,-1.3346,-1.32,-1.3346,-1.3346,-1.3346,-1.3499,-1.3492,-1.3419,-1.3119,-1.3346,-1.3419,-1.3119,-1.3346,-1.3492,-1.3492,-1.3492,0.0,0.0,0.0,-1.4403,-1.4403,-1.426,0.0,0.0,0.0,0.0,0.0,0.0,-1.276,-1.2405,-1.26,-1.247,-1.1949,-1.1976,-1.23,-1.2887,-1.2538,-1.2243,-1.2056,-1.1794,-1.1319,-1.0724,-1.0724,-1.0345,0.0,0.0,0.0,-0.8694,-0.8694,-0.8306,-0.7661,-0.7461,-0.706,-0.6527,-0.6005,-0.5675,-0.5279,-0.4486,-0.4156,-0.3956,-0.3493,-0.3295,-0.3159,-0.2822,-0.2753,-0.2753,-0.2753,-0.2216,-0.1619,-0.1238,-0.0827,-0.0275,0.0622,0.0837,0.1054,0.1688,0.1886,0.1941,0.2181,0.2233,0.2344,0.2473,0.2492,0.2511,0.2511,0.2511,0.2666,0.3134,0.3134,0.3288,0.3754,0.3679,0.3679,0.3679,0.3679,0.329,0.2431,0.2821,0.2821,0.2199,0.2276,0.2276,0.2042,0.2042,0.1963,0.1729,0.1729,0.165,0.1415,0.1415,0.1415,-1.3848,-1.3492,-1.3492,-1.3492,-1.3492,-1.3492,-1.3492,-1.3492,-1.3346,-1.2746,-1.3046,-1.32,-1.2673,-1.3046,-1.3346,-1.3419,0.0,0.0,-1.3924,-1.3956,-1.397,-1.3984,0.0,0.0,0.0,0.0,0.0,0.0,0.0,-1.1781,-1.1512,-1.1435,-1.1303,-1.1115,-1.0982,-1.1171,-1.156,-1.0987,-1.0611,-1.0548,-1.0085,-0.9824,-0.9697,-0.9697,-0.9454,-0.9017,0.0,0.0,-0.7922,-0.7857,-0.7396,-0.6675,-0.6539,-0.6141,-0.5606,-0.4948,-0.4616,-0.442,-0.3694,-0.3362,-0.3159,-0.3092,-0.3025,-0.2889,-0.2214,-0.1879,-0.1812,-0.1812,-0.1343,-0.0672,0.0067,0.0403,0.0672,0.148,0.1681,0.1817,0.2018,0.2025,0.2099,0.2276,0.2425,0.2551,0.2516,0.2707,0.2823,0.2901,0.2901,0.3288,0.4222,0.4142,0.4373,0.5229,0.5154,0.5002,0.5004,0.5079,0.4535,0.2978,0.36,0.3677,0.2901,0.2899,0.2821,0.2663,0.2663,0.2431,0.2121,0.2121,0.1964,0.165,0.165,0.1572,-1.3702,-1.3492,-1.3492,-1.3492,-1.3492,-1.3492,-1.3492,-1.3492,-1.3346,-1.2746,-1.2673,-1.2673,-1.2599,-1.2673,-1.2826,0.0,0.0,-1.3252,0.0,0.0,-1.3115,0.0,0.0,0.0,0.0,0.0,0.0,0.0,0.0,-1.1234,-1.1192,-1.0598,-1.0212,-1.0212,-0.9633,-0.9396,-0.9432,-0.9913,-0.9824,-0.925,-0.918,-0.893,-0.849,-0.849,-0.8231,-0.7782,0.0,-0.7717,-0.7521,-0.7068,-0.6806,-0.6605,-0.5807,-0.5206,-0.4677,-0.4289,-0.3825,-0.3426,-0.3293,-0.3226,-0.3092,-0.2551,-0.2348,-0.2214,-0.1276,-0.0604,-0.0067,0.0067,0.0067,0.0134,0.0268,0.0873,0.148,0.1749,0.1884,0.1951,0.2154,0.2169,0.2183,0.2189,0.2785,0.3216,0.326,0.3834,0.4384,0.4613,0.4766,0.4993,0.53,0.5378,0.53,0.5306,0.5306,0.5154,0.5004,0.5622,0.5622,0.4691,0.4768,0.4768,0.4616,0.4616,0.4613,0.4535,0.4535,0.4068,0.3136,0.3136,0.2746,0.1887,0.1887,0.1808,-1.3615,-1.3411,-1.3419,-1.3119,-1.3273,-1.3492,-1.3492,-1.3492,-1.3273,-1.2305,-1.2378,-1.2526,-1.215,0.0,-1.2691,-1.2971,0.0,-1.2764,-1.2513,-1.2319,0.0,0.0,0.0,0.0,0.0,0.0,0.0,0.0,0.0,0.0,-1.0541,-1.0148,-0.9761,-0.9314,-0.8994,-0.8608,-0.8226,-0.8484,-0.8613,-0.8549,-0.8291,-0.8037,-0.7847,-0.7847,-0.7717,-0.7456,0.0,-0.6933,-0.6732,-0.6141,-0.5679,-0.5219,-0.4755,-0.4287,-0.3754,-0.3625,-0.3426,-0.3159,-0.2753,-0.2618,-0.235,-0.1678,-0.1342,-0.1139,-0.0336,0.0134,0.047,0.0941,0.1076,0.1008,0.1141,0.1479,0.1817,0.2018,0.2085,0.2154,0.2627,0.2762,0.2831,0.3238,0.3653,0.3954,0.3963,0.4362,0.4753,0.4855,0.5081,0.5499,0.6043,0.61,0.623,0.663,0.6549,0.6472,0.6395,0.6707,0.6553,0.5699,0.5234,0.5004,0.5004,0.5004,0.5004,0.5004,0.5004,0.4768,0.4302,0.4302,0.399,0.3444,0.3444,0.3134,-1.3528,-1.3251,-1.3119,-1.2526,-1.2826,-1.3346,-1.3492,-1.3419,-1.3046,-1.2077,0.0,0.0,0.0,-1.1951,0.0,-1.2409,-1.2382,-1.2228,-1.1913,0.0,0.0,0.0,0.0,0.0,0.0,0.0,0.0,0.0,0.0,0.0,-0.9703,-0.9506,-0.9122,-0.8415,-0.8221,-0.7837,-0.7265,-0.7265,-0.7391,-0.7782,-0.7391,-0.7265,-0.7265,-0.7129,-0.706,-0.6999,-0.6474,-0.6075,-0.5745,-0.5213,-0.4619,-0.3961,-0.3894,-0.3493,-0.3092,-0.3092,-0.2958,-0.2688,-0.2149,-0.1811,-0.1475,-0.0739,-0.0403,-0.0134,0.0604,0.0807,0.0941,0.1547,0.1748,0.1749,0.1884,0.1951,0.2018,0.2357,0.2424,0.2627,0.3305,0.3433,0.3629,0.4172,0.4512,0.4643,0.4688,0.4927,0.5222,0.5266,0.559,0.5999,0.667,0.6817,0.7073,0.766,0.7617,0.7561,0.7484,0.7561,0.7326,0.663,0.5931,0.5622,0.5622,0.5622,0.5622,0.5622,0.5622,0.5467,0.5312,0.5312,0.5079,0.4766,0.4766,0.43,-1.3382,-1.2959,-1.2526,-1.1929,-1.2231,-1.2826,-1.3346,-1.3046,-1.2673,-1.2526,0.0,0.0,0.0,-1.1132,-1.1175,-1.1371,-1.1567,-1.1696,0.0,0.0,0.0,0.0,0.0,0.0,0.0,0.0,0.0,0.0,0.0,0.0,-0.8613,-0.8037,-0.7652,-0.7587,-0.6937,-0.6548,-0.6482,-0.6482,-0.6482,-0.6548,-0.6482,-0.6482,-0.6482,-0.5947,-0.5745,-0.5683,-0.5147,-0.4948,-0.4882,-0.4292,-0.4028,-0.3961,-0.3426,-0.3025,-0.2753,-0.2753,-0.2217,-0.1412,-0.1412,-0.1006,-0.0469,0.0201,0.0403,0.0605,0.1547,0.1817,0.1817,0.2087,0.2154,0.2087,0.1951,0.2018,0.2357,0.2965,0.3102,0.3305,0.4056,0.422,0.4249,0.4317,0.4857,0.5397,0.5467,0.6102,0.6664,0.7043,0.7164,0.7229,0.7479,0.763,0.7643,0.7554,0.7698,0.7723,0.7484,0.7868,0.7953,0.7723,0.7484,0.7326,0.7326,0.7326,0.7326,0.7326,0.7326,0.6938,0.6086,0.6086,0.5699,0.5002,0.5002,0.4927,-1.3164,-1.2806,-1.2378,-1.1409,-1.1558,-1.2224,-1.282,-1.2753,-1.2452,-1.1781,-1.2077,0.0,0.0,0.0,-1.0125,-1.003,-0.9991,-0.9898,0.0,0.0,0.0,0.0,0.0,0.0,0.0,0.0,0.0,0.0,0.0,0.0,-0.7707,-0.7447,-0.706,-0.6544,-0.6346,-0.6218,-0.6086,-0.5617,-0.5415,-0.5415,-0.5749,-0.5885,-0.5881,-0.5348,-0.508,-0.508,-0.4556,-0.4289,-0.4289,-0.3692,-0.3493,-0.3493,-0.3023,-0.2619,-0.2214,-0.2353,-0.1746,-0.0805,-0.0739,-0.0269,0.0403,0.1143,0.148,0.1614,0.1951,0.2087,0.2087,0.2154,0.2491,0.2695,0.2221,0.2424,0.2898,0.3169,0.3556,0.4074,0.4818,0.5005,0.512,0.5529,0.5804,0.6009,0.6075,0.64,0.6728,0.6876,0.7221,0.7405,0.7364,0.7601,0.7699,0.7487,0.7655,0.7819,0.7859,0.8025,0.8102,0.7953,0.7799,0.7718,0.7872,0.7638,0.7561,0.7723,0.7561,0.7326,0.7019,0.7019,0.6861,0.6553,0.6553,0.6244,-1.3157,-1.2659,-1.215,-1.126,-1.126,-1.1558,-1.2003,-1.2231,-1.215,-1.1477,-1.1255,-1.0888,-1.005,0.0,0.0,0.0,-0.8775,0.0,0.0,0.0,0.0,0.0,0.0,0.0,0.0,0.0,0.0,0.0,0.0,0.0,0.0,-0.6793,-0.6404,-0.5554,-0.5683,-0.5547,-0.5216,-0.4683,-0.448,-0.448,-0.468,-0.4812,-0.5014,-0.4414,-0.4212,-0.4148,-0.3623,-0.3426,-0.3426,-0.3025,-0.2891,-0.2824,-0.2418,-0.1947,-0.1544,-0.1546,-0.0806,0.0067,0.0201,0.0672,0.1344,0.1817,0.2087,0.2221,0.2221,0.2354,0.2488,0.2491,0.3032,0.3437,0.295,0.3226,0.3574,0.383,0.4273,0.4851,0.5529,0.5734,0.587,0.6284,0.642,0.642,0.6486,0.6601,0.6728,0.6758,0.7043,0.7236,0.7129,0.7426,0.7564,0.75,0.7708,0.7868,0.7992,0.8085,0.8192,0.8174,0.8102,0.803,0.803,0.7718,0.7561,0.7723,0.7561,0.7484,0.7484,0.7484,0.7484,0.7484,0.7484,0.7173,-1.3462,-1.2432,-1.1706,-1.1706,-1.126,-1.0887,-1.1031,-1.1409,-1.1774,-1.197,-1.0205,-0.8665,-0.8518,-0.8038,0.0,0.0,0.0,0.0,0.0,0.0,0.0,0.0,0.0,0.0,0.0,0.0,0.0,0.0,0.0,0.0,0.0,-0.5888,-0.5554,-0.4815,-0.4815,-0.4411,-0.3678,-0.3678,-0.3678,-0.3678,-0.3145,-0.3147,-0.3678,-0.3145,-0.288,-0.288,-0.242,-0.2221,-0.2221,-0.2221,-0.2221,-0.2154,-0.1547,-0.1076,-0.0739,-0.0202,0.0538,0.1277,0.1277,0.1681,0.2221,0.2221,0.2221,0.2221,0.2221,0.2686,0.322,0.3232,0.3715,0.4317,0.4326,0.4287,0.4517,0.5206,0.5394,0.5599,0.628,0.642,0.642,0.642,0.642,0.6486,0.6692,0.6696,0.6762,0.6902,0.6902,0.6885,0.6907,0.7107,0.7274,0.7478,0.773,0.7807,0.7785,0.8176,0.8412,0.8389,0.8403,0.825,0.7804,0.7642,0.7484,0.7484,0.7484,0.7484,0.7484,0.7484,0.7484,0.7484,0.7484,0.7484,-1.2137,-1.1477,-1.0962,-1.0519,-1.0588,-1.0691,-1.0358,-1.0972,0.0,0.0,-0.8974,-0.7451,-0.8,0.0,0.0,0.0,0.0,0.0,0.0,0.0,0.0,0.0,0.0,0.0,0.0,0.0,0.0,0.0,0.0,0.0,0.0,-0.5014,-0.4607,-0.3732,-0.3811,-0.3687,-0.3355,-0.2815,-0.2546,-0.2546,-0.1945,-0.2146,-0.3145,-0.2618,-0.242,-0.242,-0.2287,-0.2221,-0.2154,-0.1748,-0.1547,-0.148,-0.0672,-0.0067,0.0336,0.0336,0.1008,0.1884,0.148,0.1882,0.2487,0.2287,0.2354,0.2619,0.2818,0.3025,0.3297,0.3828,0.4517,0.5071,0.5071,0.5411,0.5693,0.5467,0.5734,0.6145,0.635,0.649,0.6626,0.6626,0.6696,0.6766,0.6832,0.6832,0.6824,0.6929,0.6994,0.7312,0.7976,0.8522,0.8734,0.8449,0.8879,0.9102,0.8715,0.9459,0.9947,0.9946,1.0027,0.9593,0.8475,0.8097,0.8025,0.8097,0.7872,0.7723,0.7723,0.7561,0.7484,0.7484,0.7484,0.7484,-1.2003,-1.1484,-1.1013,-1.0387,-1.0359,-1.0296,-0.968,0.0,0.0,0.0,-0.8082,-0.6805,-0.7261,-0.6822,0.0,0.0,0.0,0.0,0.0,0.0,0.0,0.0,0.0,0.0,0.0,0.0,0.0,0.0,0.0,0.0,0.0,-0.402,-0.368,-0.28,-0.2876,-0.2748,-0.2353,-0.1947,-0.1678,-0.1678,-0.1276,-0.1411,-0.208,-0.1883,-0.1749,-0.1749,-0.1749,-0.1614,-0.1412,-0.1076,-0.0806,-0.0538,0.0202,0.0739,0.1008,0.1143,0.1614,0.2154,0.195,0.2217,0.2686,0.2822,0.2956,0.3222,0.3551,0.3823,0.4161,0.4625,0.5312,0.5929,0.5885,0.628,0.6486,0.6009,0.6214,0.6556,0.656,0.6696,0.6762,0.6811,0.6872,0.7012,0.7292,0.7363,0.7489,0.7807,0.7977,0.8334,0.8809,0.9233,0.9391,0.9091,0.9425,0.9591,0.9371,0.995,1.0295,1.0402,1.0574,1.0347,0.9468,0.8883,0.8475,0.8255,0.803,0.7953,0.7953,0.7795,0.7714,0.7714,0.7642,0.7642,-1.2405,-1.187,-1.1273,-1.0725,-1.0073,-0.9498,-0.9071,-0.8583,-0.8235,-0.8132,0.0,-0.6619,-0.6448,-0.642,0.0,0.0,0.0,0.0,0.0,0.0,0.0,0.0,0.0,0.0,0.0,0.0,0.0,0.0,0.0,0.0,0.0,-0.3094,-0.2757,-0.2007,-0.2007,-0.1742,-0.1076,-0.1076,-0.1076,-0.1076,-0.1076,-0.101,-0.0809,-0.101,-0.1008,-0.0941,-0.0873,-0.0605,-0.0134,-0.0067,0.0201,0.0672,0.1277,0.1479,0.1479,0.2085,0.2288,0.2354,0.2621,0.282,0.2954,0.3625,0.3825,0.3956,0.4287,0.4882,0.5415,0.5491,0.609,0.6696,0.6692,0.6828,0.6894,0.6758,0.6758,0.6758,0.6894,0.6964,0.7021,0.7046,0.7107,0.7316,0.8012,0.8268,0.8538,0.9244,0.9502,0.9621,0.9585,0.9621,0.9646,0.9576,0.9646,0.9744,0.9844,0.9952,1.0074,1.026,1.0597,1.0754,1.0707,0.9925,0.915,0.8403,0.8327,0.8327,0.8327,0.8255,0.8178,0.8178,0.7953,0.7804,-0.9997,-0.9574,-0.928,-0.8867,-0.8304,-0.7822,-0.7711,-0.6958,-0.6479,-0.7337,-0.6974,-0.6465,-0.6424,-0.642,0.0,0.0,0.0,0.0,0.0,0.0,0.0,0.0,0.0,0.0,0.0,0.0,0.0,0.0,0.0,0.0,-0.2353,-0.2354,-0.2018,-0.1343,-0.1343,-0.1276,-0.1076,-0.1076,-0.1076,0.0,-0.1076,-0.101,-0.0809,-0.0876,-0.0471,0.0202,0.0738,0.1073,0.1207,0.1677,0.1744,0.1677,0.2485,0.2621,0.2418,0.2824,0.2958,0.3025,0.3092,0.3558,0.4159,0.3892,0.4289,0.4888,0.508,0.5345,0.5679,0.628,0.6613,0.6881,0.6854,0.685,0.6915,0.7055,0.6985,0.685,0.6915,0.747,0.7887,0.7942,0.85,0.9,0.9142,0.918,0.9247,0.9454,0.992,1.0253,1.0302,1.0808,1.0961,1.0322,1.0815,1.0947,1.0373,1.1036,1.1528,1.1598,1.1899,1.1895,1.1559,1.104,1.0657,1.0432,1.0271,1.019,1.019,0.9448,0.9074,0.8998,0.8327,0.803,-0.9369,-0.9042,-0.8755,-0.7985,-0.7095,-0.6483,-0.6483,-0.5807,-0.5369,-0.5985,-0.587,-0.5617,-0.5617,0.0,0.0,0.0,0.0,0.0,0.0,0.0,0.0,0.0,0.0,0.0,0.0,0.0,0.0,0.0,0.0,-0.2017,-0.1482,-0.1482,-0.128,-0.0808,-0.0807,-0.0807,-0.0807,-0.0807,-0.0807,-0.0807,-0.047,-0.0067,0.0471,0.0,0.0269,0.1074,0.1409,0.1743,0.2012,0.2281,0.2417,0.2551,0.3023,0.3092,0.3023,0.3422,0.3553,0.3623,0.4087,0.4553,0.4951,0.502,0.5352,0.5752,0.6013,0.6145,0.628,0.6679,0.6942,0.7073,0.7055,0.7116,0.7316,0.7731,0.7661,0.7526,0.7661,0.8289,0.882,0.8837,0.9163,0.9588,0.9938,1.0299,1.0483,1.0483,1.0829,1.1044,1.1044,1.1344,1.1476,1.1051,1.1344,1.1435,1.1059,1.1517,1.1809,1.1809,1.2109,1.2164,1.1915,1.1999,1.1713,1.1111,1.1025,1.0944,1.0944,1.0426,1.0126,1.0132,0.9231,0.8851,-0.8834,-0.8682,-0.8426,-0.7395,-0.6455,-0.5683,-0.555,-0.5084,-0.4683,-0.448,-0.4616,-0.4683,-0.4683,0.0,0.0,0.0,0.0,0.0,0.0,0.0,0.0,0.0,0.0,0.0,0.0,0.0,0.0,0.0,0.0,-0.0942,-0.0809,-0.0742,-0.0674,-0.0472,-0.0403,-0.0336,-0.0336,-0.0202,-0.0134,-0.0134,0.0403,0.1138,0.1998,0.1264,0.1267,0.1876,0.2,0.2264,0.2664,0.265,0.2918,0.327,0.3336,0.3411,0.3491,0.402,0.4217,0.4414,0.5147,0.5474,0.5609,0.6214,0.6482,0.6618,0.6815,0.6946,0.6946,0.6946,0.7073,0.7265,0.7265,0.7466,0.7802,0.8364,0.8544,0.8582,0.8652,0.9215,0.9649,0.9687,0.9775,1.0056,1.0615,1.1197,1.1622,1.1622,1.1622,1.1622,1.1622,1.1622,1.1622,1.1622,1.1622,1.1622,1.1622,1.1622,1.1622,1.1622,1.1809,1.1977,1.2028,1.2555,1.2374,1.1483,1.1459,1.1484,1.1484,1.1335,1.1335,1.126,1.0276,0.9825,-0.6402,-0.6154,-0.6167,-0.6465,-0.6436,-0.6083,-0.5352,0.0,-0.4151,0.0,-0.3816,-0.4353,0.0,0.0,0.0,0.0,0.0,0.0,0.0,0.0,0.0,0.0,0.0,0.0,0.0,0.0,0.0,0.0,-0.0942,-0.0809,-0.0809,-0.0607,-0.0539,-0.0472,0.0067,0.0336,0.0337,0.1011,0.1349,0.1349,0.1475,0.1909,0.2495,0.2558,0.2733,0.3011,0.3528,0.3816,0.3875,0.3773,0.3665,0.3556,0.3883,0.4137,0.4425,0.4821,0.5219,0.5686,0.5756,0.6148,0.6474,0.6416,0.6745,0.7073,0.6946,0.7012,0.7138,0.7138,0.733,0.7456,0.7456,0.7942,0.8364,0.85,0.9384,1.0045,0.9487,0.9907,1.0385,1.0352,1.0906,1.1337,1.1413,1.1553,1.1622,1.1622,1.1622,1.1622,1.1622,1.1622,1.1622,1.1622,1.1622,1.1622,1.1622,1.1622,1.1622,1.1622,1.1604,1.175,1.1956,1.2123,1.2311,1.277,1.3057,1.32,1.32,1.2452,1.215,1.215,1.126,1.0881,-0.5527,-0.5125,-0.4951,-0.5153,-0.4815,-0.4345,-0.3949,-0.3485,-0.3021,-0.2619,-0.2684,-0.2885,0.0,0.0,0.0,0.0,0.0,0.0,0.0,0.0,0.0,0.0,0.0,0.0,0.0,0.0,0.0,0.0,-0.0674,-0.0607,-0.0539,-0.0404,-0.0135,0.0404,0.0672,0.0997,0.1368,0.1661,0.2014,0.235,0.2384,0.2709,0.3323,0.3439,0.3523,0.3575,0.3848,0.4015,0.4009,0.3896,0.3843,0.3825,0.4202,0.4487,0.4665,0.5416,0.5859,0.6205,0.6523,0.685,0.7129,0.7068,0.7199,0.733,0.7265,0.7265,0.7396,0.7396,0.7717,0.8037,0.8037,0.8587,0.9139,0.9538,1.0078,1.0546,1.0628,1.0906,1.1121,1.1121,1.1406,1.1622,1.1622,1.1622,1.1622,1.1622,1.1622,1.1622,1.1622,1.1622,1.1622,1.1622,1.1622,1.1622,1.1622,1.1622,1.1622,1.1622,1.1622,1.1626,1.1765,1.1941,1.2167,1.2453,1.2965,1.3309,1.3492,1.3119,1.2973,1.2973,1.215,1.1781,-0.4789,-0.4422,-0.4087,-0.4151,-0.3616,-0.3011,-0.2813,0.0,-0.222,0.0,-0.1681,0.0,0.0,0.0,0.0,0.0,0.0,0.0,0.0,0.0,0.0,0.0,0.0,0.0,0.0,0.0,0.0,0.0,-0.0202,-0.0067,0.0269,0.0269,0.0605,0.1344,0.1535,0.1768,0.222,0.2426,0.2693,0.314,0.3103,0.3357,0.3816,0.3826,0.3844,0.3846,0.3887,0.3901,0.3884,0.3857,0.3923,0.4068,0.4432,0.4753,0.509,0.5816,0.6271,0.6586,0.6959,0.721,0.7445,0.7445,0.7478,0.7521,0.7521,0.7521,0.7521,0.7717,0.8102,0.8554,0.8683,0.9221,0.9899,1.0366,1.0667,1.0913,1.1483,1.1622,1.1622,1.1622,1.1622,1.1622,1.1622,1.1622,1.1622,1.1622,1.1622,1.1622,1.1622,1.1622,1.1622,1.1622,1.1622,1.1622,1.1622,1.1769,1.1847,1.1847,1.1994,1.2049,1.2081,1.2246,1.2413,1.2482,1.2841,1.3097,1.3375,1.3375,1.3411,1.3492,1.29,1.2599,-0.3563,-0.3558,-0.3551,-0.368,-0.3678,-0.3413,0.0,0.0,-0.2149,-0.1344,-0.1143,0.0,0.0,0.0,0.0,0.0,0.0,0.0,0.0,0.0,0.0,0.0,0.0,0.0,0.0,0.0,0.0,0.0,0.0605,0.1008,0.1744,0.1878,0.2013,0.2013,0.2616,0.2889,0.292,0.3533,0.3795,0.3736,0.3766,0.3697,0.3641,0.3596,0.3602,0.361,0.3762,0.3803,0.3812,0.3645,0.3892,0.4403,0.4403,0.5078,0.6057,0.6057,0.6371,0.681,0.681,0.7002,0.7235,0.7235,0.7369,0.7521,0.7521,0.7521,0.7652,0.8296,0.849,0.8619,0.9262,0.9919,1.0454,1.0518,1.1003,1.1553,1.156,1.1622,1.1622,1.1622,1.1622,1.1622,1.1622,1.1622,1.1622,1.1622,1.1622,1.1622,1.1622,1.1622,1.1622,1.1622,1.1622,1.1622,1.1622,1.2134,1.2438,1.2438,1.304,1.3405,1.3386,1.3395,1.3599,1.3887,1.334,1.2979,1.3031,1.3031,1.3192,1.3492,1.3492,1.3419,-0.1745,-0.1543,-0.1274,-0.134,-0.1407,-0.1408,-0.1141,-0.1074,-0.094,-0.0672,-0.0605,0.0,0.0,0.0,0.0,0.0,0.0,0.0,0.0,0.0,0.0,0.0,0.0,0.0,0.0,0.0,0.0,0.0,0.0,0.1745,0.2012,0.2079,0.2262,0.268,0.2912,0.3166,0.3481,0.3637,0.3697,0.3697,0.3697,0.3641,0.3585,0.3585,0.3585,0.3644,0.3934,0.4059,0.4026,0.3981,0.4268,0.4762,0.5046,0.5422,0.5823,0.6049,0.6358,0.659,0.659,0.6726,0.6965,0.6965,0.7097,0.7331,0.7331,0.7673,0.8166,0.8425,0.9134,0.9843,1.0098,1.0674,1.1192,1.1192,1.1442,1.1622,1.1622,1.1622,1.1622,1.1622,1.1622,1.1622,1.1622,1.1622,1.1622,1.1622,1.1622,1.1622,1.1622,1.1622,1.1622,1.1622,1.1622,1.1622,1.1622,1.1777,1.2066,1.2497,1.2736,1.3078,1.3476,1.3476,1.3554,1.3708,1.3453,1.3316,1.3293,1.3108,1.3067,1.3184,1.3397,1.3492,-0.0672,-0.0336,0.0,0.0134,0.0067,0.0,0.0,0.0,0.0,0.0,0.0067,0.0,0.0,0.0,0.0,0.0,0.0,0.0,0.0,0.0,0.0,0.0,0.0,0.0,0.0,0.0,0.0,0.0,0.0,0.0,0.2818,0.2818,0.2967,0.3301,0.3263,0.3425,0.3743,0.3637,0.3585,0.3585,0.3755,0.3811,0.3811,0.3981,0.4039,0.4039,0.4324,0.4366,0.4233,0.4395,0.4728,0.5175,0.5454,0.5677,0.5841,0.6123,0.6262,0.6374,0.6374,0.651,0.6684,0.6684,0.7005,0.7373,0.7509,0.8064,0.877,0.9105,0.9843,1.0548,1.08,1.124,1.1622,1.1622,1.1622,1.1622,1.1622,1.1622,1.1622,1.1622,1.1622,1.1622,1.1622,1.1622,1.1622,1.1622,1.1622,1.1622,1.1622,1.1622,1.17,1.1854,1.1917,1.1994,1.2212,1.2586,1.2948,1.3357,1.3707,1.4105,1.4538,1.4547,1.4574,1.4567,1.4382,1.4245,1.4287,1.3628,1.334,1.3352,1.3577,1.3598,0.0,0.0,0.0,0.0,0.0538,0.0,0.0538,0.0,0.0538,0.0538,0.0874,0.0,0.0,0.0,0.0,0.0,0.0,0.0,0.0,0.0,0.0,0.0,0.0,0.0,0.0,0.0,0.0,0.0,0.3215,0.3553,0.4233,0.4295,0.4181,0.388,0.3814,0.3754,0.3585,0.3585,0.3585,0.3638,0.4036,0.4209,0.4209,0.4668,0.4897,0.4897,0.4897,0.4653,0.4288,0.4718,0.5218,0.5622,0.5622,0.5845,0.6178,0.6178,0.6178,0.6178,0.6232,0.636,0.6521,0.6521,0.7065,0.7763,0.8115,0.8561,0.9235,1.0197,1.0478,1.0674,1.1435,1.1622,1.1622,1.1622,1.1622,1.1622,1.1622,1.1622,1.1622,1.1622,1.1622,1.1622,1.1622,1.1622,1.1622,1.1622,1.163,1.163,1.163,1.163,1.1854,1.2438,1.25,1.2781,1.3464,1.4462,1.5104,1.5096,1.6118,1.6688,1.6665,1.6694,1.6685,1.6665,1.6128,1.5799,1.5799,1.4591,1.4023,1.4024,1.4039,1.3815,0.1076,0.0,0.0,0.0,0.0,0.0,0.0,0.0,0.1143,0.148,0.1614,0.0,0.0,0.0,0.0,0.0,0.0,0.0,0.0,0.0,0.0,0.0,0.0,0.0,0.0,0.0,0.0,0.0,0.4028,0.4097,0.43,0.4132,0.4004,0.3875,0.3738,0.3615,0.3585,0.3585,0.3747,0.4018,0.4132,0.4353,0.4688,0.4838,0.4886,0.4944,0.5285,0.534,0.5218,0.5336,0.5673,0.6009,0.6009,0.6123,0.6178,0.6178,0.6178,0.6287,0.6712,0.6911,0.7018,0.7389,0.7778,0.8063,0.819,0.8942,0.9884,1.0153,1.076,1.1373,1.156,1.1622,1.1622,1.1622,1.1622,1.1622,1.1622,1.1622,1.1622,1.1622,1.1622,1.1622,1.1622,1.1622,1.1622,1.1622,1.1987,1.2219,1.2219,1.2664,1.3032,1.3189,1.3243,1.3424,1.3877,1.4186,1.4735,1.5548,1.5869,1.6206,1.6683,1.6693,1.6684,1.6675,1.6529,1.6465,1.6465,1.5397,1.4925,1.4925,1.4558,1.4371,0.0,0.0,0.0,0.0,0.0,0.0,0.1884,0.1884,0.2018,0.0,0.2555,0.0,0.0,0.0,0.0,0.0,0.0,0.0,0.0,0.0,0.0,0.0,0.0,0.0,0.0,0.43,0.43,0.43,0.43,0.43,0.43,0.4069,0.3872,0.3872,0.3875,0.3855,0.3855,0.4021,0.4242,0.4512,0.4677,0.4956,0.5175,0.5382,0.5429,0.5483,0.5714,0.5832,0.5832,0.5841,0.6009,0.6178,0.6178,0.6178,0.6178,0.6178,0.6282,0.6495,0.6923,0.7192,0.7354,0.7771,0.8141,0.8458,0.8632,0.9352,1.0144,1.046,1.1067,1.1622,1.1622,1.1622,1.1622,1.1622,1.1622,1.1622,1.1622,1.1622,1.1622,1.1622,1.1622,1.1622,1.1622,1.1839,1.1994,1.1994,1.2508,1.2943,1.2923,1.326,1.3631,1.3874,1.4055,1.4357,1.4877,1.5275,1.5762,1.6437,1.6597,1.6856,1.7213,1.7213,1.7245,1.7266,1.7266,1.7266,1.7266,1.6346,1.5846,1.5671,1.5286,1.5029,0.0,0.0,0.0,0.0,0.0,0.0,0.2627,0.2762,0.2896,0.0,0.0,0.0,0.0,0.0,0.0,0.0,0.0,0.0,0.0,0.0,0.0,0.0,0.0,0.0,0.43,0.43,0.43,0.43,0.43,0.4367,0.4434,0.4193,0.4055,0.4055,0.4213,0.4288,0.4288,0.4677,0.4952,0.5011,0.5399,0.5622,0.5736,0.6064,0.6178,0.6178,0.6178,0.6178,0.6178,0.6178,0.6178,0.6178,0.6178,0.6232,0.6287,0.6287,0.6549,0.6864,0.7187,0.7461,0.7676,0.7984,0.8455,0.893,0.9255,0.9686,1.0236,1.0894,1.1282,1.1578,1.1615,1.1622,1.1622,1.1622,1.163,1.17,1.17,1.17,1.1707,1.1777,1.17,1.163,1.17,1.2142,1.2554,1.2577,1.317,1.3639,1.3605,1.3678,1.3974,1.4578,1.5022,1.5498,1.6168,1.6951,1.7396,1.7474,1.7823,1.8008,1.8008,1.8008,1.8008,1.8008,1.8008,1.8008,1.8008,1.7246,1.6663,1.6398,1.6,1.5807,0.0,0.0,0.0,0.0,0.0,0.0,0.2627,0.3027,0.3558,0.0,0.4372,0.4643,0.0,0.0,0.0,0.0,0.0,0.0,0.0,0.0,0.0,0.0,0.0,0.0,0.43,0.43,0.43,0.43,0.4431,0.4761,0.5163,0.4882,0.484,0.5083,0.4898,0.4787,0.4787,0.4842,0.5175,0.5782,0.5673,0.5905,0.647,0.6292,0.6178,0.6178,0.6178,0.6178,0.6178,0.6178,0.6178,0.6178,0.6178,0.65,0.6923,0.6923,0.7241,0.7765,0.8402,0.8613,0.862,0.9263,0.9413,0.9465,0.953,0.9785,1.0236,1.0894,1.1181,1.1291,1.1556,1.1622,1.1622,1.1622,1.1987,1.2289,1.2289,1.2289,1.2508,1.3032,1.2289,1.1769,1.2219,1.243,1.2653,1.3212,1.3874,1.4273,1.4289,1.4723,1.5196,1.5732,1.5878,1.6226,1.7052,1.7283,1.7561,1.7842,1.793,1.8008,1.8008,1.8008,1.8008,1.8008,1.8008,1.8008,1.8008,1.7842,1.7735,1.76,1.6973,1.6655,0.0,0.0,0.0,0.3155,0.0,0.0,0.0,0.418,0.457,0.514,0.5266,0.5415,0.6011,0.0,0.0,0.0,0.0,0.0,0.0,0.0,0.0,0.0,0.0,0.0,0.4697,0.4431,0.4498,0.4894,0.5286,0.5679,0.6145,0.5814,0.5627,0.5627,0.5523,0.5395,0.523,0.5454,0.5837,0.6327,0.6213,0.6386,0.689,0.6717,0.6663,0.6613,0.6514,0.651,0.6657,0.6485,0.6657,0.6944,0.6745,0.6843,0.7122,0.7396,0.7777,0.8196,0.8718,0.8935,0.9099,0.9569,0.9673,0.9614,0.9614,0.9901,1.0294,1.0627,1.0945,1.1226,1.1396,1.1559,1.1802,1.2228,1.2515,1.2843,1.3166,1.3233,1.3354,1.3667,1.3247,1.2838,1.2983,1.3308,1.3605,1.3952,1.4569,1.4954,1.4954,1.542,1.582,1.6055,1.6515,1.6902,1.7388,1.7571,1.7823,1.8008,1.8008,1.8008,1.8008,1.8008,1.8008,1.8008,1.8008,1.8008,1.8008,1.8008,1.8008,1.8008,1.7647,1.7432,0.0,0.0,0.0,0.0,0.0,0.3959,0.0,0.0,0.0,0.5967,0.6082,0.0,0.0,0.0,0.0,0.0,0.0,0.0,0.0,0.0,0.0,0.0,0.0,0.0,0.0,0.4764,0.4894,0.5749,0.6137,0.6597,0.706,0.6745,0.6409,0.6289,0.6205,0.6109,0.5837,0.6114,0.644,0.6756,0.6652,0.6815,0.7192,0.7085,0.7036,0.7106,0.6954,0.6998,0.7187,0.7063,0.73,0.777,0.7362,0.7351,0.7545,0.7978,0.8408,0.8738,0.8995,0.9204,0.942,0.9673,0.9725,0.9666,0.9666,0.9917,1.0262,1.0329,1.0763,1.1285,1.1464,1.1791,1.2228,1.3009,1.33,1.3515,1.4056,1.4182,1.4227,1.4319,1.4282,1.4101,1.383,1.4181,1.4578,1.4723,1.5109,1.541,1.541,1.581,1.6107,1.6198,1.6925,1.7464,1.7483,1.7823,1.8008,1.8008,1.8008,1.8008,1.8008,1.8008,1.8008,1.8008,1.8008,1.8008,1.8008,1.8008,1.8008,1.8008,1.8008,1.8008,0.0,0.0,0.0,0.0,0.4348,0.0,0.0,0.0,0.6141,0.6502,0.0,0.0,0.0,0.0,0.0,0.0,0.0,0.0,0.0,0.0,0.0,0.0,0.0,0.0,0.0,0.5296,0.5624,0.6478,0.6276,0.6666,0.7787,0.7434,0.7315,0.7558,0.7165,0.6869,0.6593,0.6598,0.6761,0.7031,0.6495,0.6657,0.7413,0.6972,0.6869,0.7144,0.7461,0.7616,0.767,0.7984,0.8168,0.8199,0.78,0.8171,0.8969,0.9054,0.9368,0.9844,1.0051,1.0051,0.9947,1.0162,1.0102,0.9947,0.9947,0.9977,1.012,1.0363,1.0766,1.1337,1.2149,1.2617,1.307,1.3726,1.43,1.4712,1.4796,1.4789,1.4955,1.5573,1.5215,1.4783,1.473,1.4702,1.4877,1.5488,1.5488,1.541,1.541,1.581,1.6246,1.659,1.709,1.7561,1.792,1.7998,1.8008,1.8008,1.8008,1.8008,1.8008,1.8008,1.8008,1.8008,1.8008,1.8008,1.8008,1.8008,1.8008,1.8008,1.8008,1.8008,0.0,0.0,0.0,0.0,0.0,0.0,0.594,0.0,0.7204,0.0,0.0,0.0,0.0,0.0,0.0,0.0,0.847,0.0,0.0,0.0,0.0,0.0,0.0,0.0,0.0,0.0,0.0,0.0,0.7577,0.8107,0.8835,0.8421,0.8086,0.8086,0.7611,0.7192,0.6923,0.6918,0.7085,0.73,0.6928,0.7192,0.8096,0.7711,0.7818,0.8309,0.8355,0.8408,0.8573,0.8567,0.8791,0.9127,0.8988,0.9051,0.9238,0.954,0.9829,0.9999,1.011,1.0051,0.9999,1.011,1.0051,0.9999,1.0154,1.0162,1.0236,1.0681,1.103,1.154,1.2556,1.3041,1.3573,1.4573,1.502,1.5293,1.5673,1.5796,1.583,1.614,1.5975,1.5716,1.5633,1.5438,1.536,1.5478,1.542,1.541,1.541,1.6035,1.6496,1.668,1.73,1.7833,1.8008,1.8008,1.8008,1.8008,1.8144,1.8144,1.8008,1.8212,1.8212,1.8008,1.8212,1.8279,1.8134,1.8134,1.8134,1.8144,1.8076,1.8008,0.4169,0.0,0.0,0.0,0.0,0.0,0.0,0.0,0.0,0.0,0.0,0.0,0.0,0.0,0.0,0.0,0.0,0.9318,0.0,0.0,0.0,0.0,0.0,0.0,0.0,0.0,0.0,0.8042,0.8565,0.9022,0.9484,0.8968,0.8616,0.844,0.7888,0.7461,0.7192,0.7192,0.7354,0.767,0.7402,0.7777,0.8732,0.8455,0.8613,0.9211,0.9093,0.9197,0.9361,0.9302,0.9569,1.0007,1.0007,0.9791,0.9614,0.9997,1.0138,1.0154,1.0154,1.0154,1.0154,1.0154,1.0154,1.0205,1.047,1.0565,1.0667,1.1158,1.1601,1.2191,1.3104,1.3672,1.4315,1.54,1.5682,1.5828,1.6269,1.6384,1.6384,1.6384,1.6384,1.6327,1.607,1.5874,1.5708,1.5536,1.542,1.541,1.541,1.6133,1.6729,1.668,1.7474,1.7998,1.8085,1.8114,1.8066,1.8144,1.8269,1.8279,1.8144,1.8347,1.8414,1.8144,1.8414,1.8482,1.8337,1.8337,1.8337,1.8269,1.8076,1.8008,0.0,0.0,0.0,0.5699,0.0,0.0,0.0,0.0,0.7532,0.0,0.0,0.0,0.0,0.0,0.0,0.0,0.0,0.0,0.0,0.0,0.0,0.0,0.0,0.0,0.0,0.0,0.0,0.8916,0.8711,0.8776,0.9484,0.8968,0.8675,0.8675,0.8171,0.7741,0.7467,0.7467,0.767,0.8078,0.7824,0.8203,0.9159,0.8883,0.8942,0.9211,0.9614,0.9762,0.9814,1.0249,1.047,1.047,1.047,1.047,1.0462,1.0462,1.0462,1.047,1.047,1.047,1.047,1.047,1.047,1.0573,1.1124,1.1276,1.1368,1.1859,1.2574,1.3394,1.4005,1.4746,1.5517,1.6192,1.6384,1.6384,1.6384,1.6384,1.6384,1.6384,1.6384,1.6316,1.5982,1.5906,1.5868,1.5722,1.5498,1.541,1.541,1.6133,1.6729,1.668,1.7474,1.8085,1.8272,1.8295,1.8375,1.8482,1.8347,1.8337,1.8482,1.8482,1.8482,1.8482,1.8482,1.8482,1.8482,1.8482,1.8414,1.8269,1.8076,1.8008,0.0,0.0,0.598,0.5923,0.0,0.0,0.0,0.0,0.0,0.0,0.0,0.0,0.0,0.0,0.0,0.0,0.0,0.0,0.0,0.0,0.0,0.0,0.0,0.0,0.0,0.0,0.0,0.9497,0.9321,0.9432,0.9982,0.9175,0.8681,0.8681,0.8171,0.7848,0.7788,0.8049,0.8309,0.8408,0.8402,0.8823,0.9562,0.9302,0.9517,1.0051,1.0198,1.0249,1.03,1.0411,1.0522,1.0522,1.0522,1.0522,1.0522,1.0522,1.0522,1.0522,1.0522,1.0718,1.1023,1.1023,1.1217,1.151,1.171,1.176,1.1963,1.2774,1.3202,1.3714,1.4901,1.5395,1.57,1.6244,1.6384,1.6384,1.6384,1.6384,1.6384,1.6384,1.6269,1.6144,1.6066,1.5982,1.5818,1.5556,1.5566,1.5635,1.5817,1.637,1.6821,1.71,1.7658,1.8247,1.8919,1.911,1.9369,1.9835,1.9125,1.8988,1.9824,1.9704,1.9441,1.9243,1.9452,1.9264,1.8684,1.8684,1.8674,1.8607,1.8414,1.8212,0.4522,0.5183,0.0,0.5946,0.7025,0.0,0.799,0.0,0.0,0.0,0.0,0.0,0.0,0.0,0.0,0.0,0.0,0.0,0.0,1.0982,0.0,0.0,0.0,0.0,0.0,0.0,1.0065,1.0187,0.9983,1.0021,0.0,0.0,0.898,0.8976,0.8416,0.8156,0.8162,0.858,0.889,0.904,0.9086,0.9451,1.0035,0.988,1.0043,1.0522,1.0522,1.0522,1.0522,1.0522,1.0522,1.0522,1.0522,1.0522,1.0522,1.0522,1.0624,1.0769,1.0769,1.1116,1.1569,1.1569,1.176,1.2058,1.2246,1.2398,1.2717,1.355,1.4011,1.4495,1.5471,1.5804,1.6011,1.6312,1.6384,1.6384,1.6384,1.6384,1.6384,1.6384,1.6327,1.6202,1.6114,1.6077,1.5961,1.5584,1.5624,1.5811,1.6056,1.6427,1.6882,1.733,1.7939,1.8746,1.9661,1.9888,2.0222,2.0739,1.9955,1.989,2.073,2.0549,2.0422,2.0457,2.0238,1.9921,1.9572,1.9147,1.8875,1.8808,1.8684,1.8482]},{"header":{"parameterUnit":"m.s-1","parameterCategory":1,"la1":30.6,"la2":29.2853,"lo1":-89.7004,"lo2":-87.6739,"dy":0.0162,"dx":0.0183,"nx":112,"ny":82,"refTime":"2023-09-11T06:00:00:Z","depth":0,"parameterNumber":3,"parameterNumberName":"V-component_of_WINDS"},"data":[0.0,0.0,0.0,0.0,0.0,0.0,0.0,0.0,0.0,0.0,0.0,0.0,0.0,0.0,0.0,0.0,0.0,0.0,0.0,0.0,0.0,0.0,0.0,0.0,0.0,0.0,0.0,0.0,0.0,0.0,0.0,0.0,0.0,0.0,0.0,0.0,0.0,0.0,0.0,0.0,0.0,0.0,0.0,0.0,0.0,0.0,0.0,0.0,0.0,0.0,0.0,0.0,0.0,0.0,0.0,0.0,0.0,0.0,0.0,0.0,0.0,0.0,0.0,0.0,0.0,0.0,0.0,0.0,0.0,0.0,0.0,0.0,0.0,0.0,0.0,0.0,0.0,0.0,0.0,0.0,0.0,0.0,0.0,0.0,0.0,0.0,0.0,0.0,0.0,0.0,3.5053,3.5021,3.4055,3.2667,3.0905,2.8849,2.8046,2.9102,0.0,0.0,0.0,0.0,0.0,0.0,0.0,0.0,0.0,0.0,0.0,0.0,0.0,0.0,0.0,0.0,0.0,0.0,0.0,0.0,0.0,0.0,0.0,0.0,0.0,0.0,0.0,0.0,0.0,0.0,0.0,0.0,0.0,0.0,0.0,0.0,0.0,0.0,0.0,0.0,0.0,0.0,0.0,0.0,0.0,0.0,0.0,0.0,0.0,0.0,0.0,0.0,0.0,0.0,0.0,0.0,0.0,0.0,0.0,0.0,0.0,0.0,0.0,0.0,0.0,0.0,0.0,0.0,0.0,0.0,0.0,0.0,0.0,0.0,0.0,0.0,0.0,0.0,0.0,0.0,0.0,0.0,0.0,0.0,0.0,0.0,0.0,0.0,0.0,0.0,0.0,0.0,0.0,0.0,0.0,0.0,0.0,0.0,0.0,0.0,0.0,0.0,0.0,0.0,3.5295,3.5172,3.4117,3.3003,3.2022,3.0256,2.9356,2.9733,0.0,0.0,0.0,0.0,0.0,0.0,0.0,0.0,0.0,0.0,0.0,0.0,0.0,0.0,0.0,0.0,0.0,0.0,0.0,0.0,0.0,0.0,0.0,0.0,0.0,0.0,0.0,0.0,0.0,0.0,0.0,0.0,0.0,0.0,0.0,0.0,0.0,0.0,0.0,0.0,0.0,0.0,0.0,0.0,0.0,0.0,0.0,0.0,0.0,0.0,0.0,0.0,0.0,0.0,0.0,0.0,0.0,0.0,0.0,0.0,0.0,0.0,0.0,0.0,0.0,0.0,0.0,0.0,0.0,0.0,0.0,0.0,0.0,0.0,0.0,0.0,0.0,0.0,0.0,0.0,0.0,0.0,0.0,0.0,0.0,0.0,0.0,0.0,0.0,0.0,0.0,0.0,0.0,0.0,0.0,0.0,0.0,0.0,0.0,0.0,0.0,0.0,0.0,3.5189,3.5114,3.4793,3.427,3.2885,3.0316,2.9329,2.8706,2.8338,2.7391,0.0,0.0,0.0,0.0,0.0,0.0,0.0,0.0,0.0,0.0,0.0,0.0,0.0,0.0,0.0,0.0,0.0,0.0,0.0,0.0,0.0,0.0,0.0,0.0,0.0,0.0,0.0,0.0,0.0,0.0,0.0,0.0,0.0,0.0,0.0,0.0,0.0,0.0,0.0,0.0,0.0,0.0,0.0,0.0,0.0,0.0,0.0,0.0,0.0,0.0,0.0,0.0,0.0,0.0,0.0,0.0,0.0,0.0,0.0,0.0,0.0,0.0,0.0,0.0,0.0,0.0,0.0,0.0,0.0,0.0,0.0,0.0,0.0,0.0,0.0,0.0,0.0,0.0,0.0,0.0,0.0,0.0,0.0,0.0,0.0,0.0,0.0,0.0,0.0,0.0,0.0,0.0,0.0,0.0,0.0,0.0,0.0,0.0,0.0,0.0,0.0,0.0,3.5034,3.4906,3.4571,3.445,3.3125,3.0,2.9173,2.8629,2.8248,2.7777,0.0,0.0,0.0,0.0,0.0,0.0,0.0,0.0,0.0,0.0,0.0,0.0,0.0,0.0,0.0,0.0,0.0,0.0,0.0,0.0,0.0,0.0,0.0,0.0,0.0,0.0,0.0,0.0,0.0,0.0,0.0,0.0,0.0,0.0,0.0,0.0,0.0,0.0,0.0,0.0,0.0,0.0,0.0,0.0,0.0,0.0,0.0,0.0,0.0,0.0,0.0,0.0,0.0,0.0,0.0,0.0,0.0,0.0,0.0,0.0,0.0,0.0,0.0,0.0,0.0,0.0,0.0,0.0,0.0,0.0,0.0,0.0,0.0,0.0,0.0,0.0,0.0,0.0,0.0,0.0,0.0,0.0,0.0,0.0,0.0,0.0,0.0,0.0,0.0,0.0,0.0,0.0,0.0,0.0,0.0,0.0,0.0,0.0,0.0,0.0,0.0,0.0,3.4922,3.4863,3.4951,3.4611,3.4277,3.3989,3.1753,3.0768,3.176,3.0482,0.0,0.0,0.0,0.0,0.0,0.0,0.0,0.0,0.0,0.0,0.0,0.0,0.0,0.0,0.0,0.0,0.0,0.0,0.0,0.0,0.0,0.0,0.0,0.0,0.0,0.0,0.0,0.0,0.0,0.0,0.0,0.0,0.0,0.0,0.0,0.0,0.0,0.0,0.0,0.0,0.0,0.0,0.0,0.0,0.0,0.0,0.0,0.0,0.0,0.0,0.0,0.0,0.0,0.0,0.0,0.0,0.0,0.0,0.0,0.0,0.0,0.0,0.0,0.0,0.0,0.0,0.0,0.0,0.0,0.0,0.0,0.0,0.0,0.0,0.0,0.0,0.0,0.0,0.0,0.0,0.0,0.0,0.0,0.0,0.0,0.0,0.0,0.0,0.0,0.0,0.0,0.0,0.0,0.0,0.0,0.0,0.0,0.0,0.0,0.0,0.0,0.0,3.5052,3.4901,0.0,3.4804,3.4218,3.2827,3.1961,3.1494,3.1508,0.0,0.0,0.0,0.0,0.0,0.0,0.0,0.0,0.0,0.0,0.0,0.0,0.0,0.0,0.0,0.0,0.0,0.0,0.0,0.0,0.0,0.0,0.0,0.0,0.0,0.0,0.0,0.0,0.0,0.0,0.0,0.0,0.0,0.0,0.0,0.0,0.0,0.0,0.0,0.0,0.0,0.0,0.0,0.0,0.0,0.0,0.0,0.0,0.0,0.0,0.0,0.0,0.0,0.0,0.0,0.0,0.0,0.0,0.0,0.0,0.0,0.0,0.0,0.0,0.0,0.0,0.0,0.0,0.0,0.0,0.0,0.0,0.0,0.0,0.0,0.0,0.0,0.0,0.0,0.0,0.0,0.0,0.0,0.0,0.0,0.0,0.0,0.0,0.0,0.0,0.0,0.0,0.0,0.0,0.0,0.0,0.0,0.0,0.0,0.0,0.0,0.0,3.4993,3.4769,3.4614,0.0,3.4765,3.4291,3.26,3.2165,3.1942,3.1802,0.0,0.0,0.0,0.0,0.0,0.0,0.0,0.0,0.0,0.0,0.0,0.0,0.0,0.0,0.0,0.0,0.0,0.0,0.0,0.0,0.0,0.0,0.0,0.0,0.0,0.0,0.0,0.0,0.0,0.0,0.0,0.0,0.0,0.0,0.0,0.0,0.0,0.0,0.0,0.0,0.0,0.0,0.0,0.0,0.0,0.0,0.0,0.0,0.0,0.0,0.0,0.0,0.0,0.0,0.0,0.0,0.0,0.0,0.0,0.0,0.0,0.0,0.0,0.0,0.0,0.0,0.0,0.0,0.0,0.0,0.0,0.0,0.0,0.0,0.0,0.0,0.0,0.0,0.0,0.0,0.0,0.0,0.0,0.0,0.0,0.0,0.0,0.0,0.0,0.0,0.0,0.0,0.0,0.0,0.0,0.0,0.0,0.0,0.0,0.0,0.0,0.0,3.4319,3.4009,3.3853,3.3802,3.4436,3.4661,3.4111,3.2683,3.2232,0.0,0.0,0.0,0.0,0.0,0.0,0.0,0.0,0.0,0.0,0.0,0.0,0.0,0.0,0.0,0.0,0.0,0.0,0.0,0.0,0.0,0.0,0.0,0.0,0.0,0.0,0.0,0.0,0.0,0.0,0.0,0.0,0.0,0.0,0.0,0.0,0.0,0.0,0.0,0.0,0.0,0.0,0.0,0.0,0.0,0.0,0.0,0.0,0.0,0.0,0.0,0.0,0.0,0.0,0.0,0.0,0.0,0.0,0.0,0.0,0.0,0.0,0.0,0.0,0.0,0.0,0.0,0.0,0.0,0.0,0.0,0.0,0.0,0.0,0.0,0.0,0.0,0.0,0.0,0.0,0.0,0.0,0.0,0.0,0.0,0.0,0.0,0.0,0.0,0.0,0.0,0.0,0.0,0.0,0.0,0.0,0.0,0.0,0.0,0.0,0.0,0.0,0.0,3.445,3.3664,3.3175,3.3113,3.3079,3.2958,3.2641,3.2077,3.22,3.3303,0.0,0.0,0.0,0.0,0.0,0.0,0.0,0.0,0.0,0.0,0.0,0.0,0.0,0.0,0.0,0.0,0.0,0.0,0.0,0.0,0.0,0.0,0.0,0.0,0.0,0.0,0.0,0.0,0.0,0.0,0.0,0.0,0.0,0.0,0.0,0.0,0.0,0.0,0.0,0.0,0.0,0.0,0.0,0.0,0.0,0.0,0.0,0.0,0.0,0.0,0.0,0.0,0.0,0.0,0.0,0.0,0.0,0.0,0.0,0.0,0.0,0.0,0.0,0.0,0.0,0.0,0.0,0.0,0.0,0.0,0.0,0.0,0.0,0.0,0.0,0.0,0.0,0.0,0.0,0.0,0.0,0.0,0.0,0.0,0.0,0.0,0.0,0.0,0.0,0.0,0.0,0.0,0.0,0.0,0.0,0.0,0.0,0.0,0.0,0.0,0.0,0.0,3.4353,3.3013,3.2071,3.1951,3.2175,3.2281,3.2166,3.2151,3.2409,3.3039,0.0,0.0,0.0,0.0,0.0,0.0,0.0,0.0,0.0,0.0,0.0,0.0,0.0,0.0,0.0,0.0,0.0,0.0,0.0,0.0,0.0,0.0,0.0,0.0,0.0,0.0,0.0,0.0,0.0,0.0,0.0,0.0,0.0,0.0,0.0,0.0,0.0,0.0,0.0,0.0,0.0,0.0,0.0,0.0,0.0,0.0,0.0,0.0,0.0,0.0,0.0,0.0,0.0,0.0,0.0,0.0,0.0,0.0,0.0,0.0,0.0,0.0,0.0,0.0,0.0,0.0,0.0,0.0,0.0,0.0,0.0,0.0,0.0,0.0,0.0,0.0,0.0,0.0,0.0,0.0,0.0,0.0,0.0,0.0,0.0,0.0,0.0,0.0,0.0,0.0,0.0,0.0,0.0,0.0,0.0,0.0,0.0,0.0,0.0,0.0,0.0,0.0,3.4183,3.2317,3.0954,3.0639,3.1512,3.2119,3.2135,3.2323,3.2427,3.2397,0.0,0.0,0.0,0.0,0.0,0.0,0.0,0.0,0.0,0.0,0.0,0.0,0.0,0.0,0.0,0.0,0.0,0.0,0.0,0.0,0.0,0.0,0.0,0.0,0.0,0.0,0.0,0.0,0.0,0.0,0.0,0.0,0.0,0.0,0.0,0.0,0.0,0.0,0.0,0.0,0.0,0.0,0.0,0.0,0.0,0.0,0.0,0.0,0.0,0.0,0.0,0.0,0.0,0.0,0.0,0.0,0.0,0.0,0.0,0.0,2.8591,0.0,0.0,0.0,0.0,0.0,0.0,0.0,0.0,0.0,0.0,0.0,0.0,0.0,0.0,0.0,0.0,0.0,0.0,0.0,0.0,0.0,0.0,0.0,0.0,0.0,0.0,0.0,0.0,0.0,0.0,0.0,0.0,0.0,0.0,0.0,0.0,0.0,0.0,0.0,0.0,0.0,3.4807,3.2967,3.153,3.0828,3.0377,3.011,3.011,2.9827,3.0038,3.0883,3.1097,0.0,0.0,0.0,0.0,0.0,0.0,0.0,0.0,0.0,0.0,0.0,0.0,0.0,0.0,0.0,0.0,0.0,0.0,0.0,0.0,0.0,0.0,0.0,0.0,0.0,0.0,0.0,0.0,0.0,0.0,0.0,0.0,0.0,0.0,0.0,0.0,0.0,0.0,0.0,0.0,0.0,0.0,0.0,0.0,0.0,0.0,0.0,0.0,0.0,0.0,0.0,0.0,0.0,0.0,0.0,0.0,0.0,0.0,0.0,0.0,2.8295,0.0,0.0,0.0,0.0,0.0,0.0,0.0,0.0,0.0,0.0,0.0,0.0,0.0,0.0,0.0,0.0,0.0,0.0,0.0,0.0,0.0,0.0,0.0,0.0,0.0,0.0,0.0,0.0,0.0,0.0,0.0,0.0,0.0,0.0,0.0,0.0,0.0,0.0,0.0,0.0,3.475,3.2565,3.0782,2.9918,2.9897,2.981,2.9544,2.9897,2.9989,2.9776,3.0297,0.0,0.0,0.0,0.0,0.0,0.0,0.0,0.0,0.0,0.0,0.0,0.0,0.0,0.0,0.0,0.0,0.0,0.0,0.0,0.0,0.0,0.0,0.0,0.0,0.0,0.0,0.0,0.0,0.0,0.0,0.0,0.0,0.0,0.0,0.0,0.0,0.0,0.0,0.0,0.0,0.0,0.0,0.0,0.0,0.0,0.0,0.0,0.0,0.0,0.0,0.0,0.0,0.0,2.1595,2.2272,2.1886,2.3305,2.3559,2.3119,2.5326,2.639,2.6639,0.0,0.0,0.0,0.0,0.0,0.0,0.0,0.0,0.0,0.0,0.0,0.0,0.0,0.0,0.0,0.0,0.0,0.0,0.0,0.0,0.0,0.0,0.0,0.0,0.0,3.1086,3.2069,0.0,0.0,0.0,0.0,0.0,0.0,0.0,0.0,0.0,0.0,0.0,0.0,3.4462,3.2085,3.0149,2.9155,2.9677,2.9924,2.9544,3.0493,3.0502,2.9118,2.993,3.0269,0.0,0.0,0.0,0.0,0.0,0.0,0.0,0.0,0.0,0.0,0.0,0.0,0.0,0.0,0.0,0.0,0.0,0.0,0.0,0.0,0.0,0.0,0.0,0.0,0.0,0.0,0.0,0.0,0.0,0.0,0.0,0.0,2.4337,2.4492,0.0,0.0,0.0,0.0,0.0,0.0,0.0,0.0,0.0,0.0,0.0,0.0,0.0,2.1316,2.1346,2.0703,2.0566,2.0924,2.1292,2.1609,2.209,2.2841,2.3065,2.3012,2.3345,0.0,2.5312,2.5261,0.0,0.0,0.0,0.0,0.0,0.0,0.0,0.0,0.0,0.0,0.0,0.0,0.0,0.0,0.0,0.0,0.0,0.0,0.0,0.0,0.0,0.0,3.2949,3.2912,3.292,3.3099,0.0,3.4638,3.5636,3.6471,3.686,0.0,0.0,0.0,0.0,0.0,0.0,0.0,3.4606,3.2833,3.1316,3.012,2.956,2.9243,2.9167,2.9335,2.9335,2.9106,2.9118,2.9488,3.0195,3.0415,0.0,0.0,0.0,0.0,0.0,0.0,0.0,0.0,0.0,0.0,0.0,0.0,0.0,0.0,0.0,0.0,0.0,0.0,0.0,0.0,0.0,0.0,0.0,0.0,0.0,0.0,0.0,0.0,0.0,2.5405,2.4564,2.4409,2.379,2.3224,0.0,0.0,0.0,0.0,0.0,0.0,0.0,0.0,0.0,2.1721,2.1711,2.1558,2.1165,2.0934,2.0934,2.1165,2.1558,2.1939,2.2478,2.3075,2.3655,2.4154,2.4154,2.4612,2.5472,2.5573,2.7117,2.9617,0.0,0.0,0.0,0.0,3.2368,3.2146,3.2137,3.1182,0.0,0.0,0.0,0.0,0.0,0.0,0.0,0.0,0.0,0.0,0.0,0.0,0.0,3.3061,3.3752,3.4178,3.4216,3.462,3.4981,0.0,3.5751,3.6836,3.8083,0.0,0.0,0.0,0.0,3.6648,3.5238,3.3549,3.2172,3.1257,3.0582,3.0054,2.9793,2.9968,2.975,2.9013,2.8919,2.8965,2.9223,2.9838,3.0688,0.0,0.0,0.0,0.0,0.0,0.0,0.0,0.0,0.0,0.0,0.0,0.0,0.0,0.0,0.0,0.0,0.0,0.0,0.0,0.0,0.0,0.0,0.0,0.0,0.0,0.0,0.0,0.0,2.5767,2.4707,2.4204,2.3801,2.3446,0.0,0.0,0.0,0.0,0.0,0.0,2.2101,2.1949,2.1873,2.1873,2.1873,2.1634,2.1165,2.1308,2.1385,2.1624,2.2155,2.2617,2.3075,2.3519,2.4238,2.5004,2.5004,2.5417,2.6089,2.6451,2.7126,2.7998,2.9756,3.0852,3.1459,3.2078,3.2261,3.222,3.1916,3.1455,3.1066,3.1097,0.0,3.1726,3.272,0.0,0.0,0.0,0.0,3.3384,3.3623,3.2707,3.2063,3.3367,3.4331,3.4923,3.4904,3.5191,3.5195,0.0,3.4969,3.6121,3.7553,0.0,0.0,0.0,0.0,3.6488,3.551,3.3928,3.2629,3.1901,3.1157,3.0601,3.0208,3.0377,3.0123,2.9182,2.9042,2.8904,2.8685,2.9351,3.0029,3.0712,0.0,0.0,0.0,0.0,0.0,0.0,0.0,0.0,0.0,0.0,0.0,0.0,0.0,0.0,0.0,0.0,0.0,0.0,0.0,0.0,0.0,0.0,0.0,0.0,0.0,0.0,0.0,0.0,0.0,2.4261,2.3813,0.0,0.0,0.0,0.0,2.3519,2.315,2.2628,2.2101,2.2111,2.1863,2.1242,2.1242,2.1242,2.1165,2.1517,2.1983,2.2628,2.3043,2.357,2.4127,2.4127,2.4467,2.5004,2.5004,2.5697,2.6854,2.6854,2.7365,2.8271,2.9079,3.0571,3.2109,3.1013,3.1432,3.2338,3.1144,3.1029,3.1396,3.1617,3.2329,3.3189,3.3242,3.3411,0.0,0.0,3.3445,3.3524,3.4556,3.4734,3.4707,3.4803,3.4889,3.4889,3.4901,3.5949,3.6534,0.0,3.4733,3.4897,3.6238,0.0,3.6441,3.7524,3.6955,3.6064,3.4957,3.3694,3.256,3.1616,3.0631,3.0,2.9853,2.9837,2.9837,2.975,2.9589,2.947,2.9425,2.9243,2.9377,2.9929,3.0427,0.0,0.0,0.0,0.0,0.0,0.0,0.0,0.0,0.0,0.0,0.0,0.0,0.0,0.0,0.0,0.0,0.0,0.0,0.0,0.0,0.0,0.0,0.0,0.0,0.0,0.0,0.0,0.0,2.4957,2.4622,0.0,2.3677,2.3361,2.3128,2.3001,2.2521,2.2295,2.2478,2.2252,2.2176,2.2317,2.2392,2.2392,2.2392,2.2456,2.2681,2.2927,2.3287,2.3936,2.4743,2.4945,2.5697,2.6812,2.6812,2.7284,2.796,2.796,2.8078,2.8325,2.8688,2.9296,2.9983,3.0421,3.094,3.139,3.1921,3.2262,3.2545,3.2686,3.3102,3.3537,3.3561,3.36,3.3611,3.3632,3.3957,3.4462,3.5038,3.5053,3.4903,3.4901,3.4883,3.4891,3.4889,3.5514,3.6137,3.6243,3.607,3.6168,3.7031,3.6907,3.6981,3.7808,3.747,3.6932,3.622,3.4931,3.3813,3.3189,3.1746,3.0781,3.0716,3.0351,3.0097,3.0044,2.981,2.9677,2.9677,2.9897,3.0027,3.0113,3.0368,3.0891,0.0,0.0,0.0,0.0,0.0,0.0,0.0,0.0,0.0,0.0,0.0,0.0,0.0,0.0,0.0,0.0,0.0,0.0,0.0,0.0,0.0,0.0,0.0,0.0,0.0,0.0,2.5886,2.5182,2.4921,2.4574,2.4055,2.3728,2.3582,2.3446,2.2894,2.267,2.3001,2.2777,2.2777,2.3224,2.3224,2.3298,2.3372,2.3519,2.3604,2.3593,2.402,2.4527,2.5087,2.5569,2.6402,2.751,2.7709,2.8118,2.8587,2.8716,2.8702,2.856,2.8716,2.9022,2.9498,3.0495,3.1028,3.1435,3.2633,3.315,3.3309,3.3398,3.3607,3.3848,3.3848,3.3885,3.3905,3.4038,3.4431,3.4872,3.5195,3.5221,3.5228,3.5475,3.5583,3.5588,3.5547,3.5822,3.6291,3.7193,3.6905,3.6689,3.7195,3.7058,3.717,3.8018,3.781,3.7468,3.7132,3.5826,3.4727,3.4168,3.259,3.1545,3.1466,3.1027,3.0771,3.0804,3.0377,3.0166,3.0149,3.0393,3.0426,3.0258,3.0683,3.1266,3.1986,0.0,0.0,0.0,0.0,0.0,0.0,0.0,0.0,0.0,0.0,0.0,0.0,0.0,0.0,0.0,0.0,0.0,0.0,0.0,0.0,0.0,0.0,0.0,2.6233,2.6037,2.563,2.4933,2.479,2.479,2.479,2.449,2.4418,2.479,2.4418,2.4043,2.3677,2.3604,2.3604,2.3604,2.3604,2.3824,2.42,2.4574,2.479,2.4801,2.5111,2.5312,2.5382,2.5943,2.6564,2.7108,2.7643,2.8118,2.8651,2.8972,2.9162,2.9149,2.9162,2.9884,3.1014,3.1175,3.1751,3.2508,3.3081,3.345,3.3694,3.371,3.3899,3.4101,3.4101,3.4101,3.4184,3.4545,3.4625,3.4738,3.5182,3.5438,3.5852,3.6661,3.6922,3.6939,3.6951,3.6946,3.7161,3.8021,3.715,3.6377,3.6689,3.6631,3.6907,3.8054,3.7845,0.0,3.747,3.627,3.515,3.4458,3.3036,3.2074,3.2021,3.1823,3.1787,3.2003,3.1283,3.0851,3.0937,3.069,3.0477,3.0377,3.1325,3.2282,3.319,0.0,0.0,0.0,0.0,0.0,0.0,0.0,0.0,0.0,0.0,0.0,0.0,0.0,0.0,0.0,0.0,0.0,0.0,0.0,0.0,0.0,0.0,2.6508,2.6233,2.5886,2.5535,2.5182,2.5182,2.5052,2.479,2.4909,2.4969,2.479,2.4718,2.4574,2.4502,2.4189,2.4043,2.4043,2.4043,2.4116,2.42,2.4345,2.4345,2.4345,2.5158,2.5697,2.6102,2.6947,2.7643,2.8183,2.8573,2.9022,2.9449,2.9477,3.0101,3.1072,3.0254,3.0162,3.0629,3.1534,3.2351,3.3081,3.3087,3.3351,3.3745,3.3949,3.4151,3.4399,3.4399,3.4594,3.4835,3.493,3.5024,3.5182,3.54,3.5735,3.6139,3.6534,3.73,3.7945,3.788,3.7648,3.7514,3.7671,3.7536,3.7452,3.7809,3.7861,3.7998,3.8303,3.8252,0.0,3.6949,3.6049,3.5055,3.3935,3.2948,3.2332,3.2144,3.2074,3.2022,3.1986,3.1806,3.1696,3.1679,3.1623,3.1585,3.1531,3.1844,3.2366,0.0,0.0,0.0,0.0,0.0,0.0,0.0,0.0,0.0,0.0,0.0,0.0,0.0,0.0,0.0,0.0,0.0,0.0,0.0,0.0,0.0,0.0,2.7458,2.6837,2.6552,2.6013,2.5535,2.5312,2.5312,2.5241,2.5052,2.5182,2.5241,2.5052,2.4981,2.4921,2.479,2.4574,2.4418,2.4418,2.4418,2.4622,2.504,2.504,2.517,2.537,2.5918,2.6333,2.6663,2.7617,2.817,0.0,2.9099,2.931,2.9304,2.9562,3.0031,0.0,0.0,0.0,0.0,0.0,3.2911,3.345,3.3455,3.3713,3.405,3.4201,3.4497,3.4739,3.4739,3.4947,3.5198,3.5245,3.5337,3.54,3.552,3.5728,3.6036,3.637,3.7149,3.7828,3.798,3.7989,3.7989,3.79,3.7985,0.0,3.8336,3.8401,3.8382,3.8382,3.8415,3.8059,3.6982,3.6218,3.534,3.4207,3.3418,3.2921,3.2791,3.2745,0.0,0.0,0.0,3.2283,3.2266,3.2231,0.0,0.0,0.0,3.2813,3.3154,0.0,0.0,0.0,3.3947,3.4197,0.0,0.0,0.0,0.0,0.0,0.0,0.0,0.0,0.0,0.0,0.0,0.0,0.0,0.0,0.0,0.0,2.7604,2.7284,2.7002,2.6277,2.5734,2.5511,2.537,2.5312,2.5312,2.5312,2.5312,2.5312,2.5312,2.5182,2.4861,0.0,0.0,0.0,0.0,2.5336,2.6164,2.6233,2.6496,2.6973,2.7108,2.7162,2.7162,2.7959,2.8309,2.8387,2.9094,2.913,2.8714,2.9363,2.9373,2.9034,2.9856,3.1127,3.2493,3.2786,3.3271,3.3797,3.3984,0.0,0.0,3.4546,3.4804,3.5088,3.5105,3.5198,3.5354,3.5446,3.5492,3.552,3.5577,3.5667,3.581,3.6308,3.6764,3.7228,3.7703,3.8135,3.8433,3.8415,3.8478,3.8541,3.8541,3.8478,3.8465,3.8465,3.8436,3.8089,3.721,3.6449,3.5645,3.4783,0.0,0.0,3.3615,3.3509,3.3481,3.3605,3.3081,3.2766,3.2719,3.2651,3.2795,3.3147,3.3316,3.3422,3.3422,3.3481,3.352,3.3577,3.413,3.4431,0.0,0.0,0.0,0.0,0.0,0.0,0.0,0.0,0.0,0.0,0.0,0.0,0.0,0.0,0.0,2.9771,2.8911,2.7986,2.7217,2.7027,2.6812,2.6582,2.6,2.5535,2.5535,2.5382,2.5312,2.5312,2.5312,2.5241,2.5182,2.5182,2.5182,2.5182,2.5676,2.6025,2.6233,2.6633,2.6905,2.704,0.0,0.0,2.8078,2.8422,2.851,2.8544,2.8488,2.8598,2.8882,2.9234,2.9491,2.9741,3.0486,3.1493,3.2644,3.2495,3.3115,3.4,3.3885,3.4152,3.4546,3.4899,3.5058,3.5105,3.5245,3.5337,0.0,3.5492,3.552,3.5639,3.5728,3.6002,3.6308,3.6533,3.7208,3.7827,3.7792,3.8252,3.8609,3.851,3.8603,3.8743,3.8743,3.8713,3.8713,3.8713,3.818,3.7463,3.6673,3.5771,3.4917,3.4146,3.3899,3.3753,3.3753,3.3671,3.3633,3.3605,3.3502,3.3415,3.3415,3.3397,3.3426,3.3502,3.3549,3.3549,3.3549,3.3577,3.3698,3.3895,3.3935,3.4068,0.0,0.0,0.0,0.0,0.0,0.0,0.0,0.0,0.0,0.0,0.0,3.1543,0.0,0.0,3.0674,3.0072,2.9456,2.8903,2.8454,2.8065,2.7471,2.6552,2.6346,2.6139,2.5758,2.6333,2.6514,2.6114,2.5865,2.576,2.5951,2.5395,2.5314,2.5963,2.6139,2.6564,2.7229,2.7364,2.7643,2.8039,2.8495,2.8817,2.8931,2.8867,2.8828,2.8859,2.8598,2.8519,2.8621,2.8979,2.9385,2.9876,3.037,3.1055,3.1847,3.2176,3.2692,3.3209,3.3224,3.343,3.3713,3.3914,3.408,3.4236,3.4695,3.4886,3.5076,3.5554,3.5844,3.6028,3.6156,3.6498,3.6843,3.6921,3.7451,3.7982,3.7998,3.8415,3.8732,3.8713,3.8773,3.8722,3.8317,3.8272,3.8301,3.8243,3.7911,3.721,3.6012,3.5423,3.4833,3.4039,3.3921,3.3895,3.3895,3.3842,3.378,3.3698,3.3671,3.3615,3.3605,3.3615,3.3615,3.3605,3.3807,3.3868,3.3807,3.3935,3.4068,3.4189,3.4265,3.4398,0.0,0.0,0.0,0.0,0.0,0.0,0.0,0.0,3.079,3.0117,3.088,3.144,3.0739,3.1046,3.1131,3.0176,2.9931,2.9808,2.9685,2.9093,2.8117,2.6552,2.6867,2.6934,2.6427,2.7233,2.7551,2.6956,2.6295,2.6153,2.6637,2.5487,2.5419,2.6671,2.6463,2.6845,2.8061,2.7984,2.8285,2.9002,2.8969,2.9115,2.9411,2.8978,2.8827,2.8798,2.8621,2.8459,2.8432,2.8824,2.9303,2.9853,3.0103,3.0432,3.091,3.1857,3.2295,3.2455,3.268,3.2829,3.2907,3.295,3.3064,3.3338,3.3953,3.4252,3.4576,3.5275,3.5752,3.611,3.623,3.6503,3.6767,3.686,3.7183,3.7543,3.7725,3.8065,3.839,3.8401,3.843,3.8256,3.7609,3.7553,3.7581,3.7498,3.7368,3.6796,3.5475,3.5195,3.4825,3.4097,3.408,3.4105,3.4055,3.4055,3.3979,3.3842,3.3815,3.3788,3.3753,3.3807,3.3788,3.3788,3.4105,3.4203,3.4105,3.4307,3.4464,3.4508,3.4733,3.4831,3.4213,3.3439,3.2616,3.2109,3.1585,3.11,0.0,0.0,2.9603,2.9495,2.9559,2.9779,3.025,3.0804,3.1073,3.0955,3.0762,3.0447,2.987,2.9608,2.9156,2.8298,2.8103,2.8051,2.792,2.7429,2.711,2.6982,2.5884,2.5742,2.6878,2.5744,2.5682,2.7013,2.6841,2.6869,2.7139,2.808,2.8532,2.8657,2.8671,2.87,2.8672,2.8124,2.7885,2.7842,2.7817,2.8179,2.8857,2.9044,2.9422,2.9853,3.0103,3.0271,3.0494,3.1487,3.2254,3.2862,3.2961,3.2988,3.2988,3.3134,3.3177,3.3237,3.3448,3.3782,3.4162,3.4271,3.4585,3.4922,3.5048,3.5137,3.5208,3.54,3.5753,3.6059,3.6152,3.6457,3.6759,3.6786,3.6814,3.6859,3.6819,3.6879,3.6861,3.6747,3.6118,3.5599,3.5414,3.4822,3.4325,3.4099,3.4416,3.4548,3.4288,3.4486,3.4439,3.3998,3.4141,3.4237,3.4221,3.4221,3.4298,3.4398,3.4442,3.4464,3.4442,3.4467,3.4593,3.4851,3.487,3.4889,3.3766,3.3189,3.2681,3.1949,3.1579,3.1329,3.0918,3.0617,3.0248,2.9529,2.9685,2.995,3.0012,3.0425,3.0862,0.0,3.1073,3.0895,3.0568,3.0189,2.9765,2.9451,2.9035,2.8456,2.7913,2.7939,2.7819,2.7371,2.6571,2.6465,2.7277,2.6598,2.6218,2.6386,2.7103,2.8002,2.9101,2.9129,2.919,2.9167,2.8771,2.8608,2.8642,2.7989,2.7705,2.7713,2.8299,2.8841,2.9332,2.9661,2.9984,3.0326,3.0443,3.0568,3.0667,3.1041,3.14,3.175,3.1775,3.18,3.1858,3.19,3.2006,3.2212,3.2727,3.3191,3.3613,3.414,3.4693,3.5216,3.5367,3.558,3.5786,3.5927,3.6095,3.6229,3.6287,3.6445,3.6591,3.6652,3.6705,3.6582,3.6193,3.6124,3.6029,3.5558,3.5619,3.5525,3.5038,3.4779,3.4615,3.4588,3.4713,3.4773,3.4653,3.4733,3.4653,3.4483,3.4526,3.4529,3.4545,3.4545,3.4548,3.4632,3.4735,3.4774,3.4716,3.4888,3.5034,3.5143,3.5122,3.5138,3.3497,3.3087,3.2713,3.193,3.1671,3.1555,3.1308,3.119,3.0821,2.9935,3.0132,3.0339,2.9925,3.0213,3.0639,3.0854,3.0758,3.0643,3.06,3.0129,2.9835,2.9835,2.9245,2.855,2.7833,2.8197,2.8222,2.7669,2.6976,2.689,2.7649,2.6944,2.6721,2.7201,2.7476,2.8567,3.0603,3.0097,2.9872,2.9885,2.8654,2.8168,2.8274,2.791,2.7876,2.8176,2.898,2.9451,2.9793,3.0172,3.0485,3.0692,3.0733,3.0831,3.0912,3.0814,3.0855,3.0952,3.0952,3.1032,3.1055,3.1095,3.1196,3.1436,3.2149,3.2651,3.3124,3.39,3.4572,3.5115,3.5253,3.5522,3.5754,3.5808,3.5853,3.5861,3.5959,3.5985,3.5992,3.6118,3.6143,3.5962,3.5474,3.5431,3.5277,3.4827,3.5324,3.5515,3.4869,3.487,3.4962,3.5088,3.5035,3.4982,3.4982,3.5,3.4945,3.4812,3.4832,3.4832,3.4793,3.4793,3.4813,3.487,3.4997,3.5049,3.5015,3.5219,3.53,3.5308,3.53,3.5315,3.3947,3.34,3.2809,3.2468,3.2073,3.1726,3.1555,3.1157,3.0747,3.0584,3.062,3.0539,3.0004,3.0339,3.0531,2.9909,2.9678,2.9486,2.9391,2.9212,2.9127,2.9127,2.8567,2.8115,0.0,2.8008,2.7831,2.7697,2.6603,2.6523,2.7924,2.6444,2.7045,3.0332,2.7927,2.7838,3.0568,3.0558,3.0587,3.0558,2.8059,2.7,2.7277,2.7673,2.8352,2.918,2.9451,2.9821,3.0189,3.0568,3.0692,3.0692,3.0831,3.0952,3.0975,3.0975,3.0975,3.1015,3.1151,3.119,3.119,3.1274,3.1295,3.1411,3.1858,3.2352,3.2802,3.3238,3.3633,3.3968,3.4046,3.4072,3.4097,3.4148,3.4173,3.4198,3.4344,3.4367,3.4391,3.4461,3.4461,3.4483,3.4532,3.4708,3.4831,3.4889,3.5203,3.5311,3.5015,3.498,3.5152,3.5534,3.534,3.52,3.52,3.5364,3.5324,3.4908,3.5072,3.5157,3.5088,3.5088,3.5155,3.5266,3.53,3.5281,3.53,3.53,3.53,3.53,3.53,3.5315,3.4093,3.3515,3.2916,3.2598,3.2248,3.1965,3.1802,3.1617,3.1334,3.0874,3.1175,3.1462,3.132,3.1149,3.1087,3.1182,3.0448,2.9833,2.978,2.9282,2.8891,2.8891,2.8256,0.0,0.0,0.0,0.0,2.7348,2.6852,2.6697,2.7187,2.8266,2.9406,3.0528,2.9693,2.9693,3.0616,3.0585,2.9763,2.8042,2.7559,2.755,2.7976,2.9117,2.9594,2.9496,3.0097,3.0426,3.0568,3.0733,3.0871,3.0895,3.0935,3.1015,3.1151,3.1196,3.1196,3.1196,3.1235,3.1274,3.1274,3.1423,3.1483,3.1562,3.1985,3.2468,3.2921,3.3255,3.3643,3.3972,3.4049,3.4074,3.4099,3.4197,3.4221,3.4245,3.434,3.4381,3.4404,3.445,3.4473,3.4539,3.4732,3.4812,3.4944,3.5181,3.5336,3.5391,3.5391,3.5391,3.5457,3.5591,3.5522,3.5463,3.5463,3.5522,3.5495,3.5311,3.5374,3.5393,3.5369,3.5369,3.5379,3.543,3.543,3.5435,3.5427,3.5482,3.5449,3.5364,3.5457,3.5488,3.4171,3.3597,3.2996,3.2773,3.2486,3.2214,3.2073,3.1948,3.1783,3.13,3.1557,3.1873,3.1962,3.1313,3.1007,3.1785,3.0857,2.9961,2.9925,2.949,2.8987,2.8571,2.7996,2.764,0.0,0.0,0.0,2.7233,2.7049,2.6899,2.6808,2.8462,2.9841,3.0866,3.0921,3.0936,3.0938,2.9974,2.8719,2.7097,2.7461,2.7735,2.8088,2.9561,3.0154,3.0064,3.0551,3.0773,3.0773,3.0912,3.0935,3.1015,3.1095,3.1173,3.1252,3.1329,3.1351,3.1351,3.1351,3.1351,3.1406,3.1483,3.1671,3.1894,3.2317,3.2763,3.3148,3.3542,3.385,3.4049,3.4124,3.4148,3.4197,3.4269,3.4316,3.434,3.4427,3.445,3.4473,3.4517,3.4539,3.4607,3.4851,3.5034,3.5197,3.547,3.5507,3.5538,3.5612,3.5643,3.5631,3.5628,3.5596,3.5596,3.5596,3.5604,3.5591,3.5547,3.5547,3.554,3.5534,3.5534,3.555,3.556,3.556,3.5568,3.5566,3.5609,3.5599,3.5504,3.5592,3.565,3.4242,3.3715,3.3111,3.3039,3.2781,3.2489,3.2352,3.2197,3.2073,3.1873,3.1871,3.1891,3.1948,3.0898,3.0407,3.173,3.0815,2.9862,2.9765,2.9717,2.9304,0.0,0.0,0.0,0.0,0.0,0.0,2.7284,0.0,2.7085,2.6862,2.709,2.8525,3.1424,3.1347,3.1317,3.1308,2.8857,2.7609,2.7578,2.7584,2.7624,2.7778,2.9215,3.0201,3.0804,3.0895,3.0912,3.0912,3.0975,3.1015,3.1055,3.1235,3.1295,3.1351,3.1462,3.1517,3.1517,3.1517,3.1517,3.15,3.1617,3.1894,3.23,3.2777,3.3166,3.3504,3.3979,3.4099,3.4124,3.4197,3.4245,3.4293,3.4316,3.4363,3.4409,3.4495,3.4517,3.4517,3.4583,3.4626,3.4711,3.4888,3.5254,3.5543,3.5669,3.5708,3.5708,3.5695,3.5704,3.5695,3.5695,3.5654,3.5604,3.5604,3.5601,3.5608,3.5616,3.5616,3.5615,3.5611,3.5611,3.5646,3.5703,3.5703,3.5703,3.5703,3.571,3.571,3.5703,3.571,3.5703,3.4713,3.4223,3.3661,3.3561,3.3266,3.2925,3.2588,3.2456,3.2318,3.2144,3.2489,3.2812,3.2792,3.189,3.1242,3.1517,3.0112,0.0,2.8917,2.8724,0.0,2.8217,0.0,2.7955,2.7955,2.7905,0.0,0.0,2.7503,2.735,2.7365,2.7267,2.8506,3.1411,2.9624,2.8611,2.8598,2.7951,2.7606,2.7613,2.7596,2.8379,2.9783,3.051,3.09,3.0945,3.0952,3.0975,3.0975,3.1112,3.1173,3.1218,3.1295,3.1351,3.1462,3.1559,3.1559,3.1596,3.1728,3.1691,3.1654,3.2056,3.2248,3.2468,3.3148,3.3439,3.3625,3.4005,3.4148,3.4197,3.4245,3.4293,3.4316,3.4427,3.4473,3.4495,3.4561,3.4561,3.4626,3.4791,3.503,3.5234,3.5325,3.5512,3.5659,3.5679,3.5708,3.5699,3.5708,3.5707,3.5718,3.5768,3.5702,3.569,3.573,3.5749,3.5755,3.5745,3.5745,3.5725,3.5675,3.5675,3.5709,3.5762,3.5762,3.5762,3.5762,3.5774,3.5749,3.571,3.5802,3.5856,3.4753,3.426,3.3725,3.3698,3.3419,3.3081,3.288,3.2737,3.2623,3.2387,3.2634,3.2948,3.3115,3.2015,3.134,0.0,0.0,0.0,2.9486,2.928,2.8979,0.0,2.8201,0.0,2.8103,2.8005,2.802,0.0,2.7755,2.7575,2.758,2.7447,2.8144,2.9735,2.8353,2.7624,2.76,2.7601,2.8139,2.9186,2.9185,2.9767,3.0823,3.1083,3.1173,3.1066,0.0,3.1117,3.1157,3.1269,3.1346,3.1406,3.1428,3.1466,3.1559,3.1691,3.1728,3.1802,3.2109,3.2144,3.2073,3.2369,3.2684,3.2965,3.3411,3.368,3.3858,3.408,3.4197,3.4245,3.4293,3.434,3.4404,3.4495,3.4517,3.4583,3.471,3.473,3.4792,3.4981,3.5234,3.5456,3.55,3.5649,3.5736,3.5736,3.5771,3.5795,3.5795,3.5736,3.5726,3.5794,3.5775,3.5756,3.5797,3.5797,3.5807,3.5811,3.5805,3.5805,3.5783,3.5783,3.5817,3.5884,3.5884,3.5884,3.5884,3.5887,3.5868,3.5838,3.5918,3.5942,3.4572,3.4117,3.3615,3.3753,3.3455,3.3178,3.3117,3.2993,3.2852,3.2557,3.2523,3.2633,3.2998,3.1691,3.1132,3.2848,0.0,3.0567,3.0491,3.0336,2.9816,2.8731,2.8381,2.8235,2.8235,2.8103,2.8054,2.8152,2.8054,2.7925,2.7784,2.764,2.7625,2.7694,2.7941,2.7974,2.772,2.7953,2.915,3.1181,3.1219,3.1191,3.1216,3.1227,3.1235,3.123,0.0,0.0,3.1351,3.1462,3.1517,3.1555,3.1596,3.1654,3.1691,3.1875,3.1948,3.2002,3.2454,3.2654,3.2687,3.2719,3.3093,3.3542,3.3652,3.3884,3.4148,3.4197,3.4269,3.4316,3.4316,3.4409,3.4495,3.4517,3.4583,3.4689,3.4851,3.4945,3.5034,3.5212,3.5393,3.5546,3.5538,3.5689,3.5799,3.5815,3.5853,3.5894,3.5909,3.5806,3.5753,3.5814,3.5807,3.5816,3.5825,3.5838,3.5834,3.5834,3.5825,3.5853,3.5901,3.5903,3.593,3.5996,3.5996,3.5996,3.5996,3.5996,3.5996,3.5996,3.5996,3.5996,3.4713,3.4416,3.4148,3.4124,3.3842,3.3502,3.3178,3.3086,3.2961,3.2639,3.2573,3.2541,3.2389,3.1817,3.1462,3.1635,3.0957,3.0287,2.9855,2.9569,2.9216,0.0,2.8444,2.8348,2.8348,2.8348,0.0,0.0,0.0,2.892,2.859,2.7969,2.7782,2.8246,2.9753,2.9816,2.8304,2.9777,3.0803,3.1205,3.1213,3.1196,3.123,3.1375,3.1453,3.144,3.1462,0.0,3.1462,3.1479,3.1593,3.1763,3.1763,3.1856,3.2001,3.2037,3.2073,3.2126,3.2555,3.2844,3.3124,3.3354,3.3496,3.3652,3.3986,3.4173,3.4269,3.4269,3.4316,3.4404,3.445,3.4495,3.4517,3.4561,3.473,3.4851,3.4889,3.5162,3.5412,3.5444,3.5618,3.5747,3.5745,3.5782,3.5823,3.5866,3.5883,3.5899,3.5893,3.5871,3.5861,3.5876,3.5873,3.5915,3.5956,3.5974,3.5975,3.5976,3.5976,3.5976,3.5976,3.5976,3.5995,3.5995,3.5995,3.5996,3.5996,3.5996,3.5996,3.5996,3.5996,3.5996,3.4416,3.4203,3.3972,3.3842,3.3726,3.3549,3.3316,3.3256,3.3165,3.2852,3.2737,3.2639,3.2371,3.1912,3.1582,3.147,3.0931,3.0385,3.0166,2.9908,2.9689,2.9528,2.9287,2.9196,0.0,2.9241,2.9271,0.0,0.0,2.9923,2.9555,2.947,2.9383,2.9147,3.0583,3.0908,3.0021,3.0908,3.1348,3.1358,3.137,3.1368,3.1372,3.1475,3.1547,3.1551,3.1631,0.0,3.1651,3.1763,3.1873,3.1982,3.1982,3.2018,3.2108,3.2335,3.242,3.247,3.3063,3.3379,3.3578,3.3884,3.3943,3.4012,3.4179,3.4293,3.434,3.434,3.4386,3.4473,3.4495,3.4586,3.473,3.4751,3.4962,3.5178,3.5189,3.5438,3.5658,3.5669,3.5718,3.5818,3.5852,3.584,3.5866,3.5899,3.5907,3.5908,3.5898,3.5937,3.5956,3.5951,3.5918,3.5937,3.5982,3.6003,3.6005,3.6007,3.601,3.5991,3.5991,3.5991,3.5992,3.5993,3.5993,3.5994,3.5996,3.5996,3.5996,3.5996,3.5996,3.5996,3.4148,3.3921,3.3698,3.3643,3.3577,3.3491,3.3422,3.3422,3.3334,3.3011,3.2916,3.282,3.2507,3.2055,3.1785,0.0,3.13,3.0908,3.0788,3.0584,3.0418,0.0,3.0107,0.0,3.0074,2.9989,0.0,0.0,0.0,0.0,3.0445,3.0974,3.0909,3.0215,3.1064,3.1533,3.1577,3.1533,3.154,3.1568,3.1568,3.1606,3.1644,3.1623,3.1661,3.1737,3.178,0.0,0.0,3.2037,3.2108,3.2108,3.2214,3.2232,3.2301,3.2702,3.283,3.2908,3.3578,3.3815,3.3868,3.4221,3.4316,3.4293,3.4316,3.4381,3.4427,3.4427,3.4473,3.4539,3.4564,3.4752,3.4926,3.4999,3.5239,3.5444,3.5543,3.5698,3.5812,3.5812,3.5801,3.5823,3.5897,3.5908,3.5895,3.5901,3.5896,3.5917,3.5912,3.5974,3.6001,3.6007,3.5948,3.5932,3.5994,3.5999,3.6001,3.6001,3.6005,3.6007,3.6007,3.6007,3.6009,3.601,3.601,3.5992,3.5994,3.5994,3.5995,3.5996,3.5996,3.5996,3.4221,3.3947,3.3753,3.3998,3.3834,3.3577,3.3509,3.3509,3.3404,3.3147,3.2961,3.2834,3.2606,3.2422,3.2284,0.0,0.0,3.1875,3.1317,3.1089,3.0851,3.0377,0.0,0.0,3.0117,3.0074,0.0,0.0,0.0,0.0,3.1274,3.1325,3.1375,3.1346,3.1506,3.1664,3.1773,3.1632,3.1654,3.176,3.176,3.1874,3.2044,3.1863,3.1886,3.216,3.1965,0.0,0.0,3.2073,3.2144,3.2214,3.2521,3.2684,3.2781,3.3124,3.3243,3.3321,3.3743,3.3895,3.3947,3.4269,3.434,3.4316,3.4363,3.445,3.4495,3.4495,3.4539,3.4626,3.4831,3.4889,3.4996,3.5359,3.5476,3.5546,3.5728,3.5793,3.5791,3.5791,3.5791,3.5823,3.5897,3.5908,3.5908,3.5898,3.5898,3.5912,3.5978,3.6009,3.6005,3.6009,3.6001,3.5988,3.5991,3.5994,3.5994,3.5994,3.5994,3.5994,3.5994,3.5994,3.5999,3.6005,3.6005,3.6007,3.5992,3.5992,3.5992,3.5992,3.5994,3.5995,3.3998,3.3868,3.378,3.3842,3.3726,3.3577,3.3538,3.3481,3.3393,3.3147,3.3055,3.293,3.2672,3.2557,3.2473,3.2336,0.0,0.0,3.1875,3.1748,3.1582,3.13,3.1184,0.0,0.0,0.0,0.0,0.0,0.0,0.0,3.1839,3.1585,3.1487,3.1559,3.1658,3.1768,3.1869,3.1871,3.1871,3.1869,3.196,3.1996,3.1979,3.1998,3.2053,3.2143,3.2108,0.0,0.0,3.2232,3.2124,3.1848,3.1991,3.1875,3.1693,3.2047,3.2198,3.225,3.263,3.2767,3.279,3.2966,3.3037,3.3269,3.4177,3.4586,3.473,3.4583,3.4668,3.4792,3.4889,3.5081,3.5325,3.5607,3.5679,3.5699,3.5773,3.581,3.5815,3.584,3.5872,3.5864,3.5896,3.5903,3.5914,3.5947,3.596,3.5952,3.5942,3.5934,3.5934,3.5934,3.5986,3.5994,3.5997,3.5997,3.6001,3.6004,3.6004,3.6007,3.5991,3.5991,3.5994,3.5996,3.5996,3.6001,3.6007,3.6007,3.6009,3.5991,3.5992,3.5993,3.3788,3.3807,3.3807,3.3753,3.3671,3.3587,3.3549,3.3481,3.3393,3.3226,3.3147,3.3024,3.2802,3.2672,3.2573,3.2473,0.0,3.2267,3.2214,3.2144,3.2073,3.1984,0.0,3.191,0.0,0.0,0.0,0.0,0.0,0.0,3.2073,3.1837,3.1688,3.1746,3.1819,3.1929,3.1948,3.2073,3.2073,3.1948,3.2073,3.1951,3.1654,3.1725,3.1655,3.1515,0.0,0.0,0.0,3.1784,3.1657,3.1428,3.1546,3.1355,3.1133,3.1452,3.1607,3.1695,3.1952,3.2058,3.2102,3.2181,3.2279,3.2578,3.3638,3.4245,3.4566,3.4374,3.4699,3.5066,3.5078,3.5339,3.5618,3.5775,3.5793,3.5801,3.5823,3.583,3.584,3.5885,3.5895,3.5896,3.5898,3.5898,3.5915,3.5985,3.5974,3.5947,3.5904,3.5904,3.5904,3.5904,3.5929,3.5977,3.6005,3.6005,3.6009,3.5994,3.5997,3.5997,3.6004,3.6004,3.6007,3.6007,3.6007,3.5994,3.6001,3.6001,3.6003,3.6007,3.6009,3.601,3.3734,3.3807,3.3807,3.3807,3.3753,3.3671,3.3587,3.3549,3.3481,3.3393,3.3226,3.3086,3.3086,3.2816,3.2606,3.2606,3.2507,0.0,3.2214,3.2179,3.2179,0.0,0.0,3.2126,3.2126,0.0,0.0,0.0,0.0,0.0,3.2108,3.2126,3.2073,3.2073,3.2126,3.2126,3.2108,3.2108,3.2108,3.2108,3.2108,3.176,3.1113,3.0976,3.0609,0.0,0.0,0.0,0.0,3.0516,3.0728,3.1037,3.1372,3.1513,3.1518,3.1868,3.1995,3.1995,3.2077,3.2182,3.2298,3.2372,3.2492,3.26,3.2626,3.3223,3.3881,3.3762,3.4576,3.5476,3.5492,3.5649,3.5803,3.581,3.5791,3.5823,3.5878,3.5908,3.5904,3.5907,3.5893,3.5903,3.5898,3.5898,3.5912,3.5994,3.5938,3.5904,3.5894,3.5908,3.5908,3.5908,3.5908,3.5919,3.5981,3.6005,3.6005,3.6005,3.6005,3.6005,3.6005,3.6005,3.6009,3.6001,3.6001,3.6004,3.5994,3.5994,3.5994,3.5994,3.6001,3.6007,3.3734,3.3807,3.3807,3.3753,3.3671,3.3587,3.3549,3.3481,3.3422,3.3393,3.3364,3.3256,3.3117,3.3024,3.293,3.2802,3.2755,3.269,0.0,0.0,0.0,3.2179,3.2108,3.2108,0.0,0.0,0.0,0.0,0.0,0.0,3.2438,3.2371,3.2267,3.2179,3.2179,3.2232,3.2319,3.2319,3.2022,3.1428,3.1462,3.1109,3.0419,3.0486,0.0,0.0,0.0,0.0,0.0,3.0725,3.0613,3.0527,3.0636,3.0487,3.0215,3.0316,3.0394,3.0433,3.0564,3.0615,3.0684,3.0841,3.0986,3.1092,3.0988,3.2031,3.3204,3.3166,3.3467,3.3917,3.4469,3.4768,3.5069,3.573,3.5879,3.5878,3.5908,3.59,3.589,3.5896,3.5898,3.5918,3.596,3.5971,3.5962,3.5938,3.5909,3.5904,3.5889,3.5908,3.5908,3.5908,3.5908,3.5914,3.5919,3.5924,3.5948,3.6005,3.5958,3.5947,3.6004,3.5997,3.6001,3.6007,3.6007,3.601,3.5991,3.5991,3.5991,3.5991,3.5996,3.5999,3.3597,3.3726,3.3726,3.3671,3.3587,3.3549,3.3491,3.3452,3.3393,3.3393,3.3393,3.3364,3.3226,3.3147,3.3055,3.3011,3.2948,3.2852,0.0,0.0,0.0,3.2301,0.0,0.0,0.0,0.0,0.0,0.0,0.0,0.0,3.182,3.1724,3.1626,3.1542,3.179,3.1982,3.2117,3.1817,3.1396,3.0871,3.0935,3.0525,2.9809,2.9875,0.0,0.0,0.0,0.0,0.0,3.0199,3.0155,3.0052,3.0052,2.9899,2.9645,2.9701,2.9737,2.9808,2.9953,3.006,3.0114,3.0228,3.0378,3.0501,3.0411,3.1345,3.2543,3.2907,3.3064,3.3229,3.3722,3.3946,3.4186,3.4774,3.5173,3.5405,3.5417,3.5677,3.5916,3.593,3.5945,3.596,3.599,3.5981,3.5958,3.5909,3.5904,3.5899,3.5889,3.5908,3.5908,3.5908,3.5908,3.5908,3.5908,3.5908,3.5919,3.5953,3.5924,3.5914,3.5951,3.5966,3.597,3.5958,3.5981,3.6004,3.6007,3.5991,3.5991,3.5991,3.5991,3.5991,0.0,3.3605,3.3605,3.3605,3.3549,3.3509,3.3491,3.3452,0.0,3.3393,3.3393,3.3393,3.3393,3.3256,3.3117,3.3117,3.3011,3.2884,0.0,3.2639,0.0,0.0,3.2422,0.0,0.0,0.0,0.0,0.0,0.0,0.0,3.0553,3.0517,3.0517,3.0547,3.1018,3.1359,3.1622,3.0891,3.0451,3.0398,3.0398,3.0,2.9272,2.9272,2.8954,0.0,0.0,0.0,0.0,2.9209,2.9412,2.9701,2.972,2.9701,2.9738,2.9874,2.9921,2.9953,3.0142,3.0304,3.0409,3.0422,3.0558,3.07,3.07,3.1127,3.1816,3.2751,3.3064,3.3121,3.3204,3.3239,3.3215,3.3233,3.3886,3.4519,3.4511,3.5193,3.5833,3.5896,3.5947,3.5981,3.5981,3.5934,3.5909,3.5909,3.5899,3.5908,3.5908,3.5908,3.5908,3.5908,3.5908,3.5908,3.5908,3.5908,3.5908,3.5889,3.5908,3.5889,3.5914,3.5894,3.5899,3.5909,3.5962,3.6009,3.6001,3.6007,3.5991,3.5991,3.5991,3.5991,3.3238,0.0,3.3577,3.352,3.3491,3.3481,0.0,3.3393,3.3393,3.3393,3.3393,3.3393,3.3393,3.3364,3.3334,3.3334,3.3304,3.3196,3.3024,0.0,0.0,3.2787,3.2787,0.0,0.0,0.0,0.0,0.0,0.0,3.0725,3.0657,3.0558,3.0635,3.0874,3.0338,3.0266,3.0784,3.0576,3.0196,2.9572,2.9572,2.9331,2.884,2.884,2.8889,0.0,0.0,0.0,2.9353,2.9353,2.9472,2.972,2.9774,2.9823,2.9867,3.0,3.0104,3.0163,3.0302,3.037,3.0432,3.0576,3.0653,3.0703,3.0703,3.0812,3.0971,3.1227,3.1307,3.1504,3.2396,3.2502,3.2436,3.2635,3.3203,3.3671,3.3671,3.4365,3.4983,3.5002,3.5505,3.5909,3.5919,3.5914,3.5894,3.5894,3.5894,3.5908,3.5908,3.5908,3.5908,3.5908,3.5908,3.5908,3.5908,3.5908,3.5894,3.5904,3.5894,3.5919,3.5977,3.5929,3.5909,3.5981,3.5986,3.6009,3.6001,3.6001,3.6007,3.5991,3.5991,3.5991,3.3196,3.3452,3.3509,3.3452,3.3452,3.3452,3.3411,3.3393,3.3422,3.352,3.3452,3.3422,3.352,3.3452,3.3393,3.3393,3.3393,0.0,0.0,0.0,3.2349,3.2349,3.2028,0.0,0.0,0.0,0.0,0.0,0.0,3.006,2.9764,2.9683,2.9737,2.995,2.9455,2.9512,3.0176,2.9899,2.9557,2.9106,2.9192,2.9107,2.8874,2.8874,2.9012,0.0,0.0,0.0,2.9589,2.9589,2.97,2.9893,2.9924,2.9981,3.0061,3.019,3.0253,3.0325,3.0472,3.0539,3.0565,3.0661,3.0703,3.0697,3.071,3.0697,3.0697,3.0697,3.0721,3.0895,3.1499,3.1591,3.1542,3.1693,3.1962,3.2209,3.2202,3.3208,3.4183,3.4423,3.5242,3.5763,3.5363,3.5636,3.5908,3.5908,3.5908,3.5878,3.582,3.582,3.5787,3.5721,3.5749,3.5749,3.5749,3.5749,3.5806,3.5894,3.5846,3.5846,3.5948,3.5924,3.5924,3.5958,3.5958,3.5962,3.5994,3.5994,3.5997,3.6007,3.6007,3.6007,3.3226,3.3393,3.3393,3.3393,3.3393,3.3393,3.3393,3.3393,3.3452,3.3643,3.3549,3.3509,3.3671,3.3549,3.3452,3.3422,0.0,0.0,3.3003,3.2289,3.175,3.1594,0.0,0.0,0.0,0.0,0.0,0.0,0.0,2.9344,2.8674,2.8662,2.8694,2.8767,2.8797,2.9101,2.9726,2.9192,2.8957,2.898,2.9082,2.9151,2.9193,2.9193,2.9314,2.9492,0.0,0.0,2.9825,2.9842,2.994,3.0109,3.0118,3.0182,3.0247,3.0381,3.0433,3.0482,3.0637,3.0695,3.0697,3.0704,3.0711,3.0704,3.0701,3.0724,3.0728,3.0728,3.0752,3.0793,3.0781,3.0798,3.0793,3.0804,3.0794,3.0806,3.0793,3.1967,3.3137,3.3595,3.4681,3.5377,3.489,3.5385,3.5866,3.5859,3.5859,3.5787,3.5669,3.5659,3.5611,3.5516,3.5546,3.5588,3.5607,3.5577,3.565,3.5833,3.5757,3.5729,3.5859,3.584,3.5846,3.5839,3.5839,3.5894,3.5973,3.5973,3.5981,3.5997,3.5997,3.6001,3.3286,3.3393,3.3393,3.3393,3.3393,3.3393,3.3393,3.3393,3.3452,3.3643,3.3671,3.3671,3.3698,3.3671,3.3633,0.0,0.0,3.3216,0.0,0.0,3.1859,0.0,0.0,0.0,0.0,0.0,0.0,0.0,0.0,2.8889,2.8779,2.892,2.9038,2.9038,2.9214,2.9353,2.9465,2.9203,2.9151,2.9338,2.9339,2.9437,2.9608,2.9608,2.9681,2.9822,0.0,2.9839,2.9888,3.0019,3.0079,3.0104,3.0228,3.0298,3.0384,3.052,3.0602,3.0668,3.0683,3.069,3.0704,3.0695,3.0691,3.0701,3.0774,3.0775,3.0781,3.0781,3.0781,3.0781,3.0721,3.0769,3.0804,3.081,3.0802,3.0798,3.0804,3.1018,3.1213,3.131,3.2655,3.4185,3.5475,3.5732,3.5708,3.564,3.56,3.553,3.5465,3.5454,3.5465,3.5504,3.5504,3.5546,3.5607,3.5495,3.5495,3.563,3.562,3.562,3.5659,3.5659,3.564,3.565,3.565,3.5706,3.584,3.584,3.5891,3.6005,3.6005,3.6009,3.328,3.3404,3.3422,3.352,3.3481,3.3393,3.3393,3.3393,3.3481,3.3807,3.378,3.3726,3.3842,0.0,3.3497,3.2928,0.0,3.2611,3.1765,3.1274,0.0,0.0,0.0,0.0,0.0,0.0,0.0,0.0,0.0,0.0,2.8962,2.906,2.9172,2.9318,2.9418,2.9533,2.9662,2.9589,2.9551,2.957,2.9644,2.9734,2.9805,2.9805,2.9839,2.9905,0.0,3.003,3.0056,3.0182,3.0273,3.0375,3.0451,3.0501,3.0571,3.0626,3.0668,3.0697,3.0697,3.0689,3.0711,3.0735,3.0732,3.0701,3.0779,3.08,3.0797,3.0806,3.0801,3.0784,3.076,3.0785,3.0806,3.0793,3.0789,3.0804,3.0806,3.0794,3.0808,3.0807,3.1449,3.22,3.2867,3.3703,3.436,3.4543,3.5044,3.5218,3.4712,3.5039,3.5334,3.534,3.5336,3.535,3.5364,3.5326,3.5355,3.5483,3.5554,3.5607,3.5607,3.5607,3.5607,3.5607,3.5607,3.562,3.5679,3.5679,3.5715,3.5772,3.5772,3.582,3.3273,3.3426,3.352,3.3726,3.3633,3.3452,3.3393,3.3422,3.3549,3.3868,0.0,0.0,0.0,3.3747,0.0,3.2538,3.2256,3.1855,3.1034,0.0,0.0,0.0,0.0,0.0,0.0,0.0,0.0,0.0,0.0,0.0,2.9212,2.9256,2.9378,2.9588,2.9643,2.9767,2.9972,2.9972,2.9921,2.9822,2.9921,2.9972,2.9972,2.9984,2.9981,3.0015,3.0133,3.0196,3.026,3.0337,3.0452,3.0604,3.0613,3.0661,3.0704,3.0704,3.0717,3.0722,3.0726,3.0708,3.0707,3.0772,3.0779,3.0722,3.0775,3.081,3.0806,3.0801,3.079,3.081,3.0802,3.0798,3.0793,3.0808,3.0803,3.0806,3.08,3.0727,3.0665,3.0655,3.0646,3.0607,3.0462,3.1551,3.2513,3.2783,3.3858,3.4462,3.3921,3.4668,3.5155,3.4912,3.5081,3.5193,3.5209,3.5193,3.5223,3.534,3.5445,3.5495,3.5495,3.5495,3.5495,3.5495,3.5495,3.5519,3.5543,3.5543,3.5577,3.56,3.56,3.566,3.3332,3.3541,3.3726,3.3921,3.3834,3.3633,3.3452,3.3549,3.3671,3.3726,0.0,0.0,0.0,3.3512,3.2921,3.2791,3.1997,3.1075,0.0,0.0,0.0,0.0,0.0,0.0,0.0,0.0,0.0,0.0,0.0,0.0,2.9551,2.9734,2.9855,2.9872,3.0049,3.0157,3.0171,3.0171,3.0171,3.0157,3.0171,3.0171,3.0171,3.0241,3.026,3.0292,3.0348,3.0381,3.0392,3.054,3.0595,3.0604,3.0668,3.0711,3.0697,3.0697,3.074,3.0788,3.0788,3.0745,3.0719,3.0781,3.0798,3.0795,3.0801,3.0806,3.0806,3.0808,3.0804,3.0808,3.0798,3.0793,3.0808,3.0795,3.0801,3.08,3.0808,3.051,3.023,3.024,3.0237,3.0225,3.0232,3.033,3.0371,3.0205,3.166,3.2947,3.3391,3.4418,3.4835,3.4075,3.4723,3.5198,3.5209,3.5126,3.5147,3.5198,3.5209,3.5223,3.5223,3.5223,3.5223,3.5223,3.5223,3.5281,3.5418,3.5418,3.5483,3.5588,3.5588,3.5618,3.3419,3.3578,3.378,3.4099,3.4049,3.3815,3.3615,3.3661,3.3753,3.3972,3.3868,0.0,0.0,0.0,3.2113,3.157,3.1213,3.0689,0.0,0.0,0.0,0.0,0.0,0.0,0.0,0.0,0.0,0.0,0.0,0.0,2.9801,2.9867,2.9981,3.0138,3.018,3.0226,3.0253,3.0304,3.0321,3.0321,3.0279,3.0273,3.0254,3.0333,3.0359,3.0359,3.0482,3.052,3.052,3.0618,3.0661,3.0661,3.0691,3.0709,3.0701,3.075,3.0751,3.0732,3.0792,3.078,3.0779,3.0799,3.0804,3.0798,3.0798,3.0808,3.0808,3.0804,3.0798,3.08,3.0799,3.0803,3.0801,3.0794,3.0614,3.0432,3.0422,3.0312,3.0194,3.0201,3.0209,3.0209,3.0196,3.0109,3.0037,3.0083,3.0665,3.1143,3.1274,3.2281,3.302,3.3089,3.3832,3.4556,3.5088,3.511,3.5092,3.5147,3.5181,3.5179,3.5145,3.5176,3.5193,3.5198,3.5193,3.5223,3.5285,3.5285,3.5296,3.5355,3.5355,3.5411,3.34,3.3634,3.3842,3.4148,3.4148,3.4049,3.3895,3.3834,3.3842,3.4055,3.3883,3.351,3.2873,0.0,0.0,0.0,3.0603,0.0,0.0,0.0,0.0,0.0,0.0,0.0,0.0,0.0,0.0,0.0,0.0,0.0,0.0,3.0022,3.0128,3.0336,3.0292,3.0297,3.0356,3.0423,3.0434,3.0434,3.0404,3.0383,3.037,3.0443,3.0452,3.0481,3.0607,3.0668,3.0668,3.0711,3.0724,3.073,3.0725,3.0739,3.0742,3.0781,3.0771,3.0742,3.0781,3.0793,3.0791,3.0806,3.0808,3.0799,3.0799,3.0769,3.0759,3.0798,3.0788,3.0766,3.0639,3.069,3.077,3.064,3.0404,3.0199,3.0201,3.0203,3.0196,3.0213,3.0204,3.0204,3.019,3.0085,3.0037,3.017,3.0205,3.014,2.9984,3.0636,3.1507,3.2485,3.3058,3.3743,3.4617,3.4675,3.4791,3.5056,3.5092,3.5129,3.5129,3.5179,3.5193,3.5198,3.5193,3.5209,3.5209,3.5209,3.5209,3.5209,3.5209,3.5254,3.3321,3.3698,3.3998,3.3998,3.4148,3.4269,3.4203,3.4099,3.3954,3.3802,3.3642,3.3204,3.2354,3.1651,0.0,0.0,0.0,0.0,0.0,0.0,0.0,0.0,0.0,0.0,0.0,0.0,0.0,0.0,0.0,0.0,0.0,3.0292,3.0336,3.0402,3.0402,3.0424,3.0502,3.0502,3.0502,3.0502,3.0561,3.0581,3.0502,3.0561,3.0607,3.0607,3.0745,3.0799,3.0799,3.0799,3.0799,3.0804,3.0801,3.0801,3.0792,3.08,3.0796,3.0794,3.0794,3.0794,3.0799,3.0799,3.0799,3.0799,3.0799,3.0703,3.0632,3.0749,3.0812,3.0714,3.0298,3.0501,3.0685,3.0298,3.0206,3.0208,3.0194,3.0204,3.0204,3.0204,3.0204,3.019,3.0185,3.0204,3.0189,3.0198,3.0198,3.0122,2.9916,2.9889,3.0592,3.239,3.2511,3.2835,3.3722,3.373,3.4055,3.4944,3.5001,3.5038,3.52,3.5196,3.5209,3.5209,3.5209,3.5209,3.5209,3.5209,3.5209,3.5209,3.5209,3.5209,3.3805,3.4055,3.4245,3.4404,3.4363,3.4167,3.3616,3.377,0.0,0.0,3.2636,3.1955,3.15,0.0,0.0,0.0,0.0,0.0,0.0,0.0,0.0,0.0,0.0,0.0,0.0,0.0,0.0,0.0,0.0,0.0,0.0,3.037,3.0375,3.0397,3.0485,3.0579,3.0637,3.0633,3.0637,3.0637,3.07,3.0687,3.0561,3.0689,3.0745,3.0745,3.0774,3.0799,3.0804,3.079,3.0801,3.0804,3.0793,3.0801,3.0799,3.0799,3.0804,3.0802,3.0804,3.0763,3.0739,3.0774,3.0769,3.0709,3.0671,3.0711,3.0722,3.0621,3.0685,3.0717,3.0301,3.0302,3.0349,3.0232,3.0203,3.0202,3.0199,3.0209,3.02,3.02,3.0204,3.0208,3.0194,3.0194,3.0156,3.0011,2.9996,2.988,2.9507,2.9476,2.9964,3.1261,3.1223,3.1484,3.2524,3.2987,3.3312,3.3577,3.4124,3.4593,3.4964,3.5073,3.511,3.5073,3.5145,3.5198,3.5198,3.5193,3.5209,3.5209,3.5209,3.5209,3.3895,3.4074,3.4147,3.3975,3.3881,3.3676,3.2943,0.0,0.0,0.0,3.1822,3.134,3.0836,3.0456,0.0,0.0,0.0,0.0,0.0,0.0,0.0,0.0,0.0,0.0,0.0,0.0,0.0,0.0,0.0,0.0,0.0,3.0537,3.0521,3.0477,3.0568,3.0639,3.075,3.0739,3.0735,3.0735,3.0774,3.0768,3.0711,3.0782,3.081,3.081,3.081,3.0798,3.0807,3.0801,3.079,3.0796,3.08,3.0792,3.0804,3.0799,3.0798,3.0804,3.0778,3.074,3.0703,3.071,3.0698,3.0651,3.0576,3.0582,3.0577,3.0491,3.0518,3.0503,3.0273,3.0194,3.019,3.0209,3.0207,3.0195,3.0214,3.0204,3.0189,3.0098,3.0064,3.0072,3.0086,3.0089,3.0037,2.9916,2.977,2.955,2.9269,2.9282,2.956,3.0205,3.0122,3.0418,3.1385,3.18,3.2162,3.2497,3.3283,3.3844,3.4141,3.4661,3.4964,3.5057,3.5129,3.5147,3.5147,3.5162,3.516,3.516,3.5196,3.5196,3.3625,3.3755,3.3691,3.3008,3.2948,3.2854,3.2163,3.2034,3.1843,3.1163,0.0,3.114,3.0338,3.0204,0.0,0.0,0.0,0.0,0.0,0.0,0.0,0.0,0.0,0.0,0.0,0.0,0.0,0.0,0.0,0.0,0.0,3.0723,3.0736,3.0618,3.0618,3.0673,3.0801,3.0801,3.0801,3.0801,3.0801,3.0843,3.0907,3.0843,3.0804,3.0806,3.0788,3.0795,3.0781,3.0781,3.0781,3.0793,3.0794,3.0785,3.0785,3.0789,3.0794,3.0769,3.0728,3.0691,3.0678,3.0626,3.0602,3.0565,3.0501,3.0392,3.0321,3.0367,3.0272,3.0204,3.0185,3.0175,3.016,3.017,3.017,3.017,3.016,3.0164,3.011,2.9924,2.9889,2.9899,2.9902,2.9812,2.9777,2.977,2.9463,2.9177,2.9066,2.9177,2.9251,2.9254,2.9251,2.9548,3.0296,3.0405,3.0776,3.1578,3.2372,3.2855,3.2953,3.4052,3.4753,3.5001,3.502,3.502,3.502,3.5057,3.5075,3.5075,3.5147,3.52,3.3481,3.3116,3.2632,3.2524,3.2108,3.1665,3.1512,3.1066,3.0811,3.1159,3.0822,3.0414,3.0223,3.0204,0.0,0.0,0.0,0.0,0.0,0.0,0.0,0.0,0.0,0.0,0.0,0.0,0.0,0.0,0.0,0.0,3.075,3.0769,3.0793,3.0752,3.0752,3.0774,3.0801,3.0801,3.0801,0.0,3.0801,3.0843,3.0907,3.0886,3.0856,3.08,3.0733,3.0723,3.0718,3.0716,3.0712,3.0716,3.072,3.0728,3.0725,3.073,3.0717,3.0711,3.0704,3.0634,3.0558,3.0593,3.052,3.043,3.0359,3.0314,3.0273,3.0194,3.0142,3.0102,2.9988,2.9969,2.9954,2.9962,2.9958,2.9969,2.9954,2.9962,2.9956,2.9901,2.9889,2.9905,2.9903,2.9339,2.8888,2.8883,2.8809,2.8754,2.8695,2.8717,2.8742,2.875,2.8735,2.8894,2.9292,2.9716,3.0031,3.0214,3.0998,3.1814,3.2643,3.3727,3.4321,3.439,3.4398,3.4401,3.4401,3.4653,3.4773,3.4793,3.502,3.5129,3.35,3.3164,3.2675,3.2027,3.1356,3.083,3.083,3.0586,3.0448,3.0791,3.0554,3.0304,3.0304,0.0,0.0,0.0,0.0,0.0,0.0,0.0,0.0,0.0,0.0,0.0,0.0,0.0,0.0,0.0,0.0,3.0774,3.0843,3.0843,3.0852,3.0849,3.0829,3.081,3.081,3.081,3.081,3.081,3.0797,3.082,3.0856,3.0859,3.0819,3.0743,3.0729,3.0693,3.0696,3.0697,3.0706,3.0695,3.0691,3.0704,3.0691,3.063,3.0595,3.0607,3.0528,3.0462,3.04,3.0409,3.0352,3.0299,3.0228,3.0202,3.0194,3.0128,3.0068,3.0038,2.9962,2.9927,2.9899,2.9895,2.9893,2.9907,2.9893,2.9888,2.9776,2.9363,2.9283,2.9291,2.9277,2.8883,2.8608,2.8608,2.8584,2.8585,2.8585,2.8615,2.8583,2.8603,2.8615,2.8662,2.881,2.905,2.9228,2.9228,2.997,3.0685,3.1243,3.2525,3.3541,3.4197,3.4184,3.4189,3.4189,3.4371,3.4461,3.448,3.4752,3.4851,3.3261,3.2978,3.258,3.1407,3.0696,3.0292,3.0316,3.0378,3.0423,3.0434,3.0433,3.0423,3.0423,0.0,0.0,0.0,0.0,0.0,0.0,0.0,0.0,0.0,0.0,0.0,0.0,0.0,0.0,0.0,0.0,3.0845,3.0907,3.0909,3.0891,3.0895,3.0818,3.0799,3.0818,3.082,3.082,3.082,3.0779,3.0662,3.0481,3.0482,3.056,3.0665,3.052,3.0463,3.045,3.0294,3.0309,3.047,3.0462,3.0533,3.0642,3.0537,3.0491,3.0443,3.0348,3.0271,3.0266,3.0207,3.0171,3.0161,3.0117,3.0087,3.0087,3.0087,3.0038,2.9972,2.9972,2.9943,2.9897,2.9907,2.9795,2.9683,2.9683,2.9676,2.9477,2.8743,2.859,2.8596,2.8581,2.8609,2.8587,2.8587,2.8587,2.8587,2.8587,2.8587,2.8587,2.8587,2.8587,2.8587,2.8587,2.8587,2.8587,2.8587,2.9228,2.9644,2.9771,3.1075,3.2447,3.3827,3.4,3.4074,3.4074,3.4124,3.4124,3.4148,3.4416,3.4548,3.1823,3.1295,3.0655,3.0414,3.028,3.0234,3.0352,0.0,3.05,0.0,3.0524,3.0492,0.0,0.0,0.0,0.0,0.0,0.0,0.0,0.0,0.0,0.0,0.0,0.0,0.0,0.0,0.0,0.0,3.0845,3.0888,3.0907,3.0892,3.0894,3.0895,3.0781,3.0779,3.0897,3.0882,3.0888,3.0888,3.0707,3.0135,2.9249,2.9244,2.9738,3.0575,2.9811,2.9481,2.9433,2.8659,2.8811,2.9493,2.9492,2.991,3.0521,3.0441,3.0375,3.0311,3.0318,3.0221,3.0133,3.0185,3.0113,3.0038,3.0087,3.0072,3.0022,3.0022,2.9956,2.9905,2.9905,2.9901,2.9907,2.9889,2.9316,2.8765,2.8769,2.8772,2.8727,2.8635,2.8596,2.8597,2.8608,2.8594,2.8587,2.8587,2.8587,2.8587,2.8587,2.8587,2.8587,2.8587,2.8587,2.8587,2.8587,2.8587,2.8587,2.8587,2.8721,2.9083,2.9779,3.0007,3.0857,3.2419,3.3146,3.3509,3.3509,3.3753,3.3842,3.3842,3.4148,3.425,3.1749,3.1045,3.04,3.0386,3.0402,3.0434,3.0507,3.0583,3.0672,3.0709,3.0684,3.0665,0.0,0.0,0.0,0.0,0.0,0.0,0.0,0.0,0.0,0.0,0.0,0.0,0.0,0.0,0.0,0.0,3.0871,3.0892,3.0894,3.0896,3.0879,3.0857,3.0793,3.0452,2.9832,3.0423,3.0735,3.0711,2.869,2.7504,2.7062,2.8012,2.8691,2.9117,2.8747,2.8567,2.8528,2.8169,2.8236,2.8573,2.854,2.8734,2.9042,2.8871,2.9123,2.9511,2.9422,2.9669,2.9984,3.0019,2.9988,2.9956,2.9972,2.9972,2.994,2.994,2.9839,2.9734,2.9734,2.9702,2.9659,2.9574,2.9064,2.8585,2.8617,2.8596,2.8597,2.8597,2.859,2.8587,2.8587,2.8587,2.8587,2.8587,2.8587,2.8587,2.8587,2.8587,2.8587,2.8587,2.8587,2.8587,2.8587,2.8587,2.8587,2.8587,2.8587,2.8775,2.9119,2.9554,3.0115,3.0822,3.2089,3.294,3.3393,3.352,3.3577,3.3577,3.3842,3.3972,3.1572,3.0975,3.0528,3.05,3.0548,3.0575,3.0613,0.0,3.0779,0.0,3.0794,0.0,0.0,0.0,0.0,0.0,0.0,0.0,0.0,0.0,0.0,0.0,0.0,0.0,0.0,0.0,0.0,0.0,3.0878,3.0879,3.0858,3.0858,3.0834,3.0771,3.0567,2.9987,2.9017,2.9196,2.931,2.9266,2.6715,2.5503,2.5537,2.6799,2.7348,2.7368,2.7658,2.7755,2.7638,2.7445,2.7475,2.7632,2.7595,2.7661,2.78,2.7657,2.7998,2.8527,2.8438,2.8919,2.9585,2.9585,2.9718,2.9888,2.9888,2.9888,2.9888,2.9839,2.9716,2.9589,2.9551,2.947,2.9373,2.9273,2.8915,2.8615,2.8601,2.8587,2.8587,2.8587,2.8587,2.8587,2.8587,2.8587,2.8587,2.8587,2.8587,2.8587,2.8587,2.8587,2.8587,2.8587,2.8587,2.8587,2.8587,2.859,2.8601,2.8601,2.8603,2.8558,2.846,2.9026,2.9422,2.9584,3.081,3.2014,3.3103,3.3103,3.3194,3.3393,3.3605,3.3698,3.0673,3.0634,3.0576,3.0521,3.0502,3.0552,0.0,0.0,3.0726,3.0791,3.0799,0.0,0.0,0.0,0.0,0.0,0.0,0.0,0.0,0.0,0.0,0.0,0.0,0.0,0.0,0.0,0.0,0.0,3.0814,3.0784,3.0712,3.0704,3.0715,3.0715,2.9905,2.9331,2.8994,2.6839,2.5777,2.5766,2.5584,2.5495,2.5503,2.5588,2.5627,2.5685,2.6768,2.7058,2.6702,2.5936,2.6039,2.667,2.667,2.7067,2.7605,2.7605,2.7594,2.757,2.757,2.8085,2.8752,2.8752,2.9282,2.9888,2.9888,2.9888,2.9855,2.9662,2.9608,2.957,2.9375,2.9222,2.9118,2.9095,2.8852,2.8594,2.8612,2.8587,2.8587,2.8587,2.8587,2.8587,2.8587,2.8587,2.8587,2.8587,2.8587,2.8587,2.8587,2.8587,2.8587,2.8587,2.8587,2.8587,2.8587,2.8586,2.8604,2.8604,2.8614,2.8423,2.8065,2.8082,2.8352,2.8951,2.9272,3.0391,3.2252,3.2252,3.2651,3.3393,3.3393,3.3422,3.0732,3.0723,3.0716,3.0693,3.069,3.071,3.074,3.0762,3.0767,3.0793,3.0795,0.0,0.0,0.0,0.0,0.0,0.0,0.0,0.0,0.0,0.0,0.0,0.0,0.0,0.0,0.0,0.0,0.0,0.0,3.0732,3.0696,3.0691,3.0443,2.988,2.9564,2.8909,2.785,2.6293,2.5495,2.5495,2.5495,2.5503,2.5511,2.5511,2.5511,2.5522,2.5934,2.5994,2.5781,2.5492,2.5505,2.5695,2.5661,2.5784,2.5996,2.5945,2.6233,2.6679,2.6679,2.7228,2.7934,2.7934,2.8464,2.9131,2.9131,2.9406,2.9698,2.9626,2.9415,2.9206,2.9119,2.8934,2.8779,2.8779,2.8681,2.8587,2.8587,2.8587,2.8587,2.8587,2.8587,2.8587,2.8587,2.8587,2.8587,2.8587,2.8587,2.8587,2.8587,2.8587,2.8587,2.8587,2.8587,2.8587,2.8587,2.8608,2.8254,2.7423,2.7786,2.7886,2.7631,2.7631,2.7789,2.8105,2.8206,2.9218,3.1128,3.1841,3.2343,3.2632,3.3158,3.3393,3.0793,3.0799,3.0801,3.08,3.0801,3.0801,3.0801,3.0801,3.0801,3.0801,3.0801,0.0,0.0,0.0,0.0,0.0,0.0,0.0,0.0,0.0,0.0,0.0,0.0,0.0,0.0,0.0,0.0,0.0,0.0,0.0,3.0671,3.0671,3.0128,2.8973,2.8643,2.7896,2.6633,2.5878,2.5511,2.5511,2.5506,2.5498,2.5498,2.5492,2.5502,2.5502,2.5495,2.5409,2.5293,2.5245,2.5205,2.5157,2.5118,2.5088,2.5051,2.5023,2.5351,2.5806,2.5806,2.6356,2.7058,2.7058,2.7581,2.8253,2.852,2.8835,2.9139,2.9322,2.9206,2.898,2.8887,2.8718,2.8587,2.8587,2.8587,2.8587,2.8587,2.8587,2.8587,2.8587,2.8587,2.8587,2.8587,2.8587,2.8587,2.8587,2.8587,2.8587,2.8587,2.8587,2.8598,2.8619,2.8593,2.8603,2.8595,2.8603,2.8248,2.7385,2.7343,2.7535,2.7927,2.7944,2.7996,2.8132,2.8227,2.8886,3.0123,3.0791,3.1427,3.2036,3.2577,3.3033,0.0,0.0,0.0,0.0,3.0796,0.0,3.0796,0.0,3.0796,3.0796,3.0808,0.0,0.0,0.0,0.0,0.0,0.0,0.0,0.0,0.0,0.0,0.0,0.0,0.0,0.0,0.0,0.0,0.0,3.0593,3.0595,3.0607,3.0559,2.9747,2.8053,2.7136,2.6296,2.5511,2.5511,2.5511,2.5484,2.5483,2.5495,2.5495,2.5494,2.5491,2.5491,2.5491,2.5417,2.5283,2.5147,2.5088,2.5101,2.5101,2.507,2.501,2.501,2.501,2.501,2.4996,2.5508,2.6152,2.6152,2.6597,2.7296,2.8069,2.8222,2.8214,2.8795,2.8984,2.8934,2.8662,2.8587,2.8587,2.8587,2.8587,2.8587,2.8587,2.8587,2.8587,2.8587,2.8587,2.8587,2.8587,2.8587,2.8587,2.8587,2.8605,2.8605,2.8605,2.8605,2.8619,2.8604,2.8577,2.8538,2.8547,2.8537,2.8556,2.8693,2.75,2.7501,2.9011,2.9062,2.9045,2.9011,2.9246,2.9403,2.9403,2.9106,2.9902,3.1684,3.1719,3.2349,3.0801,0.0,0.0,0.0,0.0,0.0,0.0,0.0,3.0799,3.0804,3.0798,0.0,0.0,0.0,0.0,0.0,0.0,0.0,0.0,0.0,0.0,0.0,0.0,0.0,0.0,0.0,0.0,0.0,3.0595,3.0606,3.0598,2.9399,2.8489,2.8014,2.6594,2.5724,2.5511,2.5511,2.5448,2.5367,2.5369,2.5332,2.5292,2.5184,2.5135,2.5143,2.5134,2.5122,2.5088,2.5103,2.5069,2.5031,2.5031,2.5023,2.501,2.501,2.501,2.4983,2.4832,2.4919,2.5092,2.4944,2.5439,2.6169,2.6375,2.7118,2.7911,2.8084,2.8401,2.8687,2.8612,2.8587,2.8587,2.8587,2.8587,2.8587,2.8587,2.8587,2.8587,2.8587,2.8587,2.8587,2.8587,2.8587,2.8587,2.8587,2.8585,2.8613,2.8613,2.8612,2.8596,2.861,2.7765,2.7221,2.7235,2.7251,2.8155,3.0351,3.0162,3.016,3.0568,3.0585,3.0099,2.9028,2.9066,2.9102,2.9102,3.0055,3.0771,3.1291,3.2129,3.2662,0.0,0.0,0.0,0.0,0.0,0.0,3.0802,3.0802,3.0793,0.0,3.0753,0.0,0.0,0.0,0.0,0.0,0.0,0.0,0.0,0.0,0.0,0.0,0.0,0.0,0.0,3.0598,3.0598,3.0598,3.0598,3.0598,3.0598,2.8954,2.7995,2.7995,2.6318,2.5412,2.5412,2.5387,2.5351,2.5264,2.5234,2.5201,2.5157,2.5053,2.5003,2.4991,2.5,2.5013,2.5013,2.5051,2.5031,2.501,2.501,2.501,2.501,2.501,2.4964,2.4889,2.4753,2.4676,2.4629,2.4459,2.4688,2.5097,2.543,2.6048,2.6775,2.7429,2.8094,2.8587,2.8587,2.8587,2.8587,2.8587,2.8587,2.8587,2.8587,2.8587,2.8587,2.8587,2.8587,2.8587,2.8587,2.8582,2.8603,2.8603,2.8595,2.8401,2.7872,2.78,2.7794,2.7827,2.7143,2.6719,2.6702,2.7843,2.9334,3.1077,3.1214,3.1207,3.1213,3.1213,3.0793,2.9905,2.9905,2.9905,2.9905,3.0106,3.0439,3.0924,3.2049,3.2601,0.0,0.0,0.0,0.0,0.0,0.0,3.0806,3.0794,3.0782,0.0,0.0,0.0,0.0,0.0,0.0,0.0,0.0,0.0,0.0,0.0,0.0,0.0,0.0,0.0,3.0598,3.0598,3.0598,3.0598,3.0598,3.0588,3.0579,2.8916,2.7969,2.7969,2.6226,2.5283,2.5283,2.5234,2.5182,2.519,2.513,2.5101,2.5095,2.5018,2.501,2.501,2.501,2.501,2.501,2.501,2.501,2.501,2.501,2.4996,2.4983,2.4983,2.4875,2.4749,2.4657,2.4596,2.453,2.4391,2.4211,2.4206,2.4919,2.5069,2.5335,2.6964,2.7924,2.8478,2.8569,2.8587,2.8587,2.8587,2.8605,2.8598,2.8598,2.8598,2.8616,2.8608,2.8598,2.8605,2.8598,2.8604,2.8532,2.8415,2.8404,2.7964,2.6847,2.67,2.6701,2.671,2.6687,2.6843,2.7175,2.9658,3.1223,3.1202,3.1184,3.119,3.119,3.119,3.119,3.119,3.119,3.119,3.119,2.9871,2.9753,3.0678,3.1743,3.2231,0.0,0.0,0.0,0.0,0.0,0.0,3.0806,3.073,3.0634,0.0,3.0627,3.0607,0.0,0.0,0.0,0.0,0.0,0.0,0.0,0.0,0.0,0.0,0.0,0.0,3.0598,3.0598,3.0598,3.0598,3.0559,3.049,3.0444,2.8788,2.7804,2.7761,2.6107,2.5214,2.5214,2.5203,2.5157,2.5044,2.5069,2.5076,2.5017,2.5002,2.501,2.501,2.501,2.501,2.501,2.501,2.501,2.501,2.501,2.4908,2.4753,2.4753,2.4642,2.4441,2.4229,2.4155,2.4173,2.3976,2.3896,2.3876,2.4039,2.4526,2.5335,2.6964,2.7501,2.7773,2.8424,2.8587,2.8587,2.8587,2.8585,2.8604,2.8604,2.8604,2.8595,2.8596,2.8604,2.859,2.8613,2.8586,2.8253,2.7238,2.7083,2.6985,2.6733,2.6698,2.6723,2.6707,2.6689,2.7685,3.0139,3.0861,3.1198,3.1218,3.1213,3.119,3.119,3.119,3.119,3.119,3.119,3.119,3.119,3.0903,3.0874,3.1108,3.1588,3.1823,0.0,0.0,0.0,3.0658,0.0,0.0,0.0,3.0713,3.0578,3.0309,3.0248,3.0321,3.0567,0.0,0.0,0.0,0.0,0.0,0.0,0.0,0.0,0.0,0.0,0.0,3.0519,3.0559,3.055,3.0469,3.0364,3.0273,3.0202,2.8575,2.7656,2.7656,2.5982,2.5111,2.5145,2.5118,2.5032,2.4912,2.4921,2.4917,2.4844,2.485,2.4865,2.4898,2.4965,2.4946,2.4846,2.4851,2.4846,2.4828,2.4741,2.4674,2.4636,2.4575,2.4478,2.432,2.4117,2.4058,2.4018,2.3834,2.3792,2.3795,2.3795,2.4353,2.5163,2.5977,2.6754,2.7441,2.7857,2.8254,2.8492,2.8291,2.8443,2.851,2.8234,2.79,2.7842,2.8493,2.8088,2.7847,2.849,2.8059,2.7437,2.6801,2.6693,2.6703,2.6703,2.6708,2.6723,2.6719,2.8037,2.9573,3.1049,3.1215,3.1184,3.119,3.119,3.119,3.119,3.119,3.119,3.119,3.119,3.119,3.119,3.119,3.119,3.119,3.1351,3.1449,0.0,0.0,0.0,0.0,0.0,3.0585,0.0,0.0,0.0,2.9998,2.9895,0.0,0.0,0.0,0.0,0.0,0.0,0.0,0.0,0.0,0.0,0.0,0.0,0.0,0.0,3.0509,3.0469,3.0279,3.0163,3.0066,2.9981,2.8369,2.7485,2.7513,2.5848,2.4966,2.5032,2.4985,2.4903,2.4779,2.4827,2.4783,2.4676,2.4707,2.4742,2.4782,2.4866,2.4813,2.4657,2.4632,2.4645,2.4644,2.4463,2.4425,2.4489,2.4372,2.4248,2.4172,2.4057,2.3978,2.3915,2.3792,2.3771,2.3774,2.3774,2.4241,2.4775,2.4937,2.5984,2.7078,2.7173,2.7777,2.8291,2.7897,2.8041,2.8176,2.7735,2.7099,2.6899,2.7952,2.7289,2.6943,2.8045,2.7386,2.671,2.6698,2.6706,2.6691,2.6691,2.6706,2.6939,2.7498,2.9763,3.1185,3.1219,3.1184,3.119,3.119,3.119,3.119,3.119,3.119,3.119,3.119,3.119,3.119,3.119,3.119,3.119,3.119,3.119,3.119,0.0,0.0,0.0,0.0,3.0453,0.0,0.0,0.0,3.0182,2.9947,0.0,0.0,0.0,0.0,0.0,0.0,0.0,0.0,0.0,0.0,0.0,0.0,0.0,0.0,0.0,3.0421,3.0343,3.0152,3.0174,3.0071,2.9841,2.8237,2.7299,2.7253,2.5618,2.4768,2.4823,2.4842,2.4798,2.4723,2.4889,2.4846,2.4631,2.4719,2.4768,2.4711,2.4596,2.4528,2.4512,2.4391,2.4412,2.4504,2.4368,2.4246,2.415,2.4056,2.3935,2.3765,2.3678,2.3678,2.3721,2.3652,2.3656,2.3721,2.3721,2.3793,2.3988,2.4712,2.5517,2.6229,2.6659,2.7368,2.7869,2.753,2.7324,2.7238,2.7392,2.6817,2.6299,2.6438,2.6353,2.6396,2.685,2.6798,2.6702,2.6691,2.6691,2.6691,2.6691,2.6706,2.7719,3.0396,3.0991,3.1198,3.1196,3.1173,3.119,3.119,3.119,3.119,3.119,3.119,3.119,3.119,3.119,3.119,3.119,3.119,3.119,3.119,3.119,3.119,0.0,0.0,0.0,0.0,0.0,0.0,2.9864,0.0,3.0007,0.0,0.0,0.0,0.0,0.0,0.0,0.0,2.7923,0.0,0.0,0.0,0.0,0.0,0.0,0.0,0.0,0.0,0.0,0.0,2.9834,2.9735,2.9588,2.7979,2.708,2.708,2.5489,2.4676,2.4753,2.4734,2.4707,2.4645,2.4772,2.4676,2.4374,2.4458,2.4424,2.4302,2.4266,2.4248,2.421,2.4192,2.4153,2.4091,2.4039,2.389,2.3755,2.3762,2.3728,2.37,2.3674,2.3678,2.37,2.3674,2.3678,2.37,2.3634,2.3652,2.3683,2.385,2.4486,2.5176,2.5602,2.63,2.6929,2.698,2.6957,2.6893,2.6741,2.6419,2.6216,2.621,2.6197,2.6285,2.6539,2.6472,2.6472,2.6674,2.6708,2.6691,2.6691,2.6686,2.7866,3.0881,3.121,3.1201,3.119,3.119,3.119,3.119,3.1112,3.1112,3.119,3.1072,3.1072,3.119,3.1072,3.1032,3.1095,3.1095,3.1095,3.1112,3.1151,3.119,2.7893,0.0,0.0,0.0,0.0,0.0,0.0,0.0,0.0,0.0,0.0,0.0,0.0,0.0,0.0,0.0,0.0,2.6682,0.0,0.0,0.0,0.0,0.0,0.0,0.0,0.0,0.0,2.9753,2.9626,2.9511,2.9407,2.7808,2.6916,2.6972,2.5405,2.4596,2.4676,2.4676,2.4629,2.4512,2.4594,2.4478,2.4154,2.4211,2.4155,2.3996,2.3999,2.3959,2.3917,2.3919,2.3834,2.3718,2.3718,2.3638,2.35,2.3552,2.3598,2.3634,2.3634,2.3634,2.3634,2.3634,2.3634,2.3611,2.3517,2.3453,2.3407,2.3133,2.3786,2.4585,2.4775,2.5579,2.6364,2.6539,2.6623,2.6605,2.6291,2.622,2.622,2.622,2.622,2.6256,2.6482,2.6418,2.6403,2.664,2.6708,2.6691,2.6691,2.6718,2.7841,3.0881,3.1202,3.1173,3.101,3.1061,3.1134,3.1112,3.1015,3.1032,3.1112,3.0992,3.0952,3.1112,3.0952,3.0912,3.0975,3.0975,3.0975,3.1015,3.1151,3.119,0.0,0.0,0.0,2.7701,0.0,0.0,0.0,0.0,2.7867,0.0,0.0,0.0,0.0,0.0,0.0,0.0,0.0,0.0,0.0,0.0,0.0,0.0,0.0,0.0,0.0,0.0,0.0,2.9625,2.9645,2.9626,2.9407,2.7808,2.6897,2.6897,2.5336,2.4551,2.4615,2.4615,2.4512,2.4318,2.4442,2.4338,2.4016,2.4078,2.4077,2.3996,2.3795,2.3714,2.3692,2.3571,2.3517,2.3517,2.3517,2.3517,2.3499,2.3499,2.3499,2.3517,2.3517,2.3517,2.3517,2.3517,2.3517,2.3471,2.3193,2.3119,2.3052,2.2782,2.3774,2.4797,2.4503,2.5541,2.6607,2.6293,2.622,2.622,2.622,2.622,2.622,2.622,2.622,2.6239,2.6467,2.6604,2.6672,2.669,2.6708,2.6691,2.6691,2.6718,2.7841,3.0881,3.1202,3.101,3.056,3.0751,3.0885,3.0912,3.0992,3.0975,3.0912,3.0912,3.0912,3.0912,3.0912,3.0912,3.0912,3.0912,3.0952,3.1015,3.1151,3.119,0.0,0.0,2.5901,2.5914,0.0,0.0,0.0,0.0,0.0,0.0,0.0,0.0,0.0,0.0,0.0,0.0,0.0,0.0,0.0,0.0,0.0,0.0,0.0,0.0,0.0,0.0,0.0,2.9669,2.9561,2.9465,2.9407,2.7823,2.6916,2.6916,2.5336,2.4517,2.4515,2.441,2.4302,2.4248,2.4229,2.4079,2.3816,2.3919,2.3855,2.3678,2.3594,2.3571,2.3549,2.3522,2.3494,2.3494,2.3494,2.3494,2.3494,2.3494,2.3494,2.3494,2.3494,2.3383,2.3241,2.3241,2.3126,2.296,2.2859,2.2833,2.2859,2.3044,2.3454,2.3994,2.4678,2.5246,2.5747,2.6123,2.622,2.622,2.622,2.622,2.622,2.622,2.6291,2.6345,2.6347,2.6467,2.6588,2.6674,2.6691,2.708,2.81,2.8212,2.8989,3.1008,3.121,3.0824,2.984,2.9996,2.9969,2.9545,3.0311,3.0535,2.9951,3.0054,3.0225,3.0351,3.0241,3.0384,3.079,3.079,3.0773,3.0814,3.0952,3.1072,2.5322,2.5195,0.0,2.5006,2.4704,0.0,2.5148,0.0,0.0,0.0,0.0,0.0,0.0,0.0,0.0,0.0,0.0,0.0,0.0,2.8985,0.0,0.0,0.0,0.0,0.0,0.0,2.944,2.9584,2.92,2.9104,0.0,0.0,2.7435,2.6634,2.5153,2.4375,2.4393,2.4229,2.4096,2.4019,2.3981,2.384,2.3642,2.3707,2.366,2.3494,2.3494,2.3494,2.3494,2.3494,2.3494,2.3494,2.3494,2.3494,2.3494,2.3494,2.3448,2.336,2.336,2.3175,2.2952,2.2952,2.2833,2.2677,2.2554,2.2716,2.2942,2.3119,2.355,2.4125,2.4879,2.5292,2.5624,2.6104,2.622,2.622,2.622,2.622,2.622,2.622,2.6256,2.631,2.6295,2.6364,2.6434,2.659,2.6657,2.7249,2.8817,2.9483,3.0145,3.1103,3.0915,3.0294,2.9286,2.9486,2.9424,2.8942,2.9724,2.9908,2.9332,2.9483,2.9714,3.0045,2.9863,3.0098,3.0721,3.0642,3.0651,3.0692,3.079,3.0912]}]]